GFSMW_sfc_temp_000.txt.gz
Temp
57 59 60 59 59 60 61 60 60 60 57 55 54 53 54 54 54 54 57 56 57 57 55 53 53 52 51 51 51 50 49 48 48 46 47 47 48 49 52 50 50 53 55
59 61 60 56 60 60 60 60 60 59 58 55 55 55 54 54 55 55 54 55 56 56 56 53 52 52 50 50 50 50 48 47 47 45 42 41 47 48 50 52 50 49 51
60 59 60 57 56 59 59 61 60 60 58 57 55 53 52 52 52 53 53 54 55 56 55 54 52 51 50 49 50 49 48 45 46 47 45 39 38 44 48 48 50 50 48
60 60 59 56 56 58 57 58 60 59 59 57 54 53 58 57 59 59 53 54 56 55 55 54 52 50 49 49 48 50 46 45 43 45 49 45 42 39 41 46 49 50 51
57 56 56 58 59 58 57 57 58 58 60 58 55 53 54 56 58 51 52 51 51 53 53 53 51 49 49 49 48 48 46 46 44 44 42 42 42 41 40 39 45 50 50
55 58 58 58 57 56 56 57 56 58 58 57 56 52 52 55 53 52 51 49 47 47 48 50 48 48 47 48 47 48 46 46 46 44 43 41 40 42 39 40 41 43 48
56 56 55 55 54 54 54 55 55 57 59 55 54 54 53 53 52 54 52 50 49 48 48 48 48 47 46 46 46 47 47 45 45 42 42 44 43 44 43 41 40 40 46
57 55 54 54 54 55 55 56 58 56 57 55 55 52 51 49 49 49 47 44 47 46 47 45 45 46 46 45 46 46 45 45 42 43 43 45 45 44 45 43 40 38 40
53 54 55 54 52 52 52 52 52 55 55 53 50 47 46 46 44 43 44 46 46 47 45 45 44 44 45 44 45 42 43 44 43 42 41 43 44 43 44 43 42 39 34
54 55 53 53 52 51 51 52 52 53 52 49 48 47 45 45 45 45 44 43 44 45 45 45 45 45 45 45 44 43 42 41 41 42 40 41 43 42 43 43 42 41 39
51 51 54 55 56 56 54 52 50 49 48 48 46 45 45 45 44 43 43 43 44 45 46 45 44 44 44 44 43 41 41 40 39 39 39 39 41 41 40 40 41 40 40
51 50 52 52 51 51 49 50 48 48 47 47 45 44 43 43 42 42 42 43 44 46 46 45 44 44 43 43 41 39 40 37 37 38 37 39 43 39 37 37 37 37 38
48 49 49 51 50 49 49 49 48 46 47 46 43 42 42 41 40 41 42 43 45 44 44 44 43 43 42 41 40 38 38 38 38 37 36 36 35 33 33 32 32 33 38
50 49 48 48 48 49 48 47 46 46 45 45 41 40 40 40 39 40 41 43 43 42 42 42 42 41 40 39 39 38 35 33 34 33 33 33 32 31 31 32 31 33 31
48 48 47 47 47 47 47 46 45 45 44 42 41 39 41 41 41 41 41 43 43 42 41 39 39 37 38 40 34 33 31 30 30 31 32 32 34 37 36 35 33 32 31
48 50 49 48 48 47 45 45 44 43 44 43 43 43 43 43 41 41 42 42 41 40 38 37 35 34 38 36 37 35 30 31 30 29 31 32 34 34 36 36 36 35 30
47 47 47 47 46 43 44 42 42 42 45 43 43 42 42 41 41 41 41 39 37 35 34 34 33 32 31 37 37 36 32 30 29 28 28 30 33 33 32 33 34 35 35
48 48 46 45 43 43 41 41 41 41 41 41 42 42 41 39 39 38 37 35 34 33 32 32 31 30 32 35 36 35 30 28 29 29 29 28 29 30 31 30 29 30 31
48 46 43 42 41 40 40 40 40 41 41 39 39 39 39 39 38 36 33 33 31 30 30 30 29 29 29 34 34 33 26 27 27 30 30 30 31 33 35 31 29 30 30
45 42 42 41 39 40 41 38 38 38 38 39 40 41 40 38 36 33 32 31 29 30 29 29 28 30 25 31 32 32 29 25 26 27 29 31 31 32 32 30 29 28 30
42 42 41 39 40 45 44 39 38 37 41 41 40 39 38 36 34 32 31 29 28 26 19 18 21 24 26 26 31 32 28 26 26 27 27 28 31 32 32 32 29 29 32
40 41 39 39 44 43 41 38 36 40 40 38 37 36 35 34 34 30 29 28 25 20 19 14 17 21 20 28 30 32 31 30 27 27 28 29 31 32 32 31 30 32 31
37 38 37 42 41 41 39 37 36 38 36 34 33 32 32 32 31 28 27 25 23 18 17 21 18 21 24 24 29 30 30 31 28 29 30 30 31 30 29 31 31 29 29
35 37 40 39 38 38 37 36 36 36 33 32 31 30 29 29 28 27 27 26 18 17 23 20 21 22 23 24 25 27 28 30 29 27 26 25 26 25 24 25 27 27 28
37 37 38 37 37 37 35 36 35 34 32 31 31 28 27 26 26 27 26 24 23 21 21 18 23 21 20 24 28 28 28 29 28 26 22 22 22 22 23 23 24 25 27
37 38 39 38 38 36 35 35 34 32 31 30 28 23 22 21 25 24 25 30 29 31 30 30 26 24 27 29 29 29 29 29 29 25 20 19 20 20 21 21 22 24 25

GFSMW_sfc_temp_003.txt.gz
Temp
54 56 56 55 56 56 57 58 58 57 55 53 53 52 53 53 53 53 55 55 56 55 53 52 52 51 50 50 49 48 48 47 46 45 45 46 46 48 48 48 47 48 51
56 56 56 54 57 57 57 57 58 58 56 54 54 54 52 52 53 53 53 55 56 56 54 53 53 52 50 49 48 48 46 46 45 44 41 40 43 45 48 47 48 48 48
56 56 57 56 55 56 56 58 59 58 57 56 53 52 51 51 50 52 51 54 55 57 55 54 53 52 51 50 48 47 47 45 44 45 43 38 36 39 44 46 46 46 46
57 57 57 56 55 56 55 56 56 56 57 56 54 52 54 55 59 57 56 56 52 56 57 56 52 51 48 47 46 47 45 44 42 42 47 43 42 36 36 41 44 45 47
55 55 56 55 53 54 54 53 55 56 57 55 54 52 51 54 56 54 49 51 51 51 54 55 53 49 49 49 48 46 45 44 43 43 41 40 39 39 36 35 41 43 44
54 56 55 54 54 53 53 54 55 56 57 56 54 51 49 51 50 50 48 50 46 47 48 49 50 48 48 47 45 46 47 46 45 43 42 41 40 38 36 34 38 39 41
52 52 50 53 53 52 51 53 52 53 53 52 52 53 51 48 47 48 48 46 43 43 43 46 45 45 45 45 47 45 45 45 43 41 41 44 41 40 39 37 37 37 40
52 52 53 51 50 50 50 50 51 51 52 51 51 50 48 47 47 45 45 42 41 40 42 43 45 45 44 45 46 44 43 43 42 42 42 40 40 40 40 38 36 36 38
50 50 49 50 50 50 51 49 50 51 50 49 47 47 46 46 45 43 41 40 41 43 41 42 44 44 44 44 44 43 42 42 43 42 40 38 39 39 40 41 39 37 33
49 50 50 51 52 51 49 48 49 48 48 47 47 48 46 44 43 41 41 41 41 42 43 44 45 45 44 43 43 42 43 41 41 42 39 38 38 39 39 40 41 39 36
48 49 50 51 51 50 49 48 48 47 46 45 45 44 45 42 41 40 40 41 43 44 44 44 45 43 41 42 41 41 40 39 39 39 39 38 38 37 36 37 38 38 39
50 50 50 50 49 48 48 47 46 44 45 45 44 45 42 41 40 40 41 42 44 45 45 44 44 43 42 41 40 38 39 37 36 37 36 36 41 36 36 35 35 36 36
50 50 50 51 50 48 47 47 46 44 44 44 44 43 39 38 38 41 43 44 45 45 44 44 42 41 40 39 38 37 37 36 36 35 34 34 34 32 32 32 31 32 36
50 49 49 48 47 47 47 46 43 43 43 42 41 38 38 38 38 39 41 40 43 42 42 42 41 40 39 38 38 36 33 31 32 32 32 31 30 30 30 31 31 32 30
48 47 48 47 46 45 44 43 43 42 42 40 39 38 41 41 39 39 40 41 42 43 41 39 38 37 37 38 32 32 32 31 31 31 31 31 33 36 35 34 32 30 30
46 48 48 47 45 45 43 42 42 41 40 40 40 42 42 41 41 40 41 40 40 40 39 37 35 34 37 36 37 35 30 30 30 29 30 30 33 32 34 35 35 34 30
44 46 46 45 44 42 42 40 39 40 40 39 41 42 41 41 40 40 40 39 37 36 35 34 33 32 32 37 37 36 30 29 29 28 28 30 32 32 31 32 33 33 34
48 48 47 43 43 42 40 38 39 39 39 39 38 39 40 39 37 37 36 34 33 33 32 31 31 30 32 35 35 34 29 27 27 28 29 28 28 30 30 30 29 30 31
47 47 44 43 41 38 37 37 37 38 38 38 38 39 38 36 35 34 32 32 31 30 30 30 29 29 28 33 33 31 23 24 25 28 29 29 28 31 33 30 27 28 30
48 44 42 41 38 39 39 39 37 38 37 39 38 37 37 35 33 31 31 31 29 29 29 28 28 28 24 29 32 30 26 25 26 27 29 30 30 31 32 29 27 26 29
44 43 40 38 39 40 39 36 36 35 38 38 37 36 36 34 32 31 30 28 27 26 20 18 20 23 25 24 30 31 28 25 25 26 27 28 31 31 32 31 29 29 31
40 39 37 37 39 39 37 35 34 36 36 35 34 33 32 32 32 29 27 27 25 21 19 14 17 20 19 27 28 30 31 30 26 26 28 28 30 31 31 30 30 31 30
37 37 35 36 41 39 38 36 35 36 34 32 31 30 31 30 29 27 26 25 23 19 17 21 19 21 23 22 27 29 29 30 27 29 29 29 29 28 26 28 29 26 27
35 34 35 35 35 39 38 37 36 35 33 31 31 30 28 27 26 27 27 25 19 17 22 20 20 22 20 21 23 26 27 29 29 27 25 24 25 23 23 24 25 25 25
35 36 35 35 36 36 34 35 34 34 32 32 31 28 27 25 26 26 25 25 23 20 21 18 21 20 19 22 28 27 26 27 27 25 22 22 20 20 21 21 22 23 24
35 36 36 35 35 34 32 33 34 32 30 30 29 23 21 21 25 24 24 29 28 30 29 29 25 24 26 28 28 27 28 28 27 24 21 18 18 16 19 18 18 20 21

GFSMW_sfc_temp_006.txt.gz
Temp
52 52 53 53 54 54 56 57 56 56 54 52 52 51 52 52 52 52 53 53 54 54 53 52 51 50 50 51 48 47 47 46 45 45 45 45 46 46 48 48 48 50 50
53 56 55 53 55 56 56 56 57 56 54 52 52 51 50 51 51 51 52 53 53 54 54 53 53 51 51 48 48 46 45 45 44 44 41 41 43 45 47 47 48 47 48
55 53 54 53 54 55 54 55 55 55 54 54 52 52 50 51 51 54 52 54 53 54 54 55 54 52 51 51 50 48 46 45 43 43 43 37 37 39 43 46 46 46 45
53 55 54 52 52 53 53 54 54 54 56 54 52 50 49 49 52 52 53 55 52 51 53 54 52 52 52 51 48 48 46 44 42 42 46 43 42 38 37 42 45 45 46
52 51 52 54 49 50 50 50 53 54 53 52 51 50 50 49 50 50 48 50 50 48 50 51 51 49 46 46 48 46 44 46 43 43 41 40 40 40 38 36 39 44 45
54 53 51 52 50 50 50 50 52 53 53 51 50 48 46 46 47 49 46 47 46 44 44 45 45 44 43 43 43 45 45 42 44 43 42 41 41 39 37 35 36 38 42
49 50 49 49 50 50 50 51 50 51 51 49 48 47 46 46 45 47 47 45 43 40 39 41 42 42 41 43 44 43 43 43 42 43 43 43 42 43 41 39 37 35 39
49 49 50 48 49 50 49 48 48 49 48 48 48 47 47 46 47 47 45 41 40 39 40 41 42 41 42 42 43 42 42 42 41 40 39 39 40 41 41 41 36 35 37
49 49 51 51 51 52 51 48 47 48 48 46 45 45 45 46 47 46 41 39 39 41 41 41 41 42 43 44 43 41 40 39 39 38 39 39 40 41 41 41 39 36 32
49 51 51 51 52 50 48 48 47 47 47 45 45 46 45 46 46 42 39 39 39 41 41 42 42 43 43 42 42 41 41 40 40 41 40 39 40 40 40 39 38 37 36
48 49 49 49 49 48 48 47 46 46 45 43 43 43 45 45 43 38 38 39 40 41 42 43 43 42 43 42 40 40 40 39 39 39 38 37 38 36 36 36 36 36 36
48 49 48 48 47 47 47 46 45 44 43 43 43 43 41 40 37 38 39 40 42 43 42 44 43 43 41 40 39 38 38 37 36 36 35 35 39 36 36 35 33 34 35
47 48 50 48 47 47 46 46 45 43 43 43 41 39 38 36 36 37 38 40 41 42 43 43 44 43 41 40 38 36 36 35 34 33 32 33 33 31 32 32 32 32 35
46 46 46 47 46 47 45 44 43 43 42 41 38 36 35 35 35 36 37 39 40 42 42 42 41 39 38 38 37 36 33 32 33 32 32 31 31 30 30 31 31 32 31
46 45 45 49 48 47 45 42 43 42 40 39 39 38 40 39 37 38 38 39 39 40 40 40 38 37 37 38 34 33 32 31 30 31 32 32 33 36 35 33 31 30 30
43 44 45 46 46 45 42 42 41 40 40 39 39 40 42 42 40 40 39 39 39 39 39 36 33 32 36 37 37 36 31 31 31 29 30 30 32 32 33 34 34 33 29
44 43 46 47 46 43 41 40 40 39 39 41 41 39 41 41 40 39 38 37 35 34 33 32 32 31 32 36 36 36 31 30 29 28 28 29 32 32 31 31 32 32 33
43 45 47 46 42 42 40 37 37 37 37 36 37 39 38 36 35 35 34 33 33 32 30 30 30 29 31 34 34 33 29 27 27 28 28 28 28 30 30 30 30 30 30
44 45 44 42 40 38 36 36 36 36 36 36 36 36 35 34 33 32 30 31 30 30 29 30 29 27 28 32 32 31 25 24 24 28 28 28 29 30 32 29 27 28 30
46 44 42 40 38 38 37 39 35 35 35 36 35 34 33 31 29 29 29 30 28 29 29 28 27 27 24 28 31 30 25 24 25 26 29 30 30 31 31 29 27 26 29
44 43 40 37 38 38 38 36 35 34 36 35 34 33 31 30 29 28 28 27 26 26 20 18 20 23 25 24 30 31 27 26 25 26 26 28 30 31 32 31 28 27 30
41 41 37 36 38 38 37 36 33 36 36 33 31 30 30 30 30 27 26 27 24 21 18 14 17 20 19 26 28 30 30 30 26 26 28 27 30 30 30 28 28 29 28
40 38 34 35 36 37 38 34 36 35 34 32 30 30 29 29 29 26 25 24 22 18 18 21 20 21 23 21 27 27 28 29 27 28 29 28 28 27 25 27 27 25 25
36 34 34 34 34 36 36 34 34 33 32 31 30 29 28 27 26 27 27 25 19 17 21 19 19 21 20 21 23 26 26 28 28 27 26 25 25 22 22 23 24 23 24
35 35 34 34 34 34 33 33 32 32 31 31 31 29 27 25 26 26 25 24 22 19 21 18 18 19 19 22 27 26 25 26 26 25 23 22 21 19 21 21 21 21 22
35 34 34 33 34 34 33 32 31 30 29 30 28 22 21 21 24 24 23 29 27 29 29 28 24 24 26 27 27 27 27 27 25 23 19 18 17 16 18 18 18 19 19

GFSMW_sfc_temp_009.txt.gz
Temp
64 65 64 64 65 66 68 70 69 67 67 67 67 68 67 67 68 69 67 65 66 65 64 65 65 64 62 63 63 62 59 61 61 60 61 62 62 61 63 64 64 64 64
65 64 65 65 66 67 67 66 65 65 65 67 66 65 64 66 65 65 65 66 64 65 64 63 64 64 63 62 62 60 61 60 61 60 60 56 60 60 60 62 62 60 63
66 66 66 66 64 64 62 64 64 65 64 64 66 66 65 65 66 67 67 66 64 64 63 62 62 62 62 60 62 61 59 60 60 59 60 55 53 59 59 57 60 58 60
66 66 65 63 62 61 62 64 64 65 64 63 62 60 60 60 62 62 63 63 62 62 62 60 60 60 60 59 60 62 60 59 59 56 57 56 55 54 54 56 57 58 57
62 60 60 60 60 60 60 61 63 63 62 61 60 60 59 60 60 60 59 59 60 60 59 58 57 57 58 58 57 57 55 57 57 55 54 53 54 53 52 50 53 54 56
60 60 60 61 61 61 60 61 62 62 62 61 59 58 56 56 57 58 58 59 59 58 55 55 54 53 53 52 53 53 52 52 53 52 53 53 51 50 49 46 47 47 52
58 59 59 60 60 60 60 61 61 61 60 59 58 57 56 56 56 56 56 56 56 55 53 52 52 51 51 51 51 50 48 47 46 44 43 44 41 41 39 39 42 45 51
57 58 58 58 60 60 60 59 60 60 60 58 57 56 56 56 55 55 55 54 52 52 51 51 52 52 51 51 51 49 43 42 41 39 38 37 38 39 39 39 39 39 45
58 58 59 60 59 59 59 57 57 59 59 57 55 55 54 53 53 53 52 51 49 51 51 52 51 51 51 50 48 46 42 41 38 38 39 39 42 41 43 43 44 40 37
59 60 61 60 59 59 58 57 58 57 56 55 54 53 53 52 51 49 48 48 49 50 50 50 51 50 50 50 47 47 46 45 45 46 44 45 45 44 45 45 45 46 44
58 59 59 59 58 57 58 57 57 56 55 53 51 51 50 49 48 47 47 48 49 50 49 50 49 47 45 46 47 47 47 46 46 46 45 44 45 45 45 46 46 45 45
57 58 57 57 57 57 58 56 55 53 51 51 51 49 48 47 46 46 47 48 48 49 49 49 46 44 45 48 46 45 45 45 44 44 44 44 46 44 44 44 42 43 44
56 56 56 55 56 55 54 53 52 50 52 50 49 47 46 46 45 45 46 47 47 47 47 45 42 42 44 45 45 44 44 43 43 42 41 41 40 40 41 41 41 41 42
54 54 53 54 54 53 51 50 50 51 49 48 47 46 45 45 45 45 45 46 46 46 43 42 43 41 43 44 44 44 42 42 41 40 40 39 39 38 39 39 39 39 39
51 50 50 50 52 51 50 49 50 48 47 47 46 45 46 46 43 45 46 46 47 46 46 44 43 42 42 43 41 41 40 40 39 40 40 39 38 36 37 37 38 38 37
46 47 47 48 50 49 48 47 47 46 46 45 44 45 45 46 46 45 45 45 44 43 42 41 39 39 40 36 37 37 39 38 38 36 37 37 36 36 34 34 34 35 34
44 46 50 50 49 49 46 46 46 45 45 44 44 45 44 44 43 43 43 42 41 41 40 39 39 38 38 35 35 35 37 37 36 35 35 35 37 35 36 34 33 33 33
45 48 50 49 49 49 47 45 45 44 44 43 44 44 43 41 42 41 40 40 40 39 38 37 37 37 37 33 33 33 35 34 34 34 35 34 35 35 33 32 33 34 35
47 49 50 49 48 47 46 44 44 44 43 43 42 42 41 40 39 38 38 38 38 37 37 36 35 35 35 32 32 32 32 31 31 33 35 34 34 33 33 31 30 32 35
51 50 50 48 46 47 45 44 44 43 42 42 41 41 40 39 38 37 37 37 37 36 35 34 35 32 31 31 30 31 31 29 30 32 33 32 32 31 31 30 30 28 32
49 50 48 46 46 46 45 43 42 41 43 42 41 40 39 38 38 37 37 37 36 33 30 29 30 31 31 30 30 30 29 29 29 30 32 33 31 30 30 30 29 29 31
48 48 46 45 45 45 44 43 42 44 43 41 40 39 39 38 37 36 37 36 34 31 29 28 29 31 29 29 29 29 29 30 28 29 31 31 28 29 28 28 28 28 28
47 46 45 43 44 45 44 42 44 42 42 40 39 39 38 37 37 36 35 34 34 31 29 29 28 28 30 30 29 28 29 30 29 30 28 28 27 27 28 27 27 27 28
44 44 42 42 42 44 43 42 42 41 40 38 38 38 37 36 37 36 35 33 31 29 29 28 26 26 27 28 29 29 30 29 29 29 29 26 25 26 27 28 28 28 27
42 42 41 41 41 42 41 42 40 39 38 38 38 36 35 34 34 34 33 32 31 29 28 27 27 24 24 26 27 27 26 27 26 26 26 24 23 26 26 26 26 27 27
41 40 41 40 39 39 38 38 37 37 36 35 35 34 33 33 33 33 32 31 29 28 28 28 26 26 26 27 26 26 25 25 24 24 21 20 21 22 23 23 24 25 25

GFSMW_sfc_temp_012.txt.gz
Temp
79 79 77 77 78 77 77 79 77 73 79 80 77 79 77 78 79 79 75 74 75 73 72 73 72 72 71 71 70 70 68 68 71 67 68 70 71 69 71 72 72 72 71
78 76 77 76 75 74 75 75 75 75 76 79 77 75 73 76 75 76 75 75 72 72 72 70 70 70 70 69 68 67 67 68 69 65 65 62 67 70 69 71 70 69 71
75 75 75 74 73 72 73 74 74 74 73 73 77 77 77 76 75 72 73 72 71 71 70 69 69 68 68 68 68 67 66 64 68 68 63 61 59 66 70 66 68 67 67
74 73 72 71 71 70 72 73 73 73 72 71 72 68 70 67 69 69 70 70 70 69 69 68 67 66 67 65 66 68 66 65 63 66 68 66 65 60 59 64 65 66 64
71 70 70 71 71 71 70 72 72 72 71 70 68 69 67 68 69 68 66 67 68 68 68 67 64 64 65 64 63 62 62 63 62 62 62 58 61 61 55 58 57 63 64
70 69 70 71 72 72 70 70 71 70 70 69 67 64 64 64 64 65 64 65 65 66 66 65 62 61 61 60 60 59 56 56 55 56 56 54 48 50 50 54 57 58 60
68 69 69 71 70 69 69 69 70 69 69 67 66 66 65 64 63 62 62 60 62 62 61 61 60 60 59 59 56 50 48 46 43 41 41 40 39 39 40 40 41 45 53
68 68 69 70 69 68 68 68 69 69 69 67 66 66 64 64 62 61 60 59 59 59 59 59 59 58 58 57 55 50 48 43 41 40 39 39 39 40 39 38 38 37 41
66 67 69 69 68 67 67 66 67 68 68 65 64 62 62 60 58 58 58 58 58 59 57 57 56 56 55 54 52 48 46 47 46 44 43 43 44 43 43 44 44 41 37
67 68 69 68 68 68 67 66 66 66 65 64 62 61 59 59 57 56 55 55 56 56 54 54 55 54 51 48 46 47 49 47 46 48 48 50 51 48 47 47 47 45 43
66 66 67 67 67 66 67 66 65 64 63 62 60 59 57 56 56 55 55 55 55 55 55 54 52 48 44 43 44 47 49 49 49 49 50 50 51 50 51 51 49 48 48
66 66 66 65 65 65 64 64 62 61 61 60 59 57 55 56 55 54 53 53 52 54 53 49 46 43 43 47 45 46 48 48 47 47 48 48 50 48 49 49 48 48 49
65 65 64 63 62 62 61 61 60 59 59 59 58 57 55 54 52 52 51 52 50 49 47 46 44 44 46 47 47 47 48 48 48 48 47 46 46 45 46 46 46 46 48
62 61 60 60 59 60 60 58 57 58 58 57 56 55 52 50 51 52 52 52 51 50 49 49 48 48 48 48 48 48 47 46 47 46 45 45 44 43 43 44 43 44 44
57 56 56 56 59 58 57 58 57 56 56 55 54 52 52 52 52 52 52 51 51 51 50 49 48 47 47 46 43 44 44 45 44 44 44 44 43 39 38 39 40 42 42
52 49 50 56 57 56 56 55 56 56 55 54 52 52 52 52 51 50 50 49 49 49 48 47 46 45 46 36 36 37 41 42 43 43 43 44 41 41 38 37 36 36 37
45 49 54 57 56 57 55 55 55 55 54 52 52 51 50 49 49 49 49 48 47 47 45 45 45 43 44 35 34 34 39 40 41 41 41 41 43 40 41 37 36 35 34
51 54 57 56 57 57 57 56 56 54 52 51 51 50 49 48 48 48 47 46 46 45 44 44 43 42 43 35 33 32 37 39 39 40 40 40 40 39 36 36 35 35 37
54 56 58 57 57 57 57 55 54 54 53 49 48 49 48 47 47 46 45 45 45 44 43 42 41 40 40 35 33 32 34 35 36 37 37 35 35 35 34 33 32 34 36
56 56 57 57 57 57 57 54 53 53 50 50 49 50 48 46 46 45 45 45 45 43 42 39 39 36 36 34 32 32 33 29 31 33 35 34 35 33 32 31 31 30 34
56 57 57 56 56 57 55 52 52 50 52 51 50 49 48 46 46 45 45 44 43 40 34 32 34 35 34 34 32 31 29 29 29 31 32 36 31 29 30 30 30 30 32
56 56 54 54 55 56 54 52 51 53 53 50 49 47 47 46 45 45 45 43 41 37 32 32 32 35 34 34 33 31 31 30 29 30 33 32 30 29 29 29 29 28 29
55 55 53 51 53 54 54 50 52 51 48 45 46 46 46 45 45 44 42 40 39 33 31 32 31 33 34 35 31 30 30 30 30 31 30 28 28 28 29 28 28 28 30
52 52 50 49 49 51 49 47 46 43 43 45 45 46 45 43 44 43 41 39 34 31 31 30 31 31 32 30 30 30 30 30 30 29 30 28 27 27 28 30 30 30 30
50 50 48 48 48 49 47 47 46 45 44 44 44 43 42 41 41 41 40 37 35 31 30 31 30 27 26 27 28 27 27 27 27 27 28 27 26 27 29 29 29 30 30
49 48 48 47 47 46 45 44 43 42 40 39 41 41 39 39 39 39 38 31 30 28 28 27 27 28 28 27 27 26 25 25 25 26 24 23 23 24 26 27 27 28 28

GFSMW_sfc_temp_015.txt.gz
Temp
85 84 82 83 83 82 83 84 81 78 82 83 79 80 78 80 81 82 79 77 77 75 73 74 73 73 72 71 71 71 69 69 72 70 70 71 72 72 74 74 74 73 73
80 80 79 79 78 79 80 80 79 78 79 81 79 77 75 78 78 79 77 77 75 73 72 71 71 71 70 69 69 68 67 69 70 66 66 62 67 72 72 72 72 70 73
77 78 77 77 77 76 77 78 78 77 76 76 80 78 78 78 77 77 75 75 73 72 71 70 69 68 68 68 68 67 66 65 68 68 64 59 58 65 72 71 70 69 70
78 77 77 75 74 74 76 77 76 77 76 74 74 71 72 70 72 72 73 72 71 71 71 70 68 67 65 64 65 68 65 64 62 66 68 66 63 56 55 67 66 66 66
75 74 75 75 75 75 74 75 76 75 75 74 71 69 68 69 71 70 69 68 69 69 69 68 66 64 64 63 62 61 61 61 59 59 59 56 57 57 49 51 59 58 62
74 74 75 76 75 75 74 74 74 75 74 72 71 68 66 67 66 66 65 66 65 66 66 65 63 62 62 61 61 56 55 53 52 50 48 45 44 44 45 43 51 50 53
73 73 74 75 73 73 73 73 74 73 74 72 70 69 68 66 65 64 63 60 61 61 62 61 61 61 61 57 54 51 50 48 46 42 41 41 39 39 38 38 38 39 44
71 72 72 73 73 73 73 71 71 72 73 71 69 69 67 65 64 62 59 59 59 59 60 60 60 56 55 52 49 46 44 44 46 45 43 42 43 44 42 39 38 37 39
71 71 73 73 72 72 72 70 69 70 71 69 68 65 64 62 60 59 58 58 58 59 59 56 53 53 50 50 51 49 47 48 47 47 46 46 45 44 44 45 45 38 36
71 71 72 71 71 71 70 70 69 69 67 65 66 64 62 61 59 58 57 57 57 58 57 55 53 50 50 49 48 47 48 47 47 47 46 45 45 45 45 45 45 44 41
70 71 71 70 71 71 70 69 68 67 66 65 64 62 61 59 59 58 57 54 54 54 53 53 51 48 47 47 46 44 45 44 46 48 47 48 49 49 50 51 50 49 47
69 68 67 66 67 67 68 67 66 65 64 63 62 61 60 60 58 56 52 53 51 53 53 50 46 48 48 47 44 45 46 46 45 46 46 47 50 48 49 49 48 48 50
64 64 64 65 63 64 65 65 64 62 63 62 61 60 59 57 53 51 52 53 53 52 53 52 49 48 48 50 50 50 48 48 47 47 46 47 47 45 46 47 46 47 48
61 61 62 63 63 63 64 63 62 61 60 61 59 58 57 55 53 54 53 53 54 53 52 52 51 50 50 50 50 48 46 46 47 47 47 46 45 45 44 45 44 44 43
60 59 59 60 61 63 62 62 60 60 60 59 58 57 56 55 53 53 52 52 52 52 52 51 50 50 50 49 44 44 42 42 43 44 46 46 45 41 41 41 40 40 40
56 56 58 60 61 61 60 60 60 59 59 57 56 57 54 51 51 51 51 51 51 50 50 49 48 47 49 36 36 36 39 40 41 41 43 45 43 43 40 38 37 38 37
49 55 58 60 60 61 61 60 60 60 59 57 57 55 52 50 50 50 51 50 49 49 48 47 47 46 45 36 35 34 38 37 39 41 41 42 45 42 43 41 37 36 35
54 57 59 60 61 62 62 62 61 59 58 57 55 53 52 50 50 50 50 49 48 47 46 46 45 43 43 36 34 33 36 37 38 39 40 40 40 41 38 37 36 37 38
57 59 61 61 61 62 62 61 58 58 57 56 55 53 51 49 49 49 48 48 47 46 45 45 42 39 39 37 34 34 34 34 34 36 37 37 36 36 36 34 32 34 36
60 60 61 61 61 60 60 58 57 56 55 55 55 54 51 49 48 48 47 48 47 46 44 41 40 37 36 36 35 34 33 30 32 33 35 35 35 34 33 32 31 30 33
60 62 61 59 59 59 58 55 56 55 56 55 55 52 48 48 49 48 48 47 46 44 38 35 37 37 37 36 35 33 31 31 30 31 32 35 30 30 30 30 30 30 31
60 61 58 57 57 58 56 54 54 55 54 52 48 44 45 47 48 47 47 46 44 40 36 33 33 37 36 36 34 32 32 31 29 29 32 32 31 30 30 29 30 29 29
59 59 57 55 55 56 55 52 52 52 48 46 43 44 47 46 48 46 45 43 42 37 33 33 33 34 35 35 34 31 30 30 29 31 30 30 29 29 29 29 29 29 30
56 57 54 53 52 54 53 52 49 47 46 43 44 45 45 45 46 46 45 42 39 33 33 32 32 32 31 32 32 30 30 29 29 28 28 29 28 28 29 30 31 31 31
55 54 52 51 51 52 51 49 47 45 43 43 44 43 44 44 43 44 42 40 38 33 32 31 30 27 26 28 28 27 26 26 26 25 28 27 26 26 28 29 30 30 31
52 53 52 51 51 49 46 45 46 43 40 38 41 41 41 40 38 41 40 33 31 30 29 28 27 28 28 27 27 27 26 26 25 26 24 23 23 23 25 26 27 28 28

GFSMW_sfc_temp_018.txt.gz
Temp
78 79 78 77 78 78 77 77 72 72 73 72 69 68 67 68 70 70 70 69 69 67 64 62 62 61 60 59 60 59 58 59 59 59 60 61 64 63 65 65 61 63 64
75 75 74 73 72 73 74 74 74 72 72 72 70 69 67 69 69 69 69 69 66 65 66 62 61 60 58 57 57 56 57 57 57 55 56 53 57 61 64 65 65 63 66
73 74 73 71 70 70 70 73 72 71 69 68 71 69 68 68 67 66 66 67 65 65 63 61 59 58 58 55 54 56 55 54 55 55 53 50 48 53 58 60 59 58 61
75 74 72 70 69 68 70 72 72 72 71 68 66 63 63 62 63 63 64 64 63 62 62 61 58 56 56 54 54 58 53 52 50 52 53 49 48 45 46 53 56 58 55
72 72 71 72 71 69 68 69 71 72 70 68 66 62 61 61 62 61 60 59 59 59 60 59 56 55 55 54 53 51 50 49 47 45 45 44 44 46 42 40 46 51 53
72 72 73 73 71 70 69 69 70 71 71 68 66 63 61 59 58 58 57 56 56 56 56 57 55 54 53 51 50 48 48 46 46 45 44 42 40 39 38 38 38 39 44
70 71 72 72 71 69 69 69 69 68 69 67 65 63 60 59 57 56 54 53 53 53 53 54 53 52 50 49 48 45 43 43 43 43 40 42 40 40 38 37 36 36 39
70 70 70 70 70 69 68 68 67 67 67 64 63 62 61 58 56 54 53 51 51 52 53 52 52 48 48 49 48 46 44 42 42 43 43 41 42 40 40 38 36 34 38
71 70 71 69 68 67 66 65 65 66 65 63 61 59 57 56 54 53 52 51 51 54 52 52 49 48 47 48 47 45 44 45 43 44 43 43 42 41 41 40 40 35 31
70 69 70 68 68 67 65 64 64 64 63 61 59 58 57 56 54 53 51 50 50 51 50 50 48 47 47 46 44 43 43 43 43 43 43 43 42 42 41 42 42 40 37
68 68 67 67 66 65 63 63 63 63 61 60 58 56 55 55 54 52 50 49 49 49 49 50 47 46 44 45 44 43 42 43 42 43 43 42 44 44 44 44 42 40 41
65 65 65 65 64 63 63 63 62 60 59 59 57 56 56 55 53 50 49 49 48 49 49 49 49 47 45 44 43 42 42 41 41 42 42 42 46 43 42 42 41 40 40
64 64 63 62 62 62 61 62 60 59 59 59 58 56 54 53 50 49 49 49 49 49 48 48 46 45 45 44 43 43 41 40 40 40 41 41 41 39 39 40 39 39 42
61 61 60 60 60 61 61 60 59 58 58 58 56 54 52 51 49 49 49 49 49 47 46 46 46 45 46 46 44 43 39 38 39 39 39 39 39 38 37 38 36 38 35
60 58 57 57 59 59 59 60 59 58 58 56 55 53 53 52 49 48 48 47 47 47 46 46 45 44 45 42 37 38 36 35 35 36 38 39 40 42 39 39 34 33 31
55 54 56 59 59 59 59 59 59 58 57 56 54 55 53 52 49 47 47 47 45 45 44 43 43 42 46 36 36 34 32 34 34 32 35 37 40 40 40 40 39 36 32
53 54 56 58 58 58 59 58 59 59 56 55 56 54 52 50 48 48 47 46 43 43 41 41 41 40 39 36 36 34 32 32 32 32 33 35 40 37 38 35 37 34 35
53 55 57 58 58 59 59 58 59 57 56 56 55 53 50 49 49 47 46 45 43 41 40 39 39 37 39 38 36 34 30 30 31 32 31 31 32 34 34 32 31 32 33
56 58 59 59 59 58 58 56 55 55 55 54 50 49 49 49 47 46 44 42 41 40 40 40 37 34 34 37 36 32 29 29 29 31 31 31 31 34 35 32 29 29 31
59 59 60 60 58 57 56 54 53 52 52 51 49 49 48 45 41 39 41 42 42 41 37 35 35 36 32 36 36 32 28 25 27 29 31 33 33 30 30 28 28 26 29
59 59 59 56 56 56 55 52 51 50 51 50 48 47 46 42 41 41 43 41 39 36 32 31 31 32 33 32 34 32 27 26 26 27 27 29 31 31 31 31 27 27 29
58 58 55 54 55 55 53 51 49 50 49 48 46 44 42 42 45 42 41 40 37 33 30 27 29 31 30 34 34 30 31 30 25 25 27 28 31 30 30 29 29 30 28
56 56 54 52 53 54 53 49 48 48 46 44 43 43 43 45 44 41 38 36 35 30 29 30 28 28 29 29 31 30 30 29 25 26 27 28 29 29 28 29 30 28 27
53 54 52 51 51 53 52 48 47 46 44 41 41 42 41 41 41 41 39 35 30 28 29 27 26 25 26 25 25 25 25 27 26 25 25 26 27 26 27 28 29 28 28
53 52 51 49 49 50 48 47 46 44 41 40 39 37 37 37 37 39 34 32 30 29 26 25 24 20 19 23 27 26 24 24 25 23 25 24 23 23 24 25 26 27 27
51 50 50 48 48 47 45 45 45 42 37 34 34 34 34 34 34 35 34 34 31 32 31 29 23 22 27 29 29 28 28 28 27 24 22 21 20 21 22 22 23 24 25

GFSMW_sfc_temp_021.txt.gz
Temp
66 68 67 66 65 67 68 65 63 62 63 62 60 60 59 61 62 63 64 63 62 61 59 57 56 55 54 53 53 52 51 54 53 54 55 52 54 56 58 58 57 58 61
65 66 64 61 61 62 63 64 64 63 63 61 60 60 58 60 60 60 61 61 59 59 60 55 54 54 52 52 51 50 50 49 50 47 49 46 51 52 55 54 56 56 56
62 64 64 59 59 60 61 64 63 63 61 61 60 59 59 58 58 58 59 58 57 58 56 54 52 51 51 50 49 49 48 45 47 47 44 41 41 44 52 53 54 50 52
64 64 61 59 59 58 60 62 63 63 62 61 58 57 54 54 55 54 54 55 55 55 56 54 52 50 50 48 48 50 46 45 42 44 48 44 45 41 40 46 49 47 48
61 60 60 61 60 60 60 61 63 62 61 60 59 55 54 54 54 52 52 51 52 53 54 54 50 48 48 46 45 45 47 47 45 43 43 43 40 38 35 35 39 43 44
60 62 62 62 60 60 59 59 61 61 60 61 58 54 53 53 50 49 48 48 49 49 50 50 48 47 45 45 45 46 45 44 44 44 43 41 39 39 38 36 36 36 39
58 59 60 63 62 58 58 60 59 60 59 58 56 54 52 50 48 47 46 46 46 46 46 47 45 44 45 44 43 43 44 43 41 39 38 38 39 40 38 37 36 36 38
61 60 61 60 59 59 58 58 59 60 58 57 54 53 52 49 48 48 47 46 45 45 46 45 45 46 46 44 43 42 42 41 39 38 38 40 40 41 40 38 36 33 31
61 62 59 58 57 57 57 56 57 57 58 54 53 52 52 50 49 48 46 44 44 49 45 44 44 47 46 44 43 41 39 39 38 39 42 41 41 40 41 41 39 35 31
59 57 57 57 57 56 56 56 57 56 54 53 53 51 50 50 48 45 44 44 44 45 44 44 44 43 43 42 41 39 40 39 38 39 39 38 41 41 41 40 40 38 35
54 55 56 56 56 56 56 55 54 53 52 52 51 50 49 49 46 45 45 45 44 44 45 44 43 43 41 41 40 39 40 39 38 38 38 39 40 40 41 41 41 40 39
55 54 55 55 54 54 54 54 52 52 51 52 51 50 49 48 46 45 45 45 43 44 44 44 42 42 41 40 39 38 37 36 35 35 35 36 41 37 37 38 37 37 38
54 53 53 52 52 53 53 52 52 51 52 52 50 48 48 47 45 44 44 45 44 43 43 42 41 41 40 40 39 38 36 35 36 35 34 34 35 34 35 36 34 34 38
52 51 50 50 51 53 52 52 52 52 52 51 49 49 47 48 45 44 44 45 44 43 42 42 41 41 41 39 38 37 34 33 34 34 33 34 34 33 33 35 34 35 31
51 50 49 49 50 51 51 51 51 51 51 50 49 48 49 48 45 45 45 45 44 43 42 41 40 40 40 38 33 32 30 30 30 31 33 34 35 38 38 37 34 31 29
50 50 50 52 52 52 51 52 50 50 51 50 50 50 47 46 45 43 45 42 43 41 40 39 39 37 40 36 36 33 29 30 30 28 30 31 34 35 36 37 36 35 29
47 49 50 51 51 50 51 47 48 49 48 49 47 47 45 45 44 43 43 42 41 39 38 37 36 35 33 36 36 35 30 28 27 27 28 30 34 32 32 34 35 34 35
49 50 50 50 50 49 48 48 48 47 47 46 45 45 44 43 41 41 40 40 39 38 37 36 33 32 36 37 37 35 28 27 27 28 28 28 29 30 31 30 29 29 30
49 49 49 49 48 47 47 47 46 45 46 43 43 42 41 39 38 37 35 36 38 36 35 33 32 30 30 35 35 31 27 27 27 29 30 30 29 31 33 29 26 27 29
50 50 49 48 46 47 47 45 44 43 42 43 43 43 42 39 39 36 37 37 36 34 32 32 31 33 29 34 35 31 24 21 25 26 28 30 30 30 30 28 24 23 26
50 49 48 45 45 47 46 44 42 41 43 43 42 41 39 38 39 36 35 36 33 30 27 27 28 30 30 29 33 31 26 25 25 24 25 27 30 30 31 31 27 26 28
48 48 45 44 45 47 45 42 40 42 42 41 39 39 38 39 41 38 37 34 29 28 25 17 20 24 25 31 30 30 29 29 23 23 25 26 29 30 30 29 29 30 29
45 46 43 44 45 45 43 40 40 41 39 37 36 36 37 38 38 33 30 29 28 23 23 24 18 21 24 22 28 27 28 28 24 25 26 27 28 28 27 28 29 28 28
43 44 44 43 42 43 43 40 40 39 37 34 34 34 33 33 33 33 31 27 22 20 25 21 19 18 20 19 22 23 19 26 25 25 24 26 26 25 25 26 26 26 26
43 43 42 41 41 41 40 40 40 38 35 33 33 30 29 30 30 30 28 27 25 24 21 19 19 9 8 18 28 27 25 24 25 23 23 22 22 22 23 23 24 24 25
42 42 42 40 39 39 39 39 39 36 33 30 29 27 26 26 28 28 27 32 31 33 32 30 18 14 25 29 30 29 29 28 27 22 19 18 19 19 21 20 21 22 23

GFSMW_sfc_temp_024.txt.gz
Temp
61 62 61 61 62 64 62 59 59 58 59 57 56 57 56 57 58 59 59 59 59 58 56 53 52 51 50 49 50 49 48 50 48 46 50 49 51 50 50 52 52 54 55
60 61 58 56 56 58 58 59 59 59 59 58 56 57 56 56 56 57 57 57 57 56 57 51 50 49 49 48 47 47 45 46 45 43 43 42 48 46 51 50 52 47 50
58 59 59 55 54 55 56 59 59 59 58 58 57 56 55 54 54 52 52 55 55 54 52 50 48 47 47 45 44 45 44 43 44 44 44 41 40 41 45 48 46 43 45
59 59 58 56 57 56 57 59 59 59 59 58 57 55 52 51 50 49 49 50 51 51 52 49 47 46 45 44 44 47 46 47 43 46 47 45 43 37 37 41 45 43 44
58 57 58 58 57 58 57 57 59 59 58 56 54 52 51 50 49 48 48 49 49 50 50 49 46 45 44 43 42 41 41 41 40 39 39 43 40 38 35 34 35 41 41
55 57 57 58 57 55 55 55 56 56 56 55 53 51 50 48 47 47 46 46 46 45 46 47 44 43 42 41 41 40 40 39 39 39 38 37 37 36 37 36 36 37 38
55 55 56 56 56 54 54 56 56 55 55 53 52 50 49 48 47 46 45 44 43 43 43 43 43 42 43 43 45 42 41 39 38 37 37 38 39 40 39 36 35 34 36
56 55 55 54 54 55 54 54 55 54 53 52 51 50 49 47 47 47 45 43 42 43 44 43 43 43 44 44 42 39 38 38 36 36 36 38 41 40 38 36 34 33 32
53 53 54 53 53 53 54 54 56 53 53 54 50 49 48 48 46 45 43 42 43 46 44 42 42 42 43 41 40 38 37 37 37 36 38 38 38 38 40 39 37 33 30
55 53 53 54 54 55 52 52 53 52 51 50 49 50 48 47 45 43 43 43 43 43 42 43 42 41 41 40 39 37 38 37 36 37 36 35 36 36 36 36 38 37 33
52 53 53 54 54 52 52 50 50 50 50 50 49 48 47 47 44 43 43 43 43 43 43 43 41 40 39 39 37 36 36 35 34 34 34 34 34 33 33 34 36 37 38
54 51 52 51 50 50 50 50 50 50 50 49 49 48 47 46 43 43 43 42 42 43 45 43 41 41 39 38 36 35 35 34 33 33 33 33 37 32 32 31 32 34 35
49 50 48 49 49 50 50 50 49 48 49 49 47 46 47 45 44 42 42 42 42 43 42 42 41 41 39 37 36 35 33 32 32 31 31 31 31 30 30 30 31 32 36
48 47 47 47 48 49 49 49 49 48 47 47 47 45 44 45 43 41 43 43 43 41 43 42 42 40 38 37 35 34 31 30 31 31 31 30 29 29 29 31 30 31 29
48 48 48 46 47 48 49 48 47 47 47 47 45 44 45 44 43 43 43 41 41 42 42 42 41 39 36 37 32 32 31 30 29 30 30 30 32 35 34 33 30 28 27
47 46 47 48 49 48 46 46 46 46 46 45 44 45 43 43 41 41 40 39 40 40 39 39 38 35 38 36 36 34 29 30 29 27 29 29 32 32 33 33 34 34 30
44 47 47 48 47 45 46 45 45 46 44 43 43 42 41 41 40 40 39 40 35 35 36 36 35 32 32 36 37 36 31 29 27 26 27 29 32 31 29 30 32 32 33
46 47 46 45 45 45 45 45 45 44 42 41 41 41 40 39 38 36 37 36 34 34 35 32 31 31 34 35 34 33 27 26 27 27 27 27 27 28 29 29 28 29 29
46 45 45 45 44 44 45 44 42 41 41 40 40 40 39 38 37 37 36 33 32 32 32 32 30 29 29 35 34 29 24 25 25 27 27 28 27 29 31 28 27 26 28
47 45 45 44 43 44 44 41 39 39 39 39 39 39 39 37 36 35 34 33 32 32 31 31 29 32 27 32 33 31 24 19 24 25 27 29 28 29 29 27 25 25 27
47 45 43 42 42 42 41 39 38 38 40 40 39 38 37 36 36 35 35 33 29 29 26 25 26 27 28 26 31 30 25 23 23 23 24 26 28 30 30 30 26 26 29
44 44 42 41 41 41 40 37 36 39 39 38 36 35 35 36 36 32 30 29 27 27 23 13 18 22 23 29 28 29 29 28 22 23 25 25 29 29 28 28 29 29 27
41 43 39 40 41 40 39 37 38 39 37 34 32 32 33 33 32 29 28 27 26 21 21 23 16 20 23 21 27 27 28 27 23 25 26 28 27 27 26 27 27 26 25
39 40 39 39 38 39 40 38 38 37 35 32 32 31 30 31 30 30 29 27 20 19 23 20 19 16 19 18 20 22 18 25 25 23 24 24 25 24 24 24 25 25 25
39 39 38 37 37 37 37 37 37 36 33 32 32 29 28 28 29 29 27 27 25 23 20 19 18 7 6 17 27 27 24 24 22 16 18 20 21 21 21 22 22 23 24
38 37 37 36 36 36 35 35 35 35 33 31 29 27 25 24 27 27 27 32 31 33 33 32 18 14 23 29 30 29 28 28 25 15 13 16 17 16 18 18 19 20 21

GFSMW_sfc_temp_027.txt.gz
Temp
56 57 59 60 59 57 58 58 58 57 57 55 55 55 52 53 53 55 54 53 56 55 51 50 49 48 47 46 46 45 45 45 45 43 48 46 47 46 46 47 46 48 49
56 57 56 55 55 56 57 58 58 59 57 57 55 55 53 52 52 51 52 54 53 52 51 47 47 46 46 45 44 43 43 43 43 40 40 38 45 44 49 45 49 41 45
54 55 55 54 53 55 56 58 57 58 57 57 55 54 54 52 50 49 48 50 50 50 49 47 46 45 44 43 42 42 41 40 42 41 39 35 33 39 42 46 42 40 41
55 56 54 53 53 54 55 56 57 57 57 56 55 54 52 49 48 47 47 48 49 48 48 47 46 44 43 42 42 43 40 40 37 39 43 40 38 37 34 38 42 40 41
57 54 55 56 56 55 53 54 55 55 55 54 53 51 50 49 48 47 47 48 47 47 47 46 44 43 42 41 41 40 39 39 39 37 37 36 37 35 36 33 36 43 39
56 55 55 56 55 54 52 52 53 53 53 53 52 51 48 47 46 45 45 44 44 44 44 45 43 42 41 41 40 39 39 38 37 37 36 36 37 37 37 35 35 36 37
52 53 56 56 56 53 51 52 53 53 52 51 50 49 48 47 46 46 44 43 42 42 42 43 41 41 41 41 40 39 38 37 36 35 34 35 35 39 38 35 34 34 33
54 54 52 52 52 53 52 52 52 52 51 50 49 48 48 47 46 46 43 42 42 42 43 42 42 42 42 41 40 38 37 36 35 34 34 34 36 37 37 36 34 31 32
49 50 51 51 51 52 52 51 51 50 50 49 48 47 47 46 45 44 43 41 41 44 42 41 41 41 42 40 39 37 36 36 35 34 34 34 35 34 35 35 36 33 28
50 50 50 51 52 53 51 50 50 50 50 49 48 48 46 46 45 43 42 41 41 41 42 41 41 42 42 40 38 36 36 35 34 34 32 32 32 32 32 32 33 33 32
49 49 51 52 52 51 49 48 48 49 48 47 47 46 45 45 44 42 41 41 41 41 43 43 42 41 40 39 37 36 35 34 33 32 32 32 32 31 30 30 31 30 29
49 49 52 52 51 49 48 48 47 47 47 46 45 45 44 44 43 41 41 40 40 43 41 41 41 41 39 39 38 36 35 33 31 31 30 30 35 29 29 29 29 29 30
46 47 47 48 48 48 49 48 46 46 45 45 44 43 43 42 41 41 41 40 41 40 40 40 40 39 40 39 36 35 33 31 31 30 30 30 29 27 27 28 28 28 32
46 45 46 46 48 49 46 45 45 44 45 44 43 42 41 42 41 40 40 40 40 39 38 39 39 40 39 38 35 33 31 31 31 31 30 29 28 27 27 28 27 30 28
47 47 46 48 46 45 44 44 44 44 44 43 42 41 41 41 40 40 40 40 38 39 40 40 38 38 37 36 32 32 32 30 29 30 30 30 31 34 33 31 28 27 28
47 47 46 46 45 44 43 45 44 44 43 42 41 41 41 40 39 38 37 37 40 38 37 36 35 33 37 36 37 35 29 30 29 27 29 29 31 31 33 32 32 31 27
44 44 44 45 43 43 44 43 43 43 41 41 41 40 39 38 37 37 36 37 36 34 34 32 32 31 32 36 35 34 30 28 27 26 26 28 31 30 28 30 31 31 32
44 43 43 43 43 43 43 42 42 41 39 39 39 39 38 37 36 35 37 37 36 31 30 30 31 30 32 34 34 31 26 25 26 26 26 26 26 27 29 28 28 28 30
44 43 43 43 42 42 42 41 39 38 39 38 37 37 37 36 35 34 33 33 31 30 30 31 29 27 27 33 33 30 24 25 24 27 27 27 26 28 30 27 26 26 28
44 43 42 42 41 41 40 39 37 37 37 37 37 37 36 35 34 33 32 34 33 32 31 30 28 30 25 30 31 30 21 16 23 24 26 28 28 29 30 27 25 24 27
44 43 41 40 39 40 39 37 36 36 38 38 37 36 34 33 33 32 32 30 28 28 25 26 26 27 27 25 30 30 21 22 23 23 24 26 29 30 29 29 26 26 27
41 40 39 39 39 39 38 36 35 38 37 36 34 33 32 33 33 29 28 29 28 27 25 12 17 22 23 28 28 29 29 28 21 23 24 25 29 28 27 27 28 28 26
38 39 37 38 38 38 37 35 36 36 35 33 32 32 32 32 31 29 27 27 26 21 21 22 16 19 23 21 27 27 28 28 21 22 25 27 27 26 25 26 26 25 24
36 37 37 35 35 37 37 35 35 35 33 33 33 32 30 30 29 30 29 26 20 18 22 20 18 16 19 18 19 23 18 24 23 19 19 20 24 23 23 23 23 23 23
36 36 35 34 34 35 34 34 34 34 34 34 33 31 30 28 29 29 27 27 26 23 21 20 19 6 6 17 27 26 21 16 19 12 10 13 17 18 19 20 21 21 21
35 34 34 33 33 33 32 33 34 33 34 32 32 30 28 24 27 28 27 31 30 32 32 32 19 13 23 28 31 30 28 27 24 13 6 3 7 12 16 16 17 18 17

GFSMW_sfc_temp_030.txt.gz
Temp
53 54 55 56 57 56 59 59 58 58 57 56 53 51 49 50 50 51 52 55 54 51 49 47 47 47 45 44 44 43 43 43 43 42 44 44 46 44 45 48 45 45 47
52 54 54 54 55 55 57 58 57 56 56 54 52 52 49 49 49 49 49 50 50 50 49 46 45 45 44 43 42 41 41 41 41 38 38 36 40 43 47 44 46 41 43
51 53 54 53 54 54 55 57 56 56 55 54 54 50 50 49 48 47 47 48 49 48 47 47 45 44 43 41 40 40 39 38 40 40 38 34 32 38 42 44 42 41 41
52 53 53 53 52 52 53 54 55 54 55 54 52 51 49 47 46 46 45 46 48 47 47 46 45 43 42 41 41 42 40 39 37 38 42 39 38 35 35 42 43 41 43
52 52 51 52 52 52 53 52 54 54 54 53 52 49 47 46 45 45 45 45 45 46 46 45 44 42 42 41 40 39 39 38 37 36 36 36 36 37 36 33 36 41 42
50 53 53 54 52 51 54 54 55 53 52 52 51 50 47 45 45 45 44 44 43 43 43 44 42 41 41 40 39 39 38 37 36 36 35 35 36 36 36 34 33 34 37
50 51 52 54 54 53 53 52 52 51 51 50 49 48 47 47 47 46 44 43 42 41 41 41 41 40 41 40 39 38 37 36 35 34 34 34 34 36 35 35 33 33 36
51 52 53 51 50 51 50 51 51 50 49 49 48 48 48 45 45 45 43 42 41 41 42 41 41 41 41 40 40 38 37 36 35 34 33 33 34 35 35 35 33 28 31
50 50 49 49 49 49 49 49 50 49 49 49 48 47 46 44 43 43 42 41 41 43 41 40 40 40 41 42 41 39 36 35 35 34 33 33 34 33 33 33 32 30 25
47 48 48 49 49 49 49 49 49 48 49 47 45 46 44 43 43 42 41 41 40 40 40 40 42 42 40 40 40 38 38 35 35 35 33 32 32 31 31 30 31 31 29
46 47 48 49 49 49 49 47 47 48 47 45 44 43 42 42 42 41 41 40 39 40 40 40 40 38 38 40 37 37 36 34 33 33 32 31 32 30 30 30 30 29 29
46 46 48 48 48 48 47 47 48 47 44 43 43 43 42 42 41 40 40 39 38 39 39 39 38 38 40 39 36 36 35 33 32 32 31 31 34 30 29 29 28 28 29
44 45 46 47 49 47 46 49 45 43 43 43 42 41 41 40 39 38 38 39 38 38 37 38 39 40 38 37 38 35 33 32 31 31 30 30 30 28 28 28 28 28 30
45 44 45 47 45 47 48 44 44 43 43 43 41 40 39 38 38 38 38 38 38 36 36 40 38 38 38 39 36 33 32 31 31 31 30 30 29 28 28 29 28 29 28
44 45 44 44 47 45 44 44 43 43 43 42 40 39 39 39 38 37 36 36 36 37 39 39 37 34 35 35 32 32 31 29 29 30 30 31 31 34 33 31 29 28 26
45 45 45 47 46 44 42 43 43 42 42 40 39 39 39 38 37 36 35 35 36 37 36 34 32 31 35 36 36 33 29 29 28 27 28 28 30 30 32 31 31 31 27
44 46 46 46 43 42 42 42 42 41 40 39 39 39 38 37 36 35 34 35 34 31 31 31 31 29 30 35 35 33 29 27 26 26 26 27 30 29 28 29 30 30 31
45 45 43 42 42 41 41 40 40 39 38 38 38 38 36 35 34 34 37 33 34 35 29 29 29 29 31 33 33 32 26 25 25 26 26 26 26 27 29 28 28 29 30
43 43 43 42 41 40 40 39 38 37 37 37 36 36 35 34 33 33 32 32 32 31 30 30 29 27 27 32 32 30 25 24 24 27 27 27 27 29 31 28 26 27 29
43 43 42 41 39 40 38 38 37 36 35 36 36 35 34 33 31 31 30 31 31 30 30 30 28 30 25 29 31 30 22 16 23 25 26 27 28 30 30 26 25 24 27
42 43 42 40 38 38 38 36 35 34 36 36 35 34 33 31 31 29 30 30 28 28 25 26 26 27 27 25 30 31 22 22 24 23 24 25 28 29 29 28 25 25 27
42 40 39 38 38 37 36 34 33 35 35 34 33 32 32 32 32 29 28 28 27 27 24 13 17 22 23 28 27 30 29 28 19 21 23 23 28 28 27 26 27 27 25
39 39 38 37 37 36 35 33 34 34 33 32 32 34 34 32 31 28 27 26 25 21 21 22 16 20 24 21 27 27 28 27 18 21 24 25 25 25 24 25 26 24 23
37 37 36 34 34 34 34 33 33 33 32 32 32 34 33 31 30 30 29 26 20 18 22 20 19 17 18 18 19 23 19 23 22 18 17 16 21 17 18 21 22 21 21
36 36 34 33 33 33 32 32 31 31 31 31 33 33 32 29 29 29 27 28 26 24 22 21 19 9 7 17 24 25 18 13 18 11 9 11 13 14 17 18 19 19 19
35 34 33 32 32 31 30 31 31 31 30 30 32 32 30 27 27 27 28 31 30 31 32 32 22 14 24 28 30 30 28 27 23 12 5 0 -0 5 13 14 15 16 15

GFSMW_sfc_temp_033.txt.gz
Temp
59 61 61 62 63 63 63 63 57 56 57 57 57 60 59 61 61 63 62 61 61 61 61 60 59 59 57 55 55 56 54 56 54 54 55 57 58 57 58 59 58 57 57
60 60 61 62 64 61 58 60 63 61 64 66 65 65 63 62 61 61 60 61 60 60 60 59 58 57 58 55 54 53 53 54 53 49 51 49 53 57 55 55 56 54 56
59 59 60 61 62 61 63 65 65 65 66 65 63 61 60 60 60 60 61 60 59 59 59 58 59 58 58 57 55 54 51 51 53 51 49 45 44 46 53 52 54 53 54
60 60 60 60 61 61 63 65 65 65 64 63 63 62 64 62 61 60 61 61 58 58 59 57 57 56 57 55 55 56 53 51 49 51 52 49 47 41 41 51 51 50 51
61 60 61 62 63 62 63 64 64 63 63 64 63 63 60 59 59 59 57 57 57 56 56 56 56 55 55 54 53 52 50 51 49 48 48 47 47 47 41 38 41 48 51
60 61 62 62 62 62 61 61 64 61 62 62 61 60 59 58 60 59 59 58 58 57 56 55 55 54 54 52 52 51 50 49 49 49 48 46 43 43 39 39 38 40 45
60 61 60 60 61 61 62 62 63 61 60 60 60 60 60 59 59 59 58 57 57 57 57 54 53 53 52 51 51 50 49 49 47 47 47 47 46 45 42 41 39 38 44
60 60 60 61 62 61 61 62 62 60 59 59 60 60 59 59 57 55 55 55 55 54 53 52 52 51 51 51 50 50 49 48 47 46 46 45 45 46 44 41 38 35 38
59 60 60 60 59 59 59 59 60 58 57 59 59 56 56 55 55 55 54 53 53 54 53 52 51 51 51 51 50 49 48 48 47 46 45 45 45 44 43 42 41 36 31
58 58 58 57 58 59 58 58 58 55 57 57 56 55 55 54 54 53 52 52 53 53 52 52 52 51 50 49 47 45 47 46 46 45 44 44 44 43 43 42 41 39 36
56 56 56 57 58 57 57 56 54 57 56 54 54 54 53 53 52 52 52 52 51 52 50 50 49 48 46 45 46 46 45 44 44 44 42 42 43 42 42 42 41 39 38
55 55 56 57 57 57 54 52 55 54 53 55 54 53 52 52 52 51 51 50 49 49 48 48 47 46 44 43 44 44 44 43 41 41 41 41 42 40 41 40 38 38 38
53 54 54 55 56 53 54 55 53 53 54 55 54 52 51 50 49 49 49 48 47 47 46 46 45 44 43 43 44 44 41 41 40 40 39 39 39 38 39 38 36 36 35
52 54 54 54 53 54 54 52 52 53 54 54 53 50 49 48 48 48 47 46 45 45 45 45 43 40 43 43 43 41 41 40 40 39 38 37 37 36 36 35 34 34 32
50 52 52 53 53 53 51 52 52 52 53 51 50 48 48 48 47 46 45 44 43 44 43 42 42 42 42 42 41 40 39 38 37 37 37 36 35 33 34 34 33 32 31
51 51 51 52 52 50 52 50 51 51 50 48 48 47 47 46 45 45 43 43 43 42 42 41 40 40 41 36 36 36 38 37 36 34 35 35 33 34 32 31 31 32 30
50 51 50 51 51 51 50 51 51 49 47 47 46 46 45 45 44 44 43 43 42 41 39 40 40 39 39 35 35 33 37 35 34 33 33 33 34 32 33 32 32 32 32
50 50 49 48 50 51 50 49 48 47 46 45 45 45 44 43 43 43 42 42 42 41 40 38 38 38 37 33 33 32 35 34 33 33 33 32 32 32 31 31 32 33 33
50 51 51 50 50 50 48 47 46 46 45 44 45 45 43 42 41 41 40 41 41 39 37 39 37 36 36 32 32 33 33 32 32 32 33 32 31 30 31 30 29 30 32
50 49 49 49 49 48 46 46 46 44 43 43 44 44 43 41 40 40 39 40 41 39 39 37 36 33 34 30 31 32 32 29 30 32 32 30 29 29 29 28 27 26 29
48 48 48 48 47 46 45 44 43 42 43 43 43 43 42 40 40 39 40 39 39 37 35 33 34 34 33 33 30 31 31 30 29 29 29 30 28 29 29 28 28 26 28
46 47 45 45 44 45 44 43 42 43 43 42 41 41 40 40 39 39 39 38 37 35 33 30 31 34 32 30 30 30 30 30 28 27 28 28 27 27 26 27 27 26 27
43 45 45 43 43 43 43 41 42 41 41 40 40 40 40 40 39 38 37 36 36 34 33 32 32 33 33 33 29 29 28 29 28 28 27 25 25 25 26 25 25 25 25
44 43 42 41 40 40 40 40 40 40 38 38 39 40 39 39 38 38 37 36 34 33 32 32 31 32 32 32 32 31 32 28 28 26 27 23 23 22 23 25 26 25 23
41 42 40 39 38 39 39 39 39 38 37 37 38 38 38 36 36 36 37 35 36 34 33 33 32 30 30 32 30 30 30 30 27 23 25 24 23 23 24 24 24 24 22
40 39 38 38 38 37 37 37 37 36 35 35 37 37 36 36 35 35 36 33 32 32 32 32 31 32 30 29 30 30 30 28 25 25 23 21 20 20 21 22 22 23 20

GFSMW_sfc_temp_036.txt.gz
Temp
73 74 73 74 76 72 70 71 67 59 59 59 60 62 62 64 68 71 69 69 70 69 69 70 68 67 65 63 63 63 62 62 63 60 62 64 65 63 64 65 64 63 63
72 71 72 72 70 72 72 68 68 65 67 69 71 74 72 72 72 71 69 69 68 69 68 67 67 66 65 63 62 61 60 62 62 55 56 54 59 64 62 62 62 61 62
72 70 71 72 69 69 70 71 73 73 74 74 73 72 70 69 70 69 70 69 68 69 68 67 66 64 64 63 61 61 58 56 60 58 54 49 49 53 59 58 60 58 58
71 72 72 71 72 72 74 77 76 76 74 73 73 71 74 71 72 70 70 71 67 68 67 66 64 63 63 62 62 62 58 57 54 57 58 56 53 47 46 54 55 57 56
71 71 73 74 75 73 74 75 74 74 73 72 73 72 70 70 70 69 67 68 69 66 66 65 64 63 63 62 60 58 57 57 53 53 53 51 50 49 44 41 49 55 56
70 72 74 74 73 73 72 71 72 72 72 72 70 69 67 67 68 69 67 68 67 67 66 65 63 62 61 60 59 58 54 54 53 51 50 48 46 46 44 41 45 48 52
70 71 71 71 70 70 70 71 72 70 70 70 70 69 67 67 66 65 65 63 64 64 63 62 61 61 60 59 58 56 54 53 52 50 49 50 48 48 45 43 45 45 50
71 71 71 71 71 70 71 71 72 70 69 68 67 67 66 69 68 65 64 63 62 62 61 60 60 60 59 59 57 56 55 54 52 49 48 48 48 49 48 46 42 40 44
71 71 71 71 71 70 69 69 70 69 65 62 63 62 66 64 63 62 62 62 61 61 60 59 59 59 58 58 57 54 53 54 53 49 48 48 49 49 48 47 45 38 34
71 70 70 69 69 70 67 67 67 65 59 60 63 65 64 63 62 62 60 59 59 59 58 57 57 56 56 56 55 53 51 52 51 49 48 48 49 47 48 48 46 45 42
70 69 69 68 68 68 68 66 63 60 59 61 61 62 62 62 62 61 59 58 58 57 56 55 54 54 54 53 48 45 46 49 48 47 47 47 48 48 48 47 47 45 45
70 69 67 66 66 66 66 63 60 59 59 61 61 61 62 61 60 59 58 57 55 55 54 53 53 53 49 49 50 48 47 46 45 47 47 47 48 46 47 46 45 44 43
66 66 65 65 65 64 62 58 57 58 63 63 63 62 60 60 58 56 56 55 54 53 53 52 48 47 47 47 46 46 47 47 47 47 45 45 45 43 44 44 43 41 40
63 64 64 65 64 62 58 59 59 61 62 62 62 60 58 57 57 55 54 53 52 51 51 51 48 46 48 48 48 47 47 47 46 45 44 43 42 41 40 40 40 39 38
62 63 63 63 63 61 62 62 61 61 61 60 59 58 57 55 54 53 52 52 50 51 51 48 47 48 48 48 45 46 46 45 44 44 43 43 39 35 35 36 36 35 34
62 62 63 63 62 61 61 60 60 59 59 58 56 56 53 53 52 51 50 50 50 50 49 48 47 46 48 35 36 36 43 44 42 42 42 42 39 38 34 34 33 34 33
61 61 62 61 61 60 60 59 59 58 57 56 54 53 52 51 51 51 50 50 49 49 46 46 47 45 45 35 34 34 42 42 41 40 40 40 40 37 36 34 33 33 34
62 62 62 60 61 60 60 59 59 57 55 53 52 52 51 50 50 50 49 49 48 47 45 43 45 45 44 34 33 33 41 41 40 40 39 39 38 37 33 33 32 33 36
63 63 63 60 59 58 58 58 56 55 52 51 51 51 51 50 49 48 47 47 47 47 44 44 44 43 43 33 33 33 39 38 38 39 39 37 36 33 31 30 29 31 34
64 60 58 58 55 58 56 54 53 51 50 50 51 51 50 49 48 47 46 47 47 45 42 43 44 40 40 33 32 33 37 33 36 38 38 34 32 29 30 29 29 27 30
60 57 53 53 56 54 54 52 51 49 50 50 50 50 50 48 47 47 47 47 46 44 42 39 41 41 40 39 31 31 33 34 34 34 35 36 30 29 29 28 29 28 30
54 55 53 51 51 52 51 51 49 51 50 49 48 48 48 47 46 46 46 45 44 42 39 34 36 39 39 35 34 31 31 31 31 32 34 33 29 28 27 28 26 27 27
54 54 52 48 50 50 50 47 50 48 47 46 46 47 46 46 46 46 44 43 43 40 38 36 36 37 38 37 32 31 30 30 31 33 31 27 27 27 29 28 26 27 29
49 48 48 48 46 47 46 48 47 47 45 44 45 45 45 45 46 45 42 42 40 37 35 34 34 36 35 36 36 35 34 32 32 33 32 29 25 28 28 31 31 30 29
42 47 47 48 47 46 45 47 46 45 44 43 44 43 44 44 44 44 42 40 40 38 36 36 35 32 31 33 34 33 34 33 32 28 30 31 30 30 31 31 30 30 29
45 47 46 44 44 43 45 45 45 43 41 40 42 43 42 42 41 41 40 36 34 33 33 33 33 35 34 33 31 31 31 31 29 29 30 29 28 27 28 28 28 29 28

GFSMW_sfc_temp_039.txt.gz
Temp
83 81 82 83 84 81 75 73 69 69 67 65 65 61 62 65 67 69 71 71 72 71 70 71 69 68 68 65 65 64 62 62 64 61 61 61 65 67 67 67 65 64 64
79 78 78 80 81 77 73 71 71 70 73 73 73 72 71 71 74 73 72 73 71 71 71 68 68 67 66 65 64 62 60 61 62 57 57 52 56 63 64 63 63 61 63
77 77 77 76 75 73 72 75 73 75 76 76 77 76 76 74 72 72 71 71 71 71 70 68 67 66 66 64 63 62 60 57 59 60 55 49 48 53 58 59 61 59 59
80 78 77 73 74 74 77 77 78 78 77 77 76 73 73 72 73 73 74 72 70 70 70 69 67 65 65 63 63 64 60 58 55 58 59 57 54 47 44 54 55 57 58
78 77 77 76 76 77 77 78 79 79 77 77 76 74 73 74 74 73 70 69 70 70 69 68 66 64 64 63 61 60 57 58 56 54 51 51 52 52 46 42 48 54 57
77 78 78 78 78 78 77 77 78 77 76 75 75 73 71 70 68 69 68 69 70 69 69 68 66 64 62 62 61 61 59 57 55 53 50 50 47 47 46 43 45 46 51
75 76 76 76 75 74 74 74 76 74 74 73 73 72 70 68 67 68 68 66 66 66 65 64 62 62 61 60 60 59 58 56 52 52 52 50 49 49 48 46 44 43 49
75 75 76 76 74 73 73 74 74 72 73 72 71 70 69 68 68 68 66 65 64 64 63 62 61 60 60 60 59 59 58 56 52 51 52 52 50 51 50 46 42 38 43
74 75 76 76 75 74 73 73 73 72 72 70 68 66 64 67 67 65 65 64 63 63 62 60 59 59 58 58 57 57 57 54 53 51 51 51 50 51 50 47 46 41 35
75 76 76 75 75 75 73 73 73 71 69 68 66 65 64 66 65 64 62 61 61 61 59 58 58 57 57 57 56 54 53 52 50 50 49 49 49 49 49 49 49 48 43
75 75 75 75 75 74 72 71 71 69 67 66 63 62 65 64 64 63 62 61 60 59 58 57 56 56 56 54 51 51 52 49 49 48 49 47 48 48 49 49 49 47 47
77 77 75 74 73 71 71 70 68 67 66 64 60 63 64 64 62 62 61 60 58 58 57 56 55 54 52 52 49 47 46 47 45 48 48 48 50 47 48 48 46 46 46
77 76 75 72 71 70 70 68 67 65 64 60 65 65 64 62 62 61 59 59 57 56 55 55 53 52 49 48 48 49 48 47 48 48 47 46 46 44 44 44 43 43 43
75 75 73 71 71 70 68 67 64 63 61 64 66 64 62 61 60 59 58 57 56 54 54 54 53 50 49 50 50 50 48 47 48 48 46 45 44 43 40 39 39 40 39
71 71 70 70 70 68 67 66 64 63 64 64 64 62 62 60 59 57 56 55 54 54 54 53 51 49 50 50 46 47 46 46 46 46 46 45 41 38 37 37 36 35 34
70 70 70 70 68 66 65 65 64 63 64 62 61 61 59 58 56 55 54 53 53 53 54 52 49 47 50 35 36 37 43 44 44 43 44 44 42 41 37 37 35 34 32
70 69 69 69 68 67 66 63 63 63 60 60 59 58 57 55 55 55 54 53 52 52 50 48 46 46 47 36 35 35 41 43 43 43 42 42 44 40 40 37 35 35 35
70 70 70 69 68 68 65 62 62 60 59 58 57 57 55 54 54 53 52 52 51 49 50 47 44 45 46 36 35 34 39 43 43 42 42 41 40 38 33 33 32 34 35
71 71 71 69 67 64 62 61 59 59 57 55 55 55 55 53 53 52 51 51 50 49 48 47 44 44 44 35 34 34 39 40 40 41 41 40 38 33 31 31 30 32 34
71 69 69 67 64 62 60 59 57 56 55 55 53 55 54 52 51 51 50 50 50 48 48 45 45 42 43 35 34 34 37 35 37 39 40 35 33 30 30 28 28 27 32
70 68 65 62 62 62 59 55 55 53 54 54 53 53 53 52 51 50 49 49 48 47 43 40 41 42 41 40 34 33 34 35 35 35 37 38 32 30 29 29 28 28 29
65 63 60 59 57 55 53 52 53 55 53 52 50 51 50 50 50 48 48 48 48 44 42 36 37 40 40 37 35 33 32 33 32 33 35 35 31 29 29 29 30 28 28
61 61 57 52 49 50 52 50 51 51 51 49 48 48 50 50 50 47 47 46 45 43 40 38 37 37 41 41 35 34 32 31 31 34 34 30 31 30 31 32 30 28 31
57 53 47 44 44 49 50 50 48 48 46 45 46 47 47 47 48 48 48 46 41 39 38 37 35 36 38 39 39 34 34 32 32 33 34 32 30 30 29 32 34 33 32
44 43 43 45 49 50 47 48 47 47 45 46 46 45 45 45 46 47 47 44 43 40 38 37 37 35 34 36 35 34 35 35 33 30 32 32 33 32 33 33 33 33 32
41 44 47 47 47 47 46 47 47 47 44 42 43 43 43 43 44 44 42 40 36 36 35 35 34 36 35 35 34 33 33 32 32 30 30 31 31 30 30 31 31 32 30

GFSMW_sfc_temp_042.txt.gz
Temp
80 79 78 79 78 73 68 68 65 65 63 63 61 61 60 61 62 63 63 64 65 65 62 61 60 59 57 56 56 54 52 51 52 50 51 51 53 53 54 54 53 54 56
78 77 77 77 75 72 71 67 66 66 66 69 68 66 64 63 64 65 64 66 65 65 63 60 59 58 56 56 55 53 50 51 51 46 47 43 47 50 53 50 52 50 53
75 75 76 75 75 71 68 69 67 67 68 70 70 68 66 65 64 64 63 64 65 65 64 62 59 57 56 53 53 52 51 47 49 50 46 42 38 44 47 48 49 47 47
77 77 75 74 74 71 69 70 70 71 72 71 69 66 66 63 65 64 65 63 64 64 65 62 59 57 55 54 53 56 51 49 46 48 53 46 44 38 38 44 45 47 49
78 76 75 73 73 70 70 70 72 73 72 71 69 66 66 64 65 64 62 63 61 62 62 61 58 56 55 53 52 51 50 49 47 45 44 44 42 42 38 36 39 45 46
78 78 73 73 72 71 71 72 73 72 72 70 69 67 65 64 62 62 60 61 61 60 60 59 55 54 53 52 50 50 49 48 47 46 44 42 41 40 37 36 37 38 42
75 75 74 73 72 71 71 72 73 71 70 68 68 67 65 64 61 61 61 59 58 57 55 55 53 52 52 52 50 49 48 48 46 44 44 45 44 43 41 38 37 35 40
74 74 74 73 72 71 70 70 72 70 70 68 67 66 64 61 61 61 60 57 56 54 55 54 53 52 52 50 49 48 47 47 45 44 44 45 45 44 42 41 35 31 34
73 73 73 72 71 70 68 68 70 70 68 66 64 62 62 61 59 58 59 56 55 58 53 52 51 51 50 50 49 47 46 45 44 42 42 42 44 43 41 40 38 34 30
73 73 73 71 71 70 69 68 69 68 67 65 62 62 61 59 59 59 57 56 54 54 52 51 50 50 50 49 46 45 45 44 42 43 43 43 41 41 40 40 39 40 37
72 72 73 73 72 71 70 69 69 67 65 63 61 59 58 58 59 58 56 55 54 53 52 51 50 50 49 47 45 44 44 43 42 42 42 42 43 40 41 40 39 37 37
74 74 74 72 72 70 69 67 67 65 64 62 59 58 58 59 58 57 56 54 52 52 52 51 50 50 47 46 44 43 43 41 40 41 41 42 46 38 38 36 35 35 36
74 74 73 72 71 69 67 67 65 63 63 62 59 58 58 58 58 56 55 54 52 51 50 50 49 48 46 45 44 43 43 42 42 42 41 39 38 35 34 33 32 33 37
74 74 73 71 69 68 67 66 63 62 61 61 60 58 58 58 56 55 54 52 52 50 49 49 49 48 46 47 47 47 43 41 41 40 40 39 38 34 32 33 30 32 30
74 74 72 70 69 67 67 65 63 60 60 59 59 58 58 57 56 54 52 52 50 50 50 49 48 46 46 48 42 41 39 38 38 38 41 39 39 40 36 34 29 28 28
73 72 71 71 69 68 65 64 61 60 60 58 57 58 57 56 53 51 51 50 49 49 49 47 46 44 48 36 37 37 35 37 37 35 36 37 40 38 38 37 36 33 27
71 71 70 69 68 67 64 61 62 61 58 57 57 57 56 54 52 52 51 49 48 47 45 45 45 42 42 37 37 35 34 34 34 34 34 36 41 33 31 33 33 33 34
70 70 69 68 68 66 65 62 61 59 55 56 56 56 54 52 51 51 50 48 47 45 44 43 43 41 43 37 36 35 32 33 34 35 34 33 33 28 29 28 27 29 30
70 69 69 68 67 65 62 60 58 56 54 54 54 54 52 51 50 49 47 47 45 44 43 44 42 40 38 36 35 33 32 32 32 35 34 35 32 31 32 27 25 26 28
70 68 68 67 64 61 60 57 54 53 52 52 51 52 51 50 48 47 46 46 45 45 43 41 40 40 36 36 35 34 29 29 29 31 33 32 30 31 30 22 22 21 25
68 67 64 61 60 59 57 52 49 48 50 51 52 52 51 49 48 46 45 44 43 41 38 36 36 36 36 36 36 35 30 28 28 28 28 29 32 31 31 30 24 23 27
62 62 57 52 51 51 49 47 46 51 51 49 47 48 47 47 48 44 43 43 41 38 37 32 32 32 35 37 35 35 33 33 26 28 28 29 32 32 31 29 30 31 27
59 58 51 48 47 47 46 44 47 49 48 45 43 44 46 47 47 43 41 40 40 34 33 32 31 33 34 33 37 34 34 32 26 28 30 32 32 32 30 32 32 26 23
48 46 44 42 41 45 48 49 47 45 44 42 43 44 44 43 43 43 42 40 35 32 32 31 32 33 32 30 31 30 31 32 30 29 30 27 27 25 25 24 27 25 23
42 43 42 43 46 48 46 46 46 46 43 43 44 42 41 40 41 43 41 36 36 34 32 32 33 32 31 31 32 31 31 31 30 23 23 23 26 25 24 24 25 24 24
43 43 44 44 45 47 47 47 47 45 43 41 40 37 36 36 38 38 37 39 36 36 36 36 33 31 34 35 34 34 34 34 32 23 20 21 23 23 22 21 21 22 22

GFSMW_sfc_temp_045.txt.gz
Temp
71 73 72 73 69 65 63 62 60 59 58 56 54 53 52 53 54 56 58 59 59 59 56 55 54 54 52 52 51 49 49 48 47 45 45 46 48 50 47 47 47 49 51
69 70 68 69 66 64 62 61 61 60 59 58 57 57 54 55 56 57 57 59 59 59 58 55 53 53 52 51 50 49 47 46 46 43 41 39 44 45 48 45 47 45 47
68 69 68 65 63 63 61 61 62 61 61 61 60 58 56 55 54 55 55 57 60 60 58 56 54 53 51 49 48 48 47 44 45 46 43 37 34 37 43 45 44 43 43
68 70 67 62 64 62 62 63 63 62 63 65 61 57 55 55 56 56 56 57 59 59 59 57 54 52 51 50 48 51 46 44 42 43 49 42 40 34 33 39 42 43 45
68 68 67 64 65 63 62 63 64 63 64 66 63 60 56 56 56 57 57 57 59 60 58 54 51 51 49 48 47 46 45 44 42 41 40 40 39 39 35 33 35 40 42
68 69 69 68 65 64 63 63 64 65 64 63 61 59 58 58 58 59 58 58 57 55 53 53 50 49 48 47 45 45 44 43 42 42 41 40 40 40 39 34 33 33 37
62 64 65 65 65 64 63 62 62 64 64 61 60 59 57 56 55 56 57 55 51 49 51 50 48 47 47 47 46 44 43 43 40 40 41 44 43 43 42 39 33 31 34
63 63 65 64 64 64 62 65 67 68 65 61 59 58 57 54 54 55 54 53 52 52 50 49 48 48 48 46 45 44 42 42 40 40 41 41 44 41 43 39 35 31 30
62 62 63 64 64 61 61 64 65 63 60 59 56 55 55 54 53 54 55 53 53 54 51 50 47 47 47 46 43 41 41 40 39 39 38 38 40 42 40 41 38 34 28
62 62 62 61 61 61 61 61 61 60 58 56 56 55 54 54 55 53 54 53 52 52 50 48 47 46 45 44 42 40 41 40 38 39 38 38 39 40 39 38 38 36 33
61 61 61 63 63 61 61 61 59 60 59 57 54 53 52 55 56 55 53 52 51 51 49 48 47 46 44 43 41 40 41 40 38 39 39 38 39 36 35 34 33 31 30
63 62 62 63 62 61 62 59 58 61 59 57 55 55 56 56 56 54 51 52 50 49 48 48 47 47 44 42 42 41 40 39 38 39 38 38 42 34 32 30 29 28 29
62 63 63 63 63 63 64 63 61 60 58 57 57 55 55 55 54 54 52 49 48 47 47 48 46 45 43 43 42 41 40 40 39 38 37 36 35 31 29 29 28 28 33
66 64 65 65 66 65 64 63 59 58 57 57 56 55 54 54 54 52 50 48 47 47 48 47 46 45 44 45 45 43 39 38 37 37 36 35 33 32 31 31 28 29 26
63 63 62 58 58 58 58 60 57 57 57 57 56 54 54 53 51 50 49 48 47 49 48 46 45 44 44 45 40 40 37 36 35 35 36 36 37 41 35 32 27 26 25
63 62 60 60 60 59 57 58 57 56 57 55 54 54 52 51 50 49 48 48 47 47 46 45 44 43 45 38 39 37 34 35 34 32 33 33 37 36 36 36 35 32 25
61 63 61 60 59 59 58 56 56 56 54 53 53 52 52 51 49 49 49 47 45 44 43 43 43 41 39 38 38 37 33 32 31 30 31 33 36 32 29 31 31 30 32
60 61 60 59 56 56 57 56 56 54 53 51 51 49 49 49 49 47 47 45 44 43 42 41 41 40 41 37 37 35 32 32 31 31 31 30 29 28 28 27 25 26 26
59 58 57 55 54 55 55 55 53 52 51 49 49 49 47 46 47 45 43 43 43 42 41 41 40 38 36 37 36 34 31 31 30 32 32 31 28 31 32 27 24 24 25
56 55 54 54 52 50 51 49 49 47 46 47 47 48 47 46 44 43 42 42 42 42 40 39 38 38 33 36 36 34 29 28 28 29 30 33 29 31 31 22 21 19 23
49 48 46 45 45 47 47 45 46 45 47 47 47 46 46 45 44 42 42 42 40 38 35 34 34 35 34 32 36 36 29 28 27 27 26 27 32 31 32 31 22 20 26
45 45 42 42 43 45 45 44 43 46 46 45 45 45 44 43 44 41 41 40 38 34 34 28 30 30 33 35 35 36 35 31 25 27 27 27 33 33 33 30 30 31 28
41 42 41 41 44 45 45 42 44 46 45 43 40 40 41 42 43 39 37 35 35 31 32 30 27 29 31 30 35 35 34 33 28 27 28 31 33 33 30 31 32 27 22
38 40 41 41 41 45 46 44 43 42 40 38 38 38 38 38 38 38 37 34 28 26 29 28 28 27 27 27 26 29 31 32 30 27 27 25 25 22 24 24 27 25 21
42 42 42 41 42 42 42 43 42 41 40 39 38 37 36 35 35 36 34 31 31 29 28 28 28 25 24 29 31 29 28 27 27 26 26 23 20 22 24 24 23 22 21
40 40 40 40 40 41 40 41 42 40 38 36 34 30 30 30 32 32 31 35 34 36 36 36 30 31 34 34 35 35 34 33 31 23 18 12 11 17 23 22 20 18 19

GFSMW_sfc_temp_048.txt.gz
Temp
68 69 69 69 68 63 62 61 59 57 57 55 53 52 52 53 53 54 57 57 57 56 54 52 51 51 51 49 50 48 47 46 44 43 43 44 44 46 45 45 45 47 48
66 67 67 67 63 61 61 60 59 58 57 57 54 55 53 53 54 54 55 56 56 55 55 52 51 51 50 49 48 46 44 44 44 42 39 38 41 42 46 43 45 42 44
65 65 65 63 61 60 59 60 59 59 58 58 57 54 54 52 52 52 53 55 56 57 55 53 51 51 49 48 46 45 44 42 42 43 42 36 33 35 40 43 42 41 41
68 65 65 61 60 60 60 60 60 59 59 58 57 55 53 53 52 52 53 54 56 56 56 54 51 49 48 47 47 47 43 42 40 41 46 40 39 34 34 38 41 41 42
67 63 63 62 62 60 59 60 60 60 61 60 59 56 52 53 53 52 53 53 54 55 54 51 49 48 47 47 46 43 42 41 40 39 38 38 37 36 33 32 33 38 40
63 64 63 63 61 60 59 60 60 60 60 60 59 57 55 54 53 52 52 52 51 50 52 51 48 47 47 46 45 42 42 41 39 38 38 38 37 36 39 37 38 36 35
60 60 59 60 59 59 60 60 60 60 61 60 60 57 56 54 55 54 53 50 50 51 51 50 48 48 47 45 43 41 40 39 38 38 38 39 39 41 42 38 37 34 32
62 63 61 61 60 60 60 61 61 61 60 59 57 55 55 54 52 54 54 53 51 49 50 48 49 48 46 43 42 40 40 39 38 38 37 38 38 39 38 39 35 32 29
60 61 63 61 61 61 61 60 61 61 60 59 58 55 53 53 51 54 54 52 51 50 47 47 48 46 43 43 41 39 39 38 37 37 37 36 37 39 40 39 36 35 27
57 58 59 59 60 59 57 58 61 60 60 58 58 56 55 55 55 54 52 51 51 50 49 48 48 45 43 44 41 40 39 38 37 38 36 36 36 36 35 34 34 33 30
58 59 59 60 60 60 58 57 59 60 58 57 55 54 53 54 54 53 52 50 50 49 49 47 46 45 43 43 42 40 39 38 37 37 36 37 37 35 33 32 31 31 29
60 60 60 60 59 60 60 58 56 56 55 54 52 54 55 55 53 52 51 51 50 49 48 47 46 46 43 42 41 41 40 38 37 38 38 38 41 34 32 30 30 28 28
59 60 60 60 61 61 61 57 57 57 56 56 55 54 54 54 52 51 51 50 48 47 46 46 45 45 43 41 41 40 40 38 38 37 36 35 34 32 30 29 28 27 31
61 60 60 61 61 61 61 60 58 55 57 55 53 53 53 53 52 51 47 46 45 45 44 45 45 44 43 43 44 43 40 38 37 38 36 36 33 32 31 30 28 28 26
59 58 57 56 56 56 55 54 53 53 53 53 53 52 52 51 50 48 46 45 46 45 45 46 44 44 44 45 42 40 37 36 36 36 36 35 36 39 35 30 27 26 24
57 58 57 56 56 55 54 53 52 52 53 54 52 51 50 50 47 46 45 46 46 45 46 45 44 42 44 41 39 38 35 36 34 32 33 33 36 36 37 36 34 30 25
56 56 55 56 55 54 53 51 51 52 50 51 50 50 49 48 47 47 47 46 45 44 43 41 41 41 40 39 39 38 34 33 32 31 31 32 35 33 30 32 32 30 31
55 55 54 52 51 52 51 51 51 50 48 47 47 48 47 46 46 46 45 43 43 42 41 40 40 39 40 38 38 37 32 31 31 32 32 29 29 29 29 27 26 27 26
49 49 49 49 50 50 51 49 48 47 46 45 45 45 44 45 45 42 41 42 40 40 40 40 38 37 36 38 37 35 30 29 31 33 32 30 29 31 33 27 25 25 26
46 45 45 46 45 46 47 45 44 45 43 43 44 45 45 42 41 41 40 40 40 39 38 37 36 37 34 37 37 35 27 27 29 30 30 33 30 32 31 23 22 19 24
43 44 43 42 43 45 46 44 43 41 45 45 45 43 43 42 41 39 39 38 37 36 33 33 33 33 33 32 37 36 29 29 29 28 28 28 32 32 32 32 24 21 26
41 42 42 43 45 46 45 43 42 45 45 43 42 42 40 40 40 36 36 35 33 32 31 26 30 29 31 34 35 36 35 32 27 28 30 28 32 33 33 31 31 31 27
39 43 43 43 44 44 43 40 42 43 42 41 38 38 38 38 38 34 33 32 32 28 29 29 28 28 30 31 35 35 35 34 29 29 29 31 32 33 31 32 31 27 22
42 42 42 41 41 42 42 41 41 40 38 36 36 36 35 35 34 34 33 31 26 24 28 27 27 27 28 28 29 30 31 34 32 27 29 26 27 22 23 23 27 24 22
41 42 41 40 40 40 39 39 39 39 37 36 36 34 33 33 32 33 32 31 31 30 29 28 28 25 25 28 32 32 29 28 30 26 24 25 22 22 23 23 23 24 22
40 40 39 37 37 38 38 38 38 37 35 34 33 31 30 29 31 31 33 35 34 34 35 35 30 31 33 34 35 35 35 33 31 27 22 24 19 20 20 21 22 22 20

GFSMW_sfc_temp_051.txt.gz
Temp
64 65 66 66 63 60 59 59 58 56 57 56 54 52 52 52 52 53 55 56 56 55 52 50 50 50 49 48 48 46 46 44 43 42 41 41 42 43 43 43 43 45 45
62 64 63 63 63 60 59 58 59 57 58 58 53 54 52 52 52 53 54 55 55 54 53 51 50 49 48 47 46 45 43 42 42 41 37 36 39 41 43 41 43 41 42
62 63 63 62 61 59 59 59 59 58 58 57 55 52 52 51 51 51 52 53 54 54 53 51 50 48 47 46 45 44 44 41 42 43 41 35 32 34 39 41 41 40 40
64 64 63 62 61 61 61 60 59 58 58 58 56 53 52 50 52 51 51 52 54 54 53 51 49 47 46 45 45 45 42 43 40 40 44 39 38 33 32 37 39 38 40
64 63 63 63 63 61 58 58 58 58 59 58 57 54 51 52 51 51 52 51 51 51 52 50 48 46 46 44 44 43 42 41 38 37 37 36 35 34 32 29 32 37 39
64 64 65 64 62 58 58 57 58 58 59 58 56 54 53 51 51 50 49 49 48 48 48 49 49 49 48 44 43 42 41 39 37 37 36 36 36 35 34 32 35 38 39
61 61 61 60 59 59 58 59 58 58 58 58 56 55 53 53 52 52 51 47 46 46 48 48 47 48 47 46 43 41 39 39 37 37 38 38 37 38 38 36 37 36 35
61 59 60 60 59 59 60 60 58 59 58 58 57 56 54 54 52 51 50 49 49 48 47 47 47 48 47 46 43 40 38 38 37 37 36 36 36 37 37 36 36 32 30
58 58 59 60 59 59 60 60 59 59 59 58 57 53 53 51 50 50 51 49 49 49 47 47 46 46 46 44 40 38 38 37 36 36 35 35 36 36 36 36 34 34 24
55 57 59 59 59 59 60 59 59 59 58 55 54 53 52 52 54 53 50 49 47 44 46 46 46 46 44 43 40 38 38 38 37 37 37 36 36 36 34 33 33 32 30
54 56 57 58 59 59 59 58 58 57 54 54 53 51 53 53 53 50 50 48 46 47 46 47 46 45 43 41 39 39 39 39 38 37 36 36 36 34 33 32 31 29 29
55 57 58 57 57 57 57 57 57 57 56 54 53 52 54 52 50 50 49 48 46 48 48 47 46 45 42 41 41 41 39 37 36 36 36 36 40 34 32 31 30 29 28
55 56 55 57 57 58 58 57 55 53 53 53 52 51 51 50 49 48 48 47 46 47 46 46 45 43 42 41 40 39 39 37 37 37 36 36 35 33 31 30 29 27 30
56 55 55 56 57 57 55 54 52 52 52 52 52 50 51 49 49 48 48 45 44 45 45 44 44 44 43 41 41 41 39 38 37 36 35 35 34 32 30 30 28 28 26
56 55 54 54 54 53 52 51 50 51 51 52 52 50 51 50 49 47 44 44 45 46 46 45 44 43 42 42 40 40 37 35 34 34 35 34 35 38 34 31 27 26 24
53 56 55 54 54 52 50 50 49 50 51 51 50 50 48 48 47 46 45 45 45 46 45 44 43 41 43 41 40 38 34 35 33 32 32 32 35 36 38 37 35 29 24
53 53 51 52 51 50 50 48 49 50 49 48 49 48 48 46 45 45 45 45 44 43 42 41 41 40 39 39 40 38 33 32 31 30 30 32 35 34 32 34 34 32 32
47 47 48 47 47 47 47 48 48 47 47 47 46 45 45 44 45 46 44 42 41 40 40 39 38 37 38 39 39 38 32 30 30 30 32 33 31 30 29 28 26 27 27
43 43 44 46 46 46 47 46 45 45 45 44 44 45 45 44 44 42 40 40 39 38 37 37 36 34 34 38 38 36 30 29 29 31 31 31 29 32 34 27 26 26 27
42 42 43 43 43 43 45 43 41 41 41 44 44 45 45 43 41 39 39 38 37 36 35 35 34 35 33 37 38 36 28 27 29 29 30 34 31 32 33 25 23 21 25
41 42 42 41 41 43 43 41 42 41 44 45 44 43 43 41 41 38 36 35 34 33 31 32 32 32 32 33 37 37 29 29 29 29 29 29 32 33 33 32 24 22 26
40 42 41 41 42 43 45 43 42 43 44 43 43 41 41 39 38 35 33 33 31 30 30 26 29 30 31 34 35 36 36 32 28 29 29 29 33 33 33 31 31 31 27
38 41 41 42 43 44 44 41 41 41 40 39 37 36 36 36 35 32 32 30 30 28 29 29 28 29 29 29 34 35 35 35 30 30 30 32 32 32 32 32 32 27 23
39 42 41 40 40 42 42 41 39 39 37 35 34 34 33 33 33 32 32 30 27 27 30 29 29 29 29 27 28 29 29 33 33 30 31 29 29 27 27 25 27 24 23
41 41 40 39 39 39 38 36 35 35 34 33 33 33 32 32 32 32 32 32 31 31 32 32 31 29 28 30 32 30 27 27 29 29 29 26 26 25 25 24 24 23 21
40 39 38 36 35 33 32 33 34 32 31 32 31 29 29 29 30 30 31 35 34 35 35 35 33 34 34 35 36 35 35 35 34 28 26 25 24 25 23 23 23 21 20

GFSMW_sfc_temp_054.txt.gz
Temp
62 63 62 61 60 59 59 59 57 56 56 56 54 52 52 52 52 54 55 55 54 53 52 50 49 48 48 47 47 45 45 43 43 43 42 42 42 43 43 44 44 46 46
59 61 61 60 59 59 59 58 58 56 57 57 53 54 52 52 52 53 53 54 54 53 52 50 48 48 47 46 46 45 43 42 42 41 38 37 40 42 43 42 44 43 43
58 60 60 60 60 58 58 59 58 57 57 56 54 51 52 51 51 50 51 52 53 53 52 50 48 47 46 45 44 44 44 41 41 42 40 35 34 35 39 41 41 41 41
61 61 61 60 61 61 59 59 58 57 57 56 55 53 52 50 51 51 51 52 52 52 51 49 48 46 45 44 44 45 42 41 40 40 43 40 39 35 33 38 39 40 42
61 61 62 62 62 60 58 59 58 57 57 56 56 54 52 52 51 51 51 50 50 50 50 48 46 45 44 43 43 43 42 40 40 38 38 37 36 35 34 33 35 41 42
60 62 63 61 61 56 56 56 57 57 57 57 56 54 53 52 51 49 50 48 47 47 47 47 45 46 45 44 45 44 43 41 39 37 37 37 36 35 34 31 33 39 38
59 59 58 59 57 56 56 57 57 57 57 57 56 55 54 54 52 51 51 47 45 44 45 46 47 47 46 45 43 44 43 41 39 38 38 37 38 38 37 35 38 32 35
61 60 60 59 58 57 57 57 57 59 57 58 57 55 56 54 52 51 50 48 47 45 47 44 45 46 47 46 45 43 42 41 38 36 36 38 37 37 37 36 35 33 35
56 59 60 59 58 57 57 57 58 59 59 58 57 55 54 52 51 49 48 47 46 48 44 46 46 45 44 45 44 42 41 39 37 37 38 36 36 36 37 37 35 32 28
52 55 57 57 58 58 58 58 59 59 59 57 57 56 53 52 50 49 47 48 47 45 45 43 44 44 45 44 43 41 40 37 37 37 36 35 35 35 35 34 34 33 31
52 53 55 57 57 57 58 58 59 58 57 56 55 52 50 50 50 50 48 47 46 46 45 45 44 45 44 43 41 40 39 37 37 37 36 35 35 34 33 33 33 32 30
53 53 54 55 55 57 57 58 58 58 56 54 51 50 50 50 50 47 48 47 47 47 46 46 45 45 44 42 41 39 40 38 37 37 36 35 38 33 33 31 32 30 30
53 53 53 54 56 56 57 56 56 55 52 51 50 50 49 49 48 48 47 48 47 46 45 45 45 44 43 41 41 41 39 37 36 36 35 34 33 32 32 32 30 29 31
54 52 52 53 54 54 54 53 51 51 51 50 51 50 50 49 47 49 48 47 45 44 44 44 45 44 44 43 41 40 38 37 36 35 34 34 33 32 32 31 29 29 27
53 53 53 52 52 52 50 50 49 48 50 49 49 49 49 50 49 47 45 44 43 42 46 45 44 44 43 42 39 38 36 35 34 34 34 33 34 38 35 32 30 28 26
50 52 53 52 51 50 49 48 47 47 50 48 48 49 48 47 46 45 43 43 44 45 45 43 43 41 43 41 40 38 35 34 33 32 32 32 36 36 37 38 37 31 26
46 47 47 48 48 47 46 45 47 48 47 47 48 47 47 45 44 45 45 44 43 42 41 40 40 39 38 39 40 39 34 33 32 32 32 32 35 36 34 34 36 34 33
42 42 43 43 43 44 44 45 45 45 44 45 45 45 45 45 45 45 43 42 41 40 39 38 37 36 37 38 39 38 34 32 32 31 31 30 31 31 32 30 28 29 29
40 39 41 41 42 42 43 43 42 43 44 45 45 45 45 44 43 42 41 41 39 38 36 36 35 34 34 37 37 36 32 31 31 32 31 31 30 32 35 29 27 27 28
39 39 40 40 40 40 42 41 42 44 43 44 43 44 43 42 41 40 39 38 36 35 34 33 33 34 32 36 37 36 30 29 31 30 30 34 32 32 33 28 25 22 26
39 40 40 39 39 42 43 41 42 42 43 43 43 43 42 41 40 38 36 34 32 31 31 31 31 32 32 33 36 37 31 31 30 30 29 30 33 34 34 33 26 24 28
38 39 39 38 39 40 41 39 40 42 43 43 40 40 38 37 37 33 32 32 31 30 30 27 30 31 31 34 35 36 36 33 30 30 30 30 33 34 34 33 31 30 27
38 39 39 38 39 40 41 39 39 39 38 36 35 34 34 34 33 32 31 30 30 28 29 29 29 31 33 30 34 35 35 34 31 31 31 32 33 34 32 32 32 30 27
36 38 38 37 37 38 38 37 37 37 34 33 32 32 31 32 31 31 31 29 27 27 30 29 30 30 31 31 29 30 29 32 32 30 32 30 30 29 30 29 30 29 27
37 38 36 36 35 35 34 34 33 32 32 31 31 30 30 29 30 30 29 29 29 29 29 30 30 30 30 32 34 32 31 31 30 29 28 29 28 27 27 27 27 27 26
37 36 35 33 32 31 30 30 31 30 30 30 29 27 27 26 28 28 28 33 33 34 34 35 32 32 34 35 36 36 35 34 33 28 28 27 27 25 26 25 25 25 24

GFSMW_sfc_temp_057.txt.gz
Temp
68 67 67 68 68 69 67 68 66 65 64 63 61 60 60 62 63 63 64 63 65 64 63 61 58 62 62 61 60 59 58 59 59 60 60 59 57 57 59 59 61 59 60
66 66 66 66 67 67 67 66 66 65 66 68 66 66 64 63 64 63 63 64 64 64 63 59 61 62 61 59 59 59 57 58 58 57 55 54 55 56 57 58 58 57 59
65 65 65 65 66 66 65 66 67 66 66 67 65 63 62 62 61 61 62 63 63 63 61 60 61 60 61 59 58 58 57 56 56 54 55 52 51 52 56 55 57 55 57
66 68 66 66 66 66 66 68 67 66 65 64 64 62 64 62 62 61 62 63 59 58 60 61 60 59 60 58 57 57 57 56 54 54 55 54 53 50 48 54 54 54 54
67 67 68 69 68 68 64 66 66 66 66 64 65 62 62 64 60 59 60 60 61 61 61 60 58 58 58 56 56 54 54 55 53 53 52 51 52 51 48 46 50 53 54
67 68 70 70 69 67 65 65 65 65 65 64 63 62 62 60 57 57 56 58 60 59 59 59 58 57 56 55 52 50 48 47 53 50 48 50 50 51 48 46 46 46 50
67 67 68 67 68 65 65 65 66 65 64 63 62 60 59 60 60 59 55 59 57 57 57 57 55 56 55 53 48 46 46 46 47 49 51 52 51 51 49 47 46 44 48
67 68 69 69 68 66 66 65 65 66 64 62 62 59 59 61 61 58 55 56 57 59 57 55 55 54 53 48 44 44 44 45 50 49 49 51 51 50 49 47 44 41 45
66 67 69 68 68 66 65 64 66 66 65 63 62 59 58 59 58 55 55 59 59 56 52 52 53 52 50 46 44 45 44 45 48 49 49 49 51 49 49 49 48 44 38
61 64 66 66 67 66 66 65 66 65 66 64 62 60 59 60 59 57 58 56 55 53 50 52 52 48 46 49 49 46 44 44 49 50 48 48 49 49 49 49 48 47 43
63 63 65 66 66 66 65 64 65 66 65 64 62 61 60 60 57 56 54 53 49 49 50 49 47 48 46 46 44 44 44 47 48 48 48 47 48 48 48 47 47 46 45
64 64 64 64 64 64 65 64 65 65 64 63 61 60 59 56 55 52 50 48 47 49 50 49 46 45 43 44 43 45 48 48 47 48 47 46 48 46 47 46 45 45 45
64 63 63 63 64 64 64 63 62 62 62 59 58 55 54 53 52 50 48 48 48 48 48 45 44 47 46 46 49 50 48 48 48 48 47 47 47 45 46 45 45 45 44
62 64 62 62 61 61 61 60 59 58 56 55 54 52 52 51 50 49 48 48 50 47 45 45 44 44 45 47 50 49 49 48 48 47 47 47 46 46 46 45 44 44 42
59 60 60 61 62 61 59 58 56 54 54 53 52 51 51 50 49 49 49 46 46 45 44 44 44 46 47 48 47 50 49 48 47 47 46 46 45 42 43 44 44 42 41
53 55 57 59 58 56 56 54 54 54 56 54 51 50 50 49 47 46 44 44 44 44 45 45 44 44 45 42 41 43 48 48 46 46 47 46 41 41 38 38 37 39 40
49 50 50 52 53 53 53 52 52 53 53 52 51 48 46 46 45 44 45 43 43 45 44 42 41 41 45 41 40 39 48 47 47 47 46 46 44 40 43 39 37 36 35
47 48 49 49 50 51 50 51 52 51 49 47 47 47 46 45 47 45 44 44 43 42 43 42 45 46 46 39 38 38 46 46 46 46 45 45 45 44 42 41 40 40 40
45 46 47 48 48 49 50 50 50 50 48 46 45 45 45 44 45 43 42 42 42 43 45 45 45 44 45 39 37 38 45 44 44 45 44 44 44 40 36 37 36 37 38
45 45 46 47 47 48 50 49 48 46 45 46 47 48 46 43 42 42 43 46 46 44 44 44 44 41 42 40 37 39 42 40 41 44 43 37 40 36 34 35 34 32 36
44 45 46 45 47 49 50 48 47 45 45 46 45 44 44 45 45 45 45 44 44 42 41 40 41 42 41 42 38 37 39 40 40 41 41 42 35 34 34 35 35 33 37
44 46 44 44 46 48 48 46 44 46 46 43 42 44 43 43 43 42 42 42 42 40 39 35 38 41 41 38 38 37 36 38 37 37 41 41 36 34 34 35 35 33 32
44 46 44 43 44 46 46 43 42 44 43 42 41 40 41 40 41 41 40 40 40 38 37 36 35 37 39 40 37 35 34 35 35 38 38 36 35 34 34 33 34 32 32
43 44 42 40 39 40 40 39 39 40 40 39 38 39 38 38 39 39 39 38 36 35 34 34 34 34 35 36 38 37 38 37 36 35 35 34 33 33 34 34 33 34 34
42 42 39 38 36 37 35 36 37 39 38 37 36 35 35 35 35 36 35 34 35 33 32 32 32 30 30 32 32 32 33 33 34 34 34 33 33 32 31 32 33 34 33
40 38 36 34 33 32 32 34 36 37 36 34 34 31 32 32 32 32 32 31 30 31 31 31 30 31 30 29 30 30 32 32 33 33 31 32 32 31 31 31 32 32 31

GFSMW_sfc_temp_060.txt.gz
Temp
75 76 75 77 77 77 76 76 76 75 75 74 74 74 73 75 76 77 74 72 71 70 70 71 69 70 70 68 68 68 66 67 69 67 68 67 65 64 67 67 67 66 65
75 75 74 75 75 77 76 76 77 77 76 77 77 76 75 76 77 76 73 73 71 70 70 71 69 66 70 67 67 66 66 67 67 64 63 62 64 64 64 66 65 64 65
76 75 73 73 74 75 76 77 78 77 77 78 78 77 76 75 73 73 68 70 70 71 71 68 67 66 69 67 66 66 65 64 64 62 60 60 59 61 66 62 63 62 62
79 79 76 75 75 75 77 77 78 78 77 77 77 73 74 72 74 73 70 71 70 70 71 66 65 65 68 68 66 67 66 64 61 59 57 60 61 57 56 63 61 61 60
79 78 79 78 78 77 76 76 77 77 77 76 75 74 72 76 76 71 69 67 67 66 66 66 62 63 68 67 66 64 63 59 54 53 56 57 60 58 54 53 59 62 62
78 79 81 81 80 79 77 75 75 76 77 75 73 73 72 73 69 68 67 67 67 66 66 64 62 64 67 65 64 62 57 56 49 49 52 53 56 57 56 54 55 55 58
79 79 79 80 80 79 77 75 76 76 76 74 73 72 72 70 66 66 68 66 64 62 59 60 60 66 66 64 61 55 54 49 47 48 54 53 57 59 57 54 53 52 57
79 80 80 80 80 79 77 75 74 75 76 73 72 72 71 69 65 64 65 67 60 56 57 58 64 66 63 55 55 48 55 54 48 51 49 52 57 58 57 55 52 48 51
79 80 82 81 80 79 77 75 73 75 76 73 72 69 67 66 62 64 64 63 58 56 58 63 63 54 53 57 49 48 50 48 48 48 50 53 57 57 57 56 54 50 44
75 77 79 81 81 81 79 77 76 76 77 76 71 66 65 65 65 63 64 61 56 59 61 59 51 54 52 51 48 46 46 46 46 49 53 55 56 56 56 55 54 54 50
75 75 77 78 79 80 78 76 75 76 77 76 72 65 64 65 64 62 60 58 57 58 58 52 51 48 48 47 46 47 44 43 49 54 54 54 55 55 55 55 54 52 52
77 77 76 76 76 76 76 76 75 75 76 75 71 66 64 63 62 60 58 56 54 51 50 48 48 48 46 45 43 43 45 50 53 54 54 53 55 53 54 53 52 52 52
77 77 75 75 75 75 75 75 73 73 73 70 64 61 60 58 56 53 50 48 47 46 46 48 46 44 45 44 44 45 51 54 54 55 54 53 53 52 53 53 52 52 52
74 76 75 75 73 73 71 69 67 64 61 60 57 54 53 52 50 49 48 47 49 48 49 46 46 44 43 44 46 51 53 54 55 54 53 53 53 52 52 52 52 51 50
69 72 73 73 73 71 69 63 58 56 56 54 54 52 52 51 49 48 48 49 49 47 48 45 44 44 45 46 48 51 52 53 54 54 54 54 52 47 48 52 51 50 48
64 66 68 69 67 66 65 63 61 59 58 55 52 51 51 50 49 50 50 52 50 49 46 44 43 44 45 42 41 43 51 53 53 52 54 55 48 46 40 39 39 43 46
62 62 63 64 63 63 63 61 60 61 59 56 54 54 55 54 54 53 50 46 46 45 43 43 44 44 45 41 41 40 50 52 53 53 53 53 55 48 50 41 37 38 37
59 60 61 61 61 62 61 61 61 59 57 56 55 54 53 51 50 50 48 46 45 45 45 46 44 47 53 41 40 38 49 51 52 52 52 52 52 52 49 48 47 47 45
59 59 60 60 60 60 61 60 58 56 54 54 54 54 54 51 49 47 45 45 45 45 45 52 51 51 52 41 39 40 48 49 49 51 52 52 51 46 41 46 44 45 43
57 57 58 59 59 59 60 58 56 55 54 54 53 53 54 52 47 45 46 52 54 53 53 50 51 46 49 43 39 41 45 44 46 48 49 43 45 42 37 43 41 39 42
56 57 58 57 58 59 58 55 55 52 53 54 53 51 50 51 52 52 52 52 52 50 47 46 48 48 47 47 39 38 41 41 41 42 44 47 40 37 37 37 41 39 43
54 56 55 55 57 58 57 54 52 54 54 52 49 50 51 50 51 50 50 50 50 46 45 41 43 45 45 40 40 37 37 37 38 38 40 41 38 36 36 36 36 36 35
55 56 54 53 54 56 56 52 51 52 51 50 49 48 48 48 48 48 47 48 46 44 42 41 40 41 42 42 38 36 34 34 36 39 38 36 35 34 34 33 34 34 36
54 54 51 49 48 50 50 49 49 50 49 47 46 46 44 46 46 47 46 45 41 39 38 37 37 37 38 38 36 35 36 34 35 36 39 37 34 34 34 34 34 34 34
52 52 49 47 46 46 45 45 47 48 46 45 44 43 42 42 44 43 41 39 38 34 34 35 34 31 30 32 29 30 31 32 32 31 34 36 37 38 38 37 35 35 34
50 48 46 43 41 40 39 41 45 46 44 41 41 37 39 40 41 41 41 30 31 31 31 29 29 30 29 27 28 28 28 28 30 32 32 32 33 34 37 37 36 34 33

GFSMW_sfc_temp_063.txt.gz
Temp
80 80 78 78 79 78 76 76 76 76 77 77 76 76 75 77 78 80 80 78 74 72 71 74 72 70 72 71 71 70 68 69 70 68 68 69 68 66 68 69 69 68 68
78 78 78 76 78 77 77 77 78 78 78 80 79 79 79 79 80 80 79 76 72 72 71 72 72 69 71 70 68 68 67 69 69 65 66 62 65 66 66 68 67 66 67
78 77 77 76 77 77 77 79 80 80 80 80 81 80 80 79 78 78 78 73 72 72 71 72 70 69 70 68 66 67 67 66 67 65 63 59 54 60 67 65 66 64 65
80 80 78 77 77 78 79 80 81 82 81 80 80 77 76 75 77 77 78 72 72 71 72 71 70 69 69 66 65 68 68 67 64 64 63 57 54 53 54 64 64 64 62
82 81 81 80 80 79 79 80 80 81 82 80 79 78 76 77 79 78 76 69 70 71 70 68 64 65 67 65 62 65 66 67 65 56 54 53 55 60 54 52 58 64 65
83 84 85 84 83 82 80 79 79 80 81 81 78 77 76 76 77 77 72 70 69 69 69 68 64 64 63 61 60 65 65 61 57 51 56 51 52 56 52 54 56 57 61
82 83 84 84 83 81 80 80 79 79 80 79 78 76 76 76 74 75 71 68 68 65 66 65 63 61 58 58 60 64 61 52 53 53 54 54 58 55 56 56 55 54 58
84 83 84 84 84 83 82 80 79 78 79 77 77 77 76 76 76 67 62 65 65 66 67 66 62 56 56 57 59 58 50 53 49 47 48 50 54 56 58 56 53 49 52
84 85 86 85 84 84 82 81 80 80 80 79 78 76 76 74 74 71 70 63 66 63 60 58 56 54 54 54 53 48 49 47 45 46 48 48 54 58 58 58 56 51 45
82 84 86 85 85 86 84 83 81 81 80 80 76 73 71 69 70 68 67 65 66 62 58 55 54 51 52 49 50 48 45 44 46 46 46 50 56 58 58 57 56 54 50
81 81 83 86 87 86 85 82 81 80 80 81 76 71 68 66 64 65 63 64 64 63 58 56 51 49 47 49 49 47 44 43 43 45 49 53 56 56 56 56 56 53 52
82 83 81 82 83 84 85 83 81 80 81 81 79 68 67 64 62 61 61 61 57 54 53 51 48 48 48 46 45 43 44 43 44 47 52 53 56 54 55 55 53 53 53
82 83 82 81 80 80 81 81 79 80 80 80 76 66 62 61 55 52 52 50 49 48 47 48 47 47 45 44 44 44 44 45 48 51 54 54 53 53 54 54 53 54 54
81 82 82 81 80 79 79 78 74 71 70 66 60 56 54 52 50 49 48 47 48 48 48 47 45 45 44 44 45 45 46 49 50 53 54 54 54 53 53 54 53 54 52
77 79 80 80 78 76 70 65 60 59 59 56 54 52 51 51 50 49 48 48 48 48 47 45 45 45 45 45 45 46 46 48 49 52 54 55 54 49 49 53 51 51 51
72 74 77 78 75 72 67 60 56 55 55 53 51 51 51 50 49 49 48 47 47 47 47 46 44 43 45 41 40 42 45 47 50 52 54 56 51 49 44 43 42 45 47
69 71 73 72 70 69 66 61 59 58 56 54 54 54 54 53 53 53 51 50 49 47 44 43 43 44 47 41 41 40 49 51 52 52 53 54 57 51 55 46 41 40 39
67 67 68 67 68 68 67 65 65 63 61 60 60 58 57 56 56 55 53 50 47 45 46 46 47 49 51 43 40 39 49 50 51 52 53 53 53 53 51 51 50 49 48
67 67 68 67 67 66 66 64 63 62 60 59 58 57 56 54 54 51 49 50 47 48 49 51 53 53 54 43 40 41 48 48 48 51 51 51 51 46 43 45 45 46 46
66 65 66 66 65 65 65 62 61 60 58 58 57 57 56 54 52 50 50 50 54 54 56 54 53 45 51 38 39 41 44 42 43 45 46 42 43 38 37 40 42 41 44
64 65 65 64 64 65 63 61 60 58 58 58 57 55 53 52 55 55 55 54 54 53 50 48 49 49 47 46 39 38 40 39 36 38 40 43 39 38 38 36 37 37 41
62 64 62 62 62 63 62 59 56 58 58 57 54 54 55 55 55 53 53 53 52 49 47 44 45 46 46 40 37 36 34 34 35 35 37 38 36 35 35 36 36 35 34
62 62 61 60 61 62 61 57 56 57 55 54 53 52 53 53 53 51 50 51 50 46 43 42 41 42 43 43 36 35 33 33 34 35 35 34 34 35 35 36 34 33 34
61 61 59 58 57 59 58 56 56 56 54 51 51 50 50 49 50 51 50 48 44 42 40 39 38 38 38 39 35 33 33 33 33 33 34 32 31 32 33 34 37 38 35
60 58 56 54 54 54 53 54 54 54 51 50 49 47 46 47 47 46 43 41 37 34 35 37 35 32 31 32 28 28 29 30 29 29 32 34 35 34 36 37 38 39 38
57 56 54 52 51 50 49 50 52 52 49 46 44 42 42 42 45 45 40 31 32 31 30 29 29 31 29 27 27 27 28 28 30 29 31 29 29 29 30 31 33 38 37

GFSMW_sfc_temp_066.txt.gz
Temp
74 71 72 71 69 69 68 69 68 70 70 69 68 68 67 69 69 72 71 70 69 68 66 64 65 63 62 61 61 61 60 59 59 57 57 57 58 57 57 57 57 59 59
74 73 73 71 69 70 70 71 72 72 72 72 72 70 70 70 71 70 72 71 68 68 68 66 66 63 62 61 61 60 57 59 58 54 54 50 52 54 57 57 58 55 57
74 73 72 72 71 70 70 72 72 72 73 74 74 73 72 70 70 71 69 70 68 68 68 66 65 63 63 61 61 60 60 58 58 56 53 48 47 48 56 57 55 54 53
77 75 74 71 71 71 72 74 74 74 74 74 74 71 70 68 69 68 71 70 69 67 69 66 64 62 61 60 60 62 60 59 56 54 56 51 50 47 47 54 55 53 55
76 75 74 74 74 74 72 73 75 76 75 75 73 72 68 69 70 69 68 68 66 65 67 65 63 60 59 57 59 59 58 58 56 54 48 48 50 51 45 45 48 52 52
77 79 78 77 76 76 74 73 74 75 76 75 73 70 69 68 67 67 66 65 65 65 65 65 61 60 57 57 56 56 55 52 49 49 49 48 48 49 48 43 45 46 50
78 78 78 77 76 74 74 74 74 75 75 74 73 71 70 67 68 68 68 64 63 62 61 61 58 58 58 57 56 54 52 49 46 48 48 49 49 49 48 48 47 43 47
79 79 80 78 77 76 75 74 75 74 76 74 73 72 72 71 70 69 65 64 63 61 61 61 60 59 56 54 53 50 47 47 48 47 46 46 47 48 49 49 45 38 41
80 80 81 79 78 77 75 74 75 76 76 74 73 71 72 71 70 69 65 62 62 62 61 60 57 54 54 53 49 47 46 46 45 45 45 45 46 48 49 51 49 43 34
80 80 82 80 81 79 77 75 76 77 76 75 73 73 71 70 70 66 64 63 61 59 57 55 54 53 50 48 47 47 45 44 44 44 44 44 45 47 49 49 48 46 43
78 79 80 81 82 81 80 77 77 78 77 76 74 72 70 66 63 61 61 61 60 59 57 55 51 49 47 47 46 45 43 42 43 43 43 44 46 48 50 48 47 46 45
79 79 79 80 80 80 81 78 78 77 77 76 70 69 65 62 61 59 58 58 55 55 53 51 49 48 47 47 44 43 44 43 42 43 43 45 50 48 48 47 46 43 43
80 79 78 77 78 79 79 77 75 75 75 68 66 65 61 59 54 52 51 50 50 49 48 48 47 46 45 44 44 44 44 44 44 45 46 47 49 47 45 47 43 43 48
79 79 78 77 77 77 77 73 67 65 62 61 57 53 52 50 49 49 49 48 48 48 47 47 45 44 44 44 45 45 44 45 46 47 47 49 47 45 45 45 43 45 41
78 77 77 76 76 69 63 62 60 59 57 54 52 50 50 49 48 47 48 47 47 47 46 45 45 44 44 45 44 45 45 45 45 46 49 48 48 47 46 49 43 41 39
75 75 77 75 70 63 59 57 55 54 54 51 49 49 49 49 47 48 46 46 45 45 45 44 44 43 45 41 41 42 44 45 45 43 46 47 47 46 43 44 43 46 43
72 72 74 71 64 61 58 54 53 53 52 51 51 50 50 49 48 48 47 46 45 45 44 43 43 43 44 40 41 39 43 43 43 42 43 46 51 45 47 45 41 39 40
70 70 69 66 64 62 59 58 57 55 54 54 54 53 52 51 51 51 50 47 45 43 43 43 44 45 48 42 41 39 40 41 42 43 43 42 42 43 40 38 37 39 41
68 67 67 66 65 63 62 61 59 59 58 56 55 55 54 53 52 48 46 46 45 45 45 46 46 46 43 39 38 39 39 40 38 43 41 41 39 40 39 36 34 35 37
68 66 66 65 64 63 63 60 59 57 56 55 55 55 54 52 49 48 47 47 48 48 49 49 46 44 38 38 37 39 33 32 31 33 37 37 37 36 36 33 32 30 32
66 66 65 63 62 63 61 59 58 56 57 56 56 54 53 51 50 50 50 49 47 46 41 41 41 43 40 36 36 36 30 28 29 30 30 32 35 35 35 34 30 30 33
64 64 62 61 62 62 60 58 55 57 56 55 53 52 53 53 52 48 47 48 45 41 38 36 35 35 36 35 35 34 33 32 28 29 30 30 33 33 33 32 33 34 33
63 64 62 59 60 61 60 55 55 56 54 52 51 50 51 51 51 46 45 43 42 37 33 33 32 33 32 32 33 32 32 32 28 29 30 31 32 32 31 33 34 32 31
62 63 60 58 57 59 59 56 55 54 52 49 48 48 46 46 46 46 45 40 34 32 32 32 30 29 30 27 27 27 26 29 28 27 27 27 29 29 30 31 31 31 31
62 61 58 56 56 57 54 55 54 53 50 48 47 44 43 43 42 38 37 31 30 30 29 29 29 24 23 25 26 26 25 24 26 24 25 26 26 26 26 27 28 28 29
60 58 57 54 54 52 51 52 53 51 47 44 42 37 36 36 40 36 34 33 31 31 31 30 27 27 28 27 27 27 28 28 28 24 22 20 21 21 23 24 24 24 25

GFSMW_sfc_temp_072.txt.gz
Temp
58 58 56 56 57 59 60 60 60 61 61 62 60 61 61 57 58 59 62 61 61 62 60 60 58 58 59 58 57 56 55 54 53 53 51 50 51 51 51 51 51 53 53
55 56 55 55 55 56 57 58 59 59 59 61 61 62 59 57 62 60 61 63 61 61 60 59 59 57 57 56 55 55 53 54 53 51 53 50 51 49 51 49 52 50 51
54 56 56 55 55 56 56 58 60 60 61 61 60 58 58 58 58 57 59 61 62 62 62 60 59 58 56 56 54 54 54 52 53 55 53 47 47 48 51 51 50 51 49
59 58 58 56 55 56 58 60 62 62 62 62 63 60 63 60 63 60 60 60 62 62 63 62 59 57 56 55 55 55 54 54 53 51 50 48 48 45 46 51 51 52 53
59 58 59 59 59 59 59 61 62 63 64 64 64 62 61 62 59 58 59 60 61 62 63 62 60 58 58 57 56 54 54 54 52 50 46 46 46 46 44 43 48 51 51
61 61 62 62 61 61 61 61 61 63 64 64 64 63 63 58 58 60 59 57 60 62 62 62 62 60 57 56 56 55 55 53 52 49 48 47 46 45 44 43 44 45 49
61 61 60 60 61 61 61 62 62 62 65 65 64 63 63 58 61 60 61 60 60 60 61 61 59 57 57 55 55 54 54 52 51 50 48 48 47 47 46 45 44 43 47
63 62 62 62 62 62 63 63 63 64 65 65 65 65 64 65 62 63 63 62 62 62 63 61 59 56 56 54 53 53 50 49 49 48 47 47 46 47 47 45 43 40 42
64 64 65 65 64 64 64 64 65 65 66 66 66 66 64 64 64 63 61 61 60 61 58 58 57 56 55 54 52 50 48 48 47 47 46 46 46 46 46 46 45 42 37
65 66 66 66 67 67 66 66 66 67 67 67 67 66 66 63 64 60 57 58 57 56 57 55 54 54 53 52 51 48 47 47 46 46 45 45 45 45 45 44 44 44 42
63 66 67 68 68 69 68 67 67 67 66 68 67 66 66 66 62 59 58 58 58 58 58 56 54 54 53 51 49 47 46 46 45 45 45 45 45 44 43 44 44 43 39
63 65 68 68 68 68 69 68 68 68 66 62 62 61 60 60 60 60 59 59 58 57 56 55 54 52 50 49 47 45 45 44 44 44 44 44 46 44 43 42 41 38 38
64 62 62 64 69 68 69 69 68 65 63 61 61 59 59 60 59 59 58 57 56 56 53 52 50 49 48 46 45 45 45 45 45 45 44 44 44 43 42 40 40 43 45
65 63 62 59 58 58 62 66 65 64 64 61 57 56 55 56 57 56 54 54 54 51 50 50 49 47 45 45 45 46 45 45 45 45 45 45 45 43 42 42 42 40 36
63 63 60 55 54 55 55 55 54 53 55 53 52 50 50 50 49 49 49 49 48 48 48 46 45 45 45 45 45 45 44 44 44 45 46 45 44 44 42 42 36 35 35
62 63 61 56 53 54 53 53 52 51 52 51 49 49 48 48 48 47 46 46 45 45 45 44 44 43 45 40 41 43 44 44 44 42 42 39 39 38 38 38 38 36 31
60 59 60 58 53 53 52 51 51 52 51 49 49 49 48 47 46 46 45 44 44 44 43 43 43 43 43 41 41 40 43 41 39 35 35 38 39 35 34 34 34 34 35
60 59 57 53 51 52 52 51 52 51 50 49 49 48 48 46 46 46 45 44 43 42 42 42 43 43 44 40 39 37 38 35 34 33 33 31 31 32 32 30 28 28 29
56 55 54 51 50 49 51 51 50 51 50 49 48 48 48 46 46 44 43 42 41 42 43 44 44 41 40 38 36 36 32 31 31 32 32 31 30 33 34 29 27 27 28
55 53 52 52 51 50 51 49 49 49 49 49 49 49 49 47 45 43 42 40 41 43 45 42 40 38 35 36 36 34 29 27 27 29 30 32 30 32 32 27 26 25 27
54 54 53 51 50 51 51 49 49 48 51 51 50 49 47 44 42 42 41 40 39 38 34 33 34 32 33 33 35 34 28 27 27 27 26 26 30 31 32 32 27 28 29
53 53 51 49 50 51 50 47 46 49 50 48 46 45 44 45 43 41 39 39 37 33 31 30 27 28 29 33 33 33 31 29 27 26 26 25 30 31 31 29 31 30 27
51 52 50 48 49 50 50 46 46 47 46 45 44 43 43 42 41 38 36 35 34 32 30 29 26 25 26 25 30 30 29 29 26 27 27 29 29 29 28 29 29 25 23
51 51 51 49 46 48 49 47 46 46 44 42 42 40 37 35 35 35 34 32 28 28 30 28 26 25 24 24 24 25 24 27 27 26 26 24 25 24 24 24 25 24 22
50 51 49 47 45 46 45 46 45 45 42 41 39 35 33 32 31 29 29 28 28 29 29 27 27 23 21 25 26 27 26 23 26 23 22 23 22 21 22 22 21 21 20
49 46 45 43 40 41 42 44 45 44 40 36 34 32 31 30 31 30 29 32 32 32 32 30 27 27 28 28 28 29 28 29 28 23 19 16 12 15 18 17 17 18 17

GFSMW_sfc_temp_075.txt.gz
Temp
55 57 59 59 59 59 59 59 58 58 59 58 58 58 58 59 60 62 61 60 61 60 59 57 56 57 58 58 57 55 55 52 51 51 50 50 50 50 49 49 50 52 52
56 54 53 57 57 57 59 59 58 59 61 62 62 62 61 59 60 58 59 61 59 59 59 58 58 57 57 55 54 54 52 52 51 50 50 49 49 49 51 48 49 48 49
54 53 53 53 57 55 58 58 58 58 60 64 61 60 60 59 57 55 56 58 60 59 59 58 57 55 55 55 53 54 54 51 52 54 53 47 47 49 49 49 51 52 50
55 55 53 51 52 55 55 57 58 58 59 59 59 59 57 56 57 57 57 58 59 59 59 58 57 56 55 53 55 54 53 52 50 50 49 48 49 46 46 51 51 52 52
55 54 54 54 54 55 55 56 57 60 61 60 58 57 56 57 56 56 57 56 58 59 60 59 57 57 56 57 56 54 52 53 53 50 46 46 47 47 46 45 47 50 52
56 57 58 57 55 53 54 56 57 58 60 60 58 58 56 55 55 55 56 55 57 58 59 59 59 59 58 55 55 55 53 52 52 50 49 46 46 45 45 44 45 46 49
57 56 56 56 56 54 55 56 57 58 60 60 60 59 59 56 57 58 59 57 56 57 59 59 59 59 59 57 56 55 54 52 51 50 50 49 49 48 47 46 45 44 46
59 58 58 58 58 57 57 58 58 59 61 61 61 61 61 61 60 61 61 59 58 59 60 59 60 60 58 57 56 55 54 52 52 50 49 49 48 48 47 46 44 40 41
59 59 60 59 59 59 58 58 60 61 61 61 62 62 61 61 62 60 58 58 56 59 58 60 60 58 55 56 55 53 52 51 50 49 49 49 47 47 47 47 46 44 39
60 61 61 61 61 61 61 61 61 61 62 63 63 63 63 61 61 58 57 57 57 57 56 56 55 54 54 53 53 51 50 50 49 48 47 46 46 46 46 45 45 44 42
60 62 62 63 63 63 62 61 62 62 62 63 63 61 59 59 59 58 56 56 56 57 57 57 56 54 53 52 52 50 49 48 47 46 46 45 46 45 44 44 44 43 42
63 64 64 64 63 64 64 63 63 63 62 62 62 61 62 62 61 59 58 58 58 58 58 58 59 54 53 52 51 48 48 47 46 45 45 45 46 44 43 43 42 41 40
62 63 64 64 64 64 65 65 64 63 63 62 63 63 62 62 61 58 58 58 59 59 59 57 55 54 52 50 49 48 47 46 46 45 45 44 44 43 42 42 41 41 43
61 62 63 64 65 65 65 65 63 62 62 62 62 61 61 59 59 59 59 59 59 58 54 55 53 50 48 47 47 47 45 45 45 45 45 45 44 43 42 42 41 41 38
58 59 60 58 56 57 58 61 60 60 61 61 60 58 54 54 54 55 57 54 53 53 51 49 47 46 46 46 46 45 45 44 43 44 45 45 43 41 41 42 36 34 30
61 59 58 55 54 54 52 52 53 53 55 53 53 51 51 50 49 49 48 47 47 47 47 45 45 44 45 42 41 43 44 44 43 42 41 39 39 38 37 37 37 34 29
61 58 59 57 54 52 54 54 52 53 52 52 50 50 49 48 47 47 46 45 46 46 44 43 44 43 42 40 41 41 44 42 40 38 38 39 37 34 32 34 33 33 34
60 60 60 54 52 52 54 52 52 52 51 50 50 50 49 47 47 46 45 44 44 43 43 43 43 43 42 39 39 38 39 37 36 35 34 33 30 32 31 29 27 28 28
60 56 54 52 54 54 52 52 51 51 50 49 49 49 48 46 46 44 43 43 42 42 43 43 43 43 41 37 37 37 35 34 32 32 31 30 29 33 33 29 27 26 28
53 51 50 52 52 52 52 51 50 50 49 49 48 48 48 46 44 43 42 43 44 43 43 40 39 38 37 37 36 35 32 29 28 30 30 31 30 31 32 28 26 25 26
53 51 50 49 50 51 52 50 50 49 50 50 49 48 47 45 44 43 42 43 42 39 35 32 33 34 34 34 35 34 29 28 28 27 26 27 30 31 32 31 28 27 26
50 50 49 48 49 49 49 47 48 50 50 49 46 45 44 44 43 42 40 39 37 34 32 30 29 29 31 33 33 33 31 31 28 28 27 27 30 31 31 28 29 28 25
49 49 49 47 48 49 49 45 45 48 47 45 43 42 42 41 39 39 36 34 34 31 30 29 27 25 26 27 31 31 30 29 27 28 28 29 29 29 28 28 27 25 22
48 49 48 46 44 47 47 46 45 45 44 41 39 39 37 35 35 35 35 34 32 31 30 27 25 24 24 25 26 26 26 28 28 26 27 25 26 25 25 25 24 23 21
47 48 47 44 43 45 45 45 45 44 40 38 37 35 33 32 31 31 32 31 30 32 30 29 28 23 23 25 27 27 26 25 26 24 24 23 22 21 22 21 21 21 20
46 43 41 41 41 42 41 42 43 42 38 35 34 32 32 31 32 30 29 32 32 32 32 30 27 28 29 28 28 29 29 29 28 23 19 16 15 16 18 18 17 18 17

GFSMW_sfc_temp_078.txt.gz
Temp
55 59 59 57 58 59 59 59 58 58 58 57 57 57 58 59 60 61 61 58 60 59 58 56 55 56 56 55 55 55 55 52 52 52 51 50 51 50 50 50 51 52 53
55 57 58 57 57 58 59 59 58 58 59 60 59 58 58 58 61 61 61 62 59 58 58 56 56 56 55 54 54 54 51 52 51 50 49 48 51 49 52 52 52 52 53
56 55 56 57 57 57 58 59 59 59 60 61 58 58 58 57 57 56 57 57 58 58 58 57 56 56 55 55 53 53 53 51 50 51 51 46 46 47 50 52 52 52 51
55 56 56 56 57 57 60 60 60 59 61 62 60 58 59 58 59 56 57 57 58 58 60 59 58 57 55 53 54 54 52 52 49 49 50 49 50 47 48 49 52 51 52
54 53 54 55 57 58 56 55 57 57 59 60 62 59 56 58 57 57 56 56 57 58 59 58 56 55 55 55 53 52 52 52 51 49 46 46 47 48 47 48 47 50 51
54 55 55 54 53 55 54 53 55 56 58 58 56 58 55 56 55 55 56 57 56 57 57 58 57 57 56 54 55 53 52 52 51 49 49 49 48 47 46 45 47 47 50
53 54 53 52 52 51 52 53 54 55 57 57 58 56 57 55 56 56 57 53 55 54 56 56 55 56 57 56 55 54 53 52 53 52 52 51 51 50 48 47 47 46 47
55 55 55 55 53 53 53 54 54 55 56 57 58 59 56 58 57 56 55 54 54 55 56 57 57 58 58 57 56 56 55 54 53 53 52 52 52 50 49 49 47 41 42
54 55 56 57 56 54 54 54 55 57 57 57 58 59 57 56 56 56 55 55 55 56 55 56 57 56 56 56 55 56 55 54 54 53 52 50 50 49 48 48 48 46 40
54 56 56 57 58 58 57 56 57 57 58 58 58 59 57 56 56 56 55 55 56 56 56 56 56 55 54 55 55 55 54 52 52 52 51 50 48 48 47 48 47 46 44
54 56 57 58 59 59 57 56 57 57 57 59 59 56 56 56 57 58 59 58 58 57 58 59 58 56 55 55 54 54 52 51 51 50 50 49 48 46 45 45 45 44 43
55 57 58 59 58 58 58 57 58 58 58 58 59 59 60 60 60 61 62 61 59 58 58 57 57 57 56 54 53 52 50 50 48 48 48 46 47 44 45 44 43 42 42
55 56 57 57 59 59 59 59 59 58 59 59 60 60 60 61 61 60 60 58 58 57 57 58 57 57 54 52 52 52 50 49 49 48 47 46 45 43 43 43 42 41 43
56 56 56 57 59 60 60 60 59 59 59 59 59 59 59 60 59 56 55 57 57 57 57 57 55 53 52 51 50 49 47 47 48 48 47 46 45 43 43 43 41 41 39
57 56 56 56 58 57 57 59 59 59 59 59 59 59 60 60 58 55 55 55 55 57 56 52 50 49 48 48 47 47 46 45 45 45 45 44 43 41 41 42 37 36 35
58 57 57 56 55 55 54 54 55 56 58 58 57 59 56 55 54 53 52 52 51 50 50 49 48 47 46 41 42 44 45 45 44 40 38 38 37 37 37 37 36 35 33
60 61 60 60 59 53 52 51 52 51 55 56 55 53 52 51 50 49 48 47 46 46 45 45 45 44 43 41 41 41 44 43 40 37 37 37 36 35 34 34 34 34 34
60 59 60 57 51 51 50 52 53 52 52 52 51 50 50 48 47 47 46 44 44 44 43 43 43 43 41 39 39 38 38 36 35 35 35 34 33 33 33 32 31 30 31
63 60 59 50 51 52 52 52 52 51 51 50 49 49 49 47 46 45 43 43 43 43 43 43 43 41 39 37 37 37 35 34 33 33 34 33 32 33 33 30 29 29 30
54 50 50 51 51 51 52 51 50 50 49 49 48 48 48 47 44 43 42 43 43 42 40 38 39 37 36 36 36 35 33 31 30 32 32 32 31 32 32 29 28 26 27
49 49 51 51 50 52 52 50 50 48 49 49 48 47 46 44 44 43 43 43 39 36 34 32 33 33 34 34 35 35 32 31 30 29 28 28 31 32 32 30 28 27 27
49 49 49 50 52 53 52 49 48 49 49 47 45 44 44 44 43 41 39 38 36 33 31 30 29 30 31 33 33 33 32 32 29 28 28 28 31 31 30 29 29 27 25
50 49 48 48 48 50 51 47 47 47 46 44 42 41 41 41 41 39 36 35 34 32 31 30 28 27 28 30 32 31 30 30 28 28 28 29 29 30 28 28 27 25 23
47 48 48 46 45 46 45 44 45 46 43 41 39 39 37 36 36 36 36 35 33 31 31 30 28 26 26 26 26 26 27 28 27 26 27 26 26 25 25 25 25 23 22
46 46 45 44 43 44 43 43 42 43 41 39 38 35 35 34 32 31 32 31 31 33 31 29 27 24 23 25 27 27 26 25 26 24 24 23 22 22 22 22 22 21 20
43 41 41 39 38 38 39 40 41 40 36 33 31 31 31 31 31 29 28 31 30 31 30 30 28 27 28 29 30 30 30 29 28 23 20 17 16 17 19 18 18 19 18

GFSMW_sfc_temp_081.txt.gz
Temp
64 64 61 61 60 60 60 59 57 58 59 58 58 58 58 59 59 62 63 65 66 66 65 66 64 62 65 64 63 64 62 62 63 62 63 63 63 63 65 66 65 65 66
59 60 60 59 59 59 60 59 59 59 60 59 59 60 59 59 60 60 61 65 66 65 66 65 65 65 66 64 63 63 63 65 63 64 64 61 63 64 65 66 64 58 56
60 58 58 57 58 58 60 59 60 60 60 60 58 58 58 58 58 59 60 65 65 67 67 66 66 65 65 65 63 64 64 64 63 63 66 59 59 62 64 62 63 62 58
63 62 59 57 58 60 60 61 60 60 61 59 59 58 60 58 61 60 64 67 66 66 67 66 66 65 65 65 64 64 64 64 61 59 60 61 62 60 59 58 62 62 62
64 63 60 61 60 61 60 60 61 61 62 61 61 59 59 62 65 64 65 65 65 66 67 66 65 65 65 65 64 63 62 63 63 61 59 58 58 58 57 54 53 61 60
64 65 64 62 59 61 60 60 60 62 63 63 63 61 62 63 62 62 65 65 66 65 66 66 66 65 65 64 63 63 63 62 62 63 60 61 57 55 55 50 52 59 62
63 63 60 57 57 58 58 58 59 60 62 62 62 63 63 64 64 65 66 65 64 64 65 65 65 64 65 65 65 64 62 62 62 62 61 59 55 55 54 52 56 52 58
63 63 63 61 59 56 57 57 59 61 62 62 62 62 64 64 65 64 65 64 66 66 66 65 66 65 66 65 65 64 64 63 61 61 60 59 53 53 54 54 52 44 48
62 63 63 63 62 59 57 57 61 62 62 62 63 63 63 64 64 64 65 64 65 65 64 65 65 65 65 65 65 63 63 62 61 60 60 56 57 55 54 53 52 50 44
62 63 63 63 63 63 61 60 61 62 63 63 63 63 63 64 65 64 63 63 64 64 64 63 65 65 65 65 64 62 63 60 58 58 57 56 54 53 51 50 49 52 52
62 63 64 65 64 64 63 61 62 62 62 63 63 63 64 64 64 63 63 64 65 65 64 64 65 65 64 63 60 59 57 56 56 54 52 52 54 50 48 49 47 49 50
64 64 64 64 64 64 63 63 63 63 63 62 62 61 62 63 63 62 64 65 65 65 64 65 64 65 62 60 56 57 55 54 53 52 51 52 49 47 46 46 45 47 49
63 64 63 63 63 64 63 64 63 63 63 62 60 59 60 60 61 62 63 66 65 65 63 63 63 63 63 61 57 56 55 53 53 53 51 50 47 45 45 45 47 44 44
63 64 64 64 64 64 64 64 63 63 63 63 62 61 60 63 62 62 63 65 65 65 64 62 61 62 62 59 57 55 54 53 52 50 50 49 47 45 45 44 43 45 43
64 63 65 65 65 64 63 64 64 63 63 63 63 62 63 63 65 65 63 64 63 64 64 63 62 61 57 54 53 52 50 49 47 46 46 46 46 44 43 45 42 42 38
65 65 65 64 63 63 64 63 63 63 63 63 62 64 64 65 64 63 61 59 59 61 61 59 57 52 51 45 44 47 47 46 45 40 40 39 38 37 37 37 37 38 37
66 65 66 65 65 65 63 63 63 63 62 62 63 63 63 63 63 61 56 56 55 52 50 48 48 47 45 40 41 41 46 44 40 38 37 37 36 37 35 34 34 35 34
65 66 66 66 65 63 63 62 63 62 62 62 62 62 60 57 52 52 51 48 47 46 45 45 44 43 41 39 39 38 40 38 36 36 35 34 34 34 34 34 33 34 34
65 67 68 65 60 59 58 59 58 59 59 57 54 53 53 51 50 48 46 45 44 44 43 44 43 40 37 37 37 37 35 34 33 34 35 34 34 32 35 34 33 33 33
62 63 63 59 59 57 58 57 54 53 52 51 51 52 51 49 47 45 44 44 43 41 40 38 38 37 36 36 36 36 34 31 31 32 32 32 34 32 32 33 33 32 33
56 54 56 56 57 57 57 54 53 50 50 50 49 48 47 46 45 44 43 41 38 35 34 32 33 34 35 35 36 36 34 32 31 31 30 32 32 33 32 32 34 31 32
51 53 53 52 54 56 55 52 49 49 49 48 46 45 44 44 43 41 39 38 36 33 31 30 30 31 32 33 34 34 34 34 31 30 30 32 32 32 30 31 29 27 28
50 51 50 50 52 53 53 47 47 47 45 44 42 41 41 41 41 38 36 35 35 33 32 30 28 28 29 30 31 31 31 30 30 32 31 31 31 30 29 28 27 26 28
48 48 47 45 44 47 48 47 46 46 44 41 40 39 38 36 37 37 37 35 34 32 32 30 28 27 27 28 28 28 29 30 31 29 30 29 29 29 28 29 28 28 27
47 47 45 43 42 43 43 45 45 46 42 40 38 36 35 34 31 31 32 32 32 34 31 29 28 27 28 28 29 29 29 30 29 29 29 29 29 28 28 27 26 27 26
42 40 39 38 38 39 40 41 43 42 38 35 35 34 33 32 32 31 29 31 31 31 31 30 31 29 29 29 30 30 30 29 28 29 27 25 24 24 24 24 24 24 22

GFSMW_sfc_temp_084.txt.gz
Temp
76 76 68 66 67 67 61 59 58 62 63 59 59 59 58 59 60 63 65 66 71 71 72 73 72 73 71 72 71 72 69 70 71 71 71 68 71 70 72 73 74 73 73
73 73 68 67 66 66 62 59 59 59 60 62 61 60 60 60 61 63 65 66 66 68 72 72 71 70 69 68 69 70 69 71 70 67 68 65 68 70 71 74 73 72 74
74 71 68 67 67 67 63 60 60 60 61 61 60 59 60 60 59 62 62 66 68 70 71 70 71 68 73 71 70 69 70 69 70 69 70 65 64 70 73 70 72 70 68
77 73 70 67 67 67 66 63 61 62 62 62 60 58 58 58 61 64 64 65 69 70 73 73 72 72 73 72 71 72 71 70 68 69 71 71 71 67 62 71 68 69 64
78 75 72 70 70 68 66 64 62 62 62 62 60 59 58 62 64 63 62 63 67 70 72 73 72 72 73 72 71 71 69 71 69 71 71 68 69 68 66 62 63 67 67
78 78 75 71 71 68 65 65 62 62 61 62 62 61 61 60 60 61 61 66 71 73 72 74 72 72 72 71 71 71 70 69 70 70 70 69 67 67 66 63 62 60 68
78 77 74 71 70 66 64 64 63 62 62 61 62 64 63 62 60 65 64 65 72 73 72 72 71 72 71 71 71 70 70 70 69 69 69 70 69 70 64 58 54 53 58
77 77 76 74 70 68 67 63 63 62 63 63 64 66 68 65 65 64 64 71 72 73 72 71 71 72 72 71 71 71 71 70 69 68 69 69 69 66 64 59 53 49 50
78 77 77 74 71 69 68 63 63 65 66 65 66 67 68 69 70 69 69 71 73 73 72 72 71 71 72 72 72 70 70 70 69 69 68 67 68 66 66 62 58 51 45
78 78 77 75 73 71 69 66 67 68 71 69 68 69 69 69 71 71 70 71 72 72 72 71 71 72 72 72 71 71 71 69 70 68 66 64 64 62 59 56 55 53 52
77 77 78 77 76 74 71 68 69 71 72 71 71 69 69 69 70 70 70 71 71 71 71 71 71 71 71 72 71 70 70 69 68 66 62 62 60 54 53 55 52 51 51
76 77 77 77 75 74 73 70 71 72 72 71 71 70 70 70 69 69 70 71 70 71 71 71 72 71 72 72 71 69 69 65 63 59 57 55 54 53 53 52 50 49 51
75 76 75 75 75 75 74 73 71 71 72 71 69 69 68 69 68 68 69 70 71 72 72 72 71 70 70 71 70 70 67 64 59 61 56 55 52 51 52 51 50 49 48
74 75 75 75 76 75 75 74 73 72 71 71 69 68 68 68 69 69 69 69 71 71 71 71 70 70 71 71 70 68 64 61 60 58 56 54 51 50 48 46 48 45 44
76 74 74 75 76 75 75 75 74 73 72 70 69 68 68 69 69 69 69 68 69 71 71 71 71 70 68 68 68 66 61 61 57 53 51 49 48 45 46 47 45 44 40
75 76 75 76 75 74 75 74 73 72 72 71 70 71 70 70 70 70 70 69 68 69 69 68 68 68 68 50 45 53 55 51 48 42 41 40 40 38 37 37 37 40 39
72 72 75 76 76 75 74 74 74 74 71 71 71 71 71 71 71 71 71 70 67 66 65 66 66 61 53 41 41 42 47 44 41 38 38 37 36 36 35 35 35 34 34
71 70 73 75 77 78 76 76 76 73 71 71 71 71 71 70 71 71 71 67 63 59 53 48 47 46 42 39 39 38 40 37 37 37 36 35 34 34 35 34 34 34 35
69 72 73 74 76 78 79 75 75 73 71 70 71 71 70 69 67 62 58 54 49 47 45 45 43 40 38 37 37 37 35 33 33 34 34 34 33 33 36 35 33 33 34
68 63 63 68 70 69 71 73 73 72 70 70 70 66 62 59 57 51 47 45 44 41 40 38 38 36 36 36 36 36 34 32 31 32 32 34 33 32 34 35 36 36 39
63 61 61 63 67 67 68 68 68 66 64 61 59 57 55 51 47 45 43 41 38 36 34 33 33 34 35 35 36 36 34 32 31 32 32 32 32 33 33 35 37 36 38
55 59 58 57 60 64 65 61 55 54 53 51 48 46 46 45 43 41 39 38 36 33 32 31 30 31 32 34 34 35 34 35 32 32 33 33 33 32 32 33 28 28 30
51 54 52 51 53 57 57 49 47 48 46 45 43 42 42 42 41 39 37 35 35 33 31 30 28 28 30 31 32 32 32 32 33 34 33 32 32 30 30 28 27 27 33
48 49 47 45 44 47 47 46 46 46 43 41 40 40 38 38 39 38 38 36 34 33 31 30 28 28 29 29 30 30 29 30 30 31 33 32 32 30 31 31 31 34 32
46 45 43 42 41 43 44 45 44 43 40 38 37 35 34 34 32 32 33 32 33 34 31 29 29 28 28 29 31 32 33 32 31 33 34 35 35 34 34 33 31 32 31
41 38 38 37 38 39 41 43 44 43 40 37 35 34 33 33 33 32 30 32 31 32 32 32 32 31 30 31 31 31 30 30 29 33 31 29 29 29 29 28 28 28 27

GFSMW_sfc_temp_090.txt.gz
Temp
84 83 80 77 76 69 65 61 62 61 60 58 57 56 56 56 57 57 59 59 59 61 60 59 59 61 61 63 63 63 63 63 64 61 61 62 64 63 63 64 64 65 65
83 80 77 74 73 68 63 61 62 62 60 60 59 59 58 58 57 57 58 59 59 60 60 59 60 61 61 61 62 62 60 61 62 60 60 54 58 61 63 62 64 62 64
81 78 75 72 71 66 62 61 63 63 61 60 59 58 58 57 56 57 57 59 59 60 61 60 63 60 62 62 61 62 61 59 61 63 59 55 52 55 60 60 61 61 61
83 79 76 71 69 68 64 63 63 63 61 61 59 58 57 55 57 58 61 64 63 63 65 64 65 64 65 63 63 65 63 62 60 60 62 59 59 55 53 60 62 61 62
82 79 77 73 71 70 65 63 63 63 62 61 60 58 57 59 58 59 60 62 63 64 65 66 65 63 64 64 62 63 63 62 60 59 58 58 58 58 55 52 55 61 61
82 81 79 75 72 71 67 63 62 62 62 61 61 59 58 58 57 58 59 61 63 63 63 65 63 63 64 63 65 62 63 62 61 61 61 60 57 57 55 53 55 55 57
81 80 76 75 73 69 66 64 63 61 62 61 60 60 59 59 59 59 61 61 62 61 61 63 62 64 65 66 65 63 62 62 60 61 60 61 61 61 59 56 55 54 56
80 80 78 75 74 70 67 65 64 62 62 61 61 61 61 59 60 61 62 62 62 63 63 63 64 65 66 64 64 62 62 62 61 61 60 61 61 61 60 58 54 51 52
81 81 79 76 74 71 68 64 64 63 62 61 62 61 61 61 62 62 63 62 62 63 62 63 63 63 64 64 63 63 62 62 62 62 61 61 62 60 60 59 58 55 51
81 80 81 76 75 73 69 65 65 63 63 62 62 63 62 62 63 63 62 62 63 63 63 63 63 64 65 65 64 63 63 63 63 63 62 61 62 60 60 60 57 57 56
79 80 80 77 76 74 70 66 65 65 63 63 63 63 63 62 63 63 63 63 63 63 63 64 64 65 65 64 64 64 63 63 63 62 62 61 61 60 59 59 60 57 56
79 81 81 77 76 73 71 68 66 66 65 64 63 63 63 64 63 63 63 64 63 64 64 65 66 67 66 65 64 63 64 63 61 62 60 61 62 60 60 59 56 55 56
79 81 80 79 76 73 73 70 68 68 68 65 64 63 63 64 63 64 64 65 65 64 65 66 66 67 66 66 65 65 64 63 63 62 61 62 61 59 59 56 56 55 54
77 79 79 79 77 75 74 72 69 69 69 67 65 63 63 64 65 65 66 66 66 66 65 66 67 67 67 67 66 66 64 63 63 63 62 61 59 57 56 55 55 54 51
78 78 77 77 78 76 74 74 71 70 70 70 67 65 65 65 65 66 66 66 66 67 67 66 67 67 67 67 65 65 64 63 61 60 58 49 45 44 48 52 51 48 46
78 79 79 79 78 78 76 75 73 70 71 70 69 69 68 67 66 66 66 66 65 66 66 66 66 65 67 55 51 57 60 59 56 47 41 40 39 38 38 38 37 40 41
76 76 75 77 78 77 76 75 74 73 71 70 71 70 70 68 67 68 67 66 64 64 64 64 64 64 63 43 43 42 51 47 43 40 38 37 37 37 36 36 35 34 34
72 73 72 72 73 75 77 77 78 75 71 71 71 71 70 68 68 68 67 66 65 63 63 63 62 50 43 39 39 39 40 37 37 37 36 35 34 35 35 34 33 32 32
70 69 70 70 70 70 75 77 77 76 74 71 71 71 70 69 67 66 65 64 63 62 54 48 45 40 38 38 38 38 36 34 34 35 35 34 33 35 37 33 31 30 30
68 67 68 68 68 70 72 72 75 74 74 73 72 72 71 69 66 65 62 52 47 42 40 37 37 36 36 37 38 37 34 32 31 31 32 33 33 34 35 33 33 31 32
66 65 64 61 61 64 67 67 66 67 72 71 67 61 60 58 52 47 45 42 39 36 34 33 33 34 34 35 36 36 34 32 31 30 29 30 33 32 32 32 30 30 32
59 57 55 52 53 57 59 54 50 52 52 50 47 47 47 46 44 40 39 38 36 34 32 31 30 31 32 33 34 34 34 33 31 29 30 30 32 32 31 30 31 32 32
50 49 47 45 45 47 49 47 45 46 45 43 41 41 41 40 40 39 37 35 34 31 30 29 28 28 30 31 33 33 33 33 31 30 30 30 31 31 30 31 31 31 29
42 43 41 39 38 41 42 41 42 42 40 38 36 36 35 35 36 36 35 34 32 30 30 29 28 28 29 29 30 30 30 31 30 29 30 30 29 30 29 29 31 29 26
39 38 37 36 36 38 38 39 38 38 35 34 33 32 32 31 31 31 31 30 31 31 30 29 29 28 27 29 31 31 30 29 29 29 29 29 30 29 29 28 28 27 26
35 35 35 34 34 35 35 36 36 36 34 32 31 30 30 30 30 29 28 31 30 31 31 30 29 28 29 30 30 30 30 31 32 29 27 25 25 25 25 24 24 24 22

GFSMW_sfc_temp_093.txt.gz
Temp
71 73 71 67 61 59 58 58 58 59 59 57 57 56 55 56 57 59 60 61 63 62 62 61 60 66 64 63 63 61 62 60 61 60 59 59 60 61 60 63 62 61 62
69 70 69 62 60 58 58 58 59 60 59 58 58 57 56 57 56 57 57 58 60 61 60 60 59 62 63 60 60 61 58 60 59 58 56 53 57 57 59 59 62 61 63
68 67 67 62 58 57 57 58 60 60 60 59 58 57 56 56 55 54 55 57 58 60 59 58 58 59 60 59 59 60 60 59 57 61 57 50 49 53 56 57 58 58 57
71 68 66 61 57 57 58 59 61 60 60 59 57 55 55 53 55 56 56 56 57 58 59 59 59 58 59 59 60 61 60 58 57 56 60 58 56 51 50 55 57 57 58
70 66 66 65 59 58 57 59 62 60 59 59 58 56 55 56 57 56 55 56 57 58 58 59 59 59 60 60 60 59 59 58 56 56 56 56 55 55 53 50 53 55 56
70 67 67 66 60 59 58 59 61 60 60 59 59 56 55 56 56 56 57 57 59 60 60 60 61 60 62 61 62 59 59 58 58 58 58 57 54 53 52 50 51 52 54
69 67 64 63 61 58 57 58 60 59 60 59 58 59 58 57 57 58 58 58 58 59 59 61 61 61 62 61 62 60 60 59 58 58 58 58 57 57 56 53 52 51 53
70 67 65 64 63 60 58 59 60 59 60 60 59 60 60 59 59 59 59 60 60 60 60 59 61 62 61 61 60 61 61 59 59 58 59 59 58 58 58 56 53 49 50
70 69 67 66 64 61 59 58 59 60 60 60 60 60 60 60 59 59 59 60 61 62 58 59 60 60 62 62 61 60 60 60 60 60 59 57 57 57 57 56 55 53 49
70 69 69 67 65 63 61 61 61 61 61 61 61 61 60 61 60 61 59 61 61 63 59 60 59 60 61 61 61 60 60 59 58 60 58 58 58 57 57 56 56 56 56
67 68 70 69 67 64 62 61 62 62 61 61 61 61 60 61 61 61 61 61 60 61 61 60 60 60 61 62 60 59 59 59 59 58 57 59 57 58 57 57 58 57 56
69 67 71 69 66 64 61 60 61 61 61 62 62 61 61 61 60 61 61 61 60 60 62 62 62 61 62 63 62 60 61 59 59 58 56 58 58 57 58 57 58 57 57
68 67 70 69 66 64 62 61 61 61 63 63 61 61 61 60 60 59 61 62 61 60 61 63 61 62 62 63 62 61 60 59 59 59 57 59 57 58 58 56 57 56 55
70 67 68 69 68 66 64 62 61 62 62 61 61 60 61 61 61 60 60 60 61 61 60 62 61 62 63 63 62 62 61 60 60 59 58 59 58 58 57 55 55 55 53
72 70 66 69 68 67 66 65 63 63 63 61 60 60 63 63 63 62 61 61 60 61 61 61 61 62 62 64 61 62 60 59 58 58 53 46 44 42 45 51 52 51 49
73 70 70 68 69 68 67 67 65 64 65 63 60 62 61 62 61 61 61 61 61 61 62 61 61 61 63 55 51 57 60 57 57 47 41 40 40 38 38 38 37 41 43
65 64 65 64 63 63 67 67 66 66 65 64 63 62 62 61 61 62 61 60 60 62 62 62 62 60 61 49 49 47 56 52 47 43 39 38 38 37 37 36 35 35 35
61 62 62 63 63 63 62 63 67 66 65 65 65 65 63 62 62 62 61 61 61 60 60 61 62 56 43 40 40 40 42 39 39 38 37 35 35 35 35 34 33 33 33
60 59 59 58 58 58 60 63 63 67 66 65 66 66 65 64 63 62 61 61 60 60 55 48 44 41 38 38 38 40 39 36 35 35 35 34 33 35 37 33 31 31 31
55 53 52 51 50 50 56 57 53 56 60 66 67 65 63 64 62 61 57 47 48 41 39 37 37 37 36 37 37 37 35 32 31 32 32 33 33 33 34 33 31 29 31
49 51 49 46 46 47 52 47 48 46 48 49 59 60 60 61 57 48 45 42 39 36 34 33 33 34 35 35 36 36 34 32 30 30 30 30 31 32 32 32 30 29 31
45 46 44 42 44 44 46 43 42 45 45 45 44 45 47 46 44 42 40 39 37 34 32 31 30 31 32 34 35 34 33 33 30 29 29 29 31 31 31 31 31 30 30
41 42 40 40 41 42 41 38 39 40 41 40 39 39 41 42 42 39 35 34 35 33 31 30 29 29 31 31 33 32 31 31 29 30 30 30 30 30 30 30 29 28 27
37 39 39 37 37 39 39 38 37 37 35 34 34 35 35 34 35 36 36 34 33 31 30 29 28 28 28 29 30 30 30 31 30 30 30 28 28 28 28 28 29 28 26
35 35 34 33 33 36 37 37 37 36 33 32 32 31 31 31 30 30 31 30 30 31 30 29 29 28 28 29 31 31 29 29 29 28 28 28 27 26 26 25 25 25 24
32 31 31 31 31 32 33 35 37 36 33 30 30 29 29 28 29 28 28 31 30 31 31 30 30 30 31 32 32 32 31 31 30 27 24 23 23 22 22 21 21 21 21

GFSMW_sfc_temp_096.txt.gz
Temp
65 68 64 61 59 59 58 58 58 59 59 58 57 57 57 57 58 60 62 63 64 63 61 61 61 64 63 63 63 62 61 59 59 58 57 57 59 59 60 61 59 60 59
63 65 62 58 58 57 58 57 58 58 59 59 58 57 57 56 57 57 59 62 63 62 62 61 61 64 63 62 62 62 57 58 60 59 55 52 55 57 58 58 58 57 60
64 63 59 57 56 56 56 57 57 58 59 58 57 56 55 55 54 55 56 58 62 62 62 61 62 63 63 62 63 63 62 60 57 62 56 50 49 53 56 56 58 58 57
68 64 60 56 56 56 57 57 58 59 59 57 57 55 54 53 55 55 55 56 59 61 61 61 62 62 63 61 62 62 61 62 59 55 58 56 54 51 50 55 56 57 58
67 64 60 57 57 56 56 57 58 60 59 57 57 56 55 56 55 55 55 55 56 58 60 60 60 59 60 59 60 58 57 58 55 55 55 55 55 55 52 50 52 55 57
66 66 64 59 57 56 56 56 58 59 58 58 57 56 55 55 54 54 54 55 56 56 57 58 58 59 58 57 58 58 58 57 57 57 56 56 55 54 53 51 51 53 53
65 64 59 55 56 55 55 56 57 57 58 57 57 54 55 54 55 55 55 55 55 55 55 56 55 56 58 58 59 58 58 57 56 57 57 57 58 57 55 53 51 51 52
65 63 60 57 56 56 56 57 57 58 58 57 57 56 55 56 57 57 57 57 57 56 56 57 57 57 59 59 58 59 59 58 58 57 57 57 57 57 56 54 51 48 49
66 63 62 59 57 56 56 57 57 59 59 57 58 58 56 57 58 58 59 58 58 59 59 59 58 59 58 59 60 59 58 58 58 58 58 57 58 56 56 55 54 52 47
64 64 63 61 59 58 58 58 58 58 60 59 59 59 57 58 59 59 56 58 58 60 57 58 58 59 59 60 61 59 58 58 58 58 57 57 56 56 56 56 54 53 54
63 64 64 63 62 59 58 57 58 58 60 60 60 59 59 59 59 59 59 58 59 59 58 59 58 59 60 60 59 60 60 58 57 57 57 58 58 57 56 55 55 55 54
65 66 65 64 60 58 58 58 58 58 59 60 61 60 60 60 59 59 59 60 59 59 60 59 59 58 59 58 58 59 60 59 57 58 57 57 57 55 57 57 56 55 56
66 64 66 64 60 59 59 59 59 59 60 60 60 60 59 59 59 59 60 60 59 58 59 60 59 59 59 58 59 61 60 59 59 59 57 58 56 56 57 56 56 56 56
68 62 64 64 62 60 59 59 59 59 60 60 60 59 59 60 59 60 60 60 59 58 58 59 59 60 60 61 60 60 59 59 60 59 58 58 57 57 57 56 57 57 55
66 63 61 63 62 60 60 60 59 59 59 59 60 61 61 61 61 60 60 60 59 58 59 59 59 59 60 61 60 61 60 60 59 57 56 55 50 43 46 54 56 54 53
60 61 62 62 63 62 60 60 59 59 60 59 59 61 61 61 60 60 59 59 58 59 58 58 58 57 60 52 48 54 57 56 56 55 43 41 40 38 38 39 38 39 46
56 57 56 57 57 57 61 60 59 60 59 59 59 59 60 60 61 61 60 59 59 59 57 57 57 57 58 48 48 46 58 56 55 49 42 39 38 37 37 36 36 35 35
51 51 50 51 51 52 56 58 64 62 60 60 59 60 59 59 60 60 61 60 60 59 58 57 58 58 57 46 46 44 50 41 40 41 40 38 37 36 36 35 33 33 33
49 48 48 48 48 49 51 52 51 57 61 61 61 60 59 59 59 58 59 60 59 59 59 59 58 58 42 39 40 42 38 35 34 35 36 35 35 35 37 33 30 30 30
48 47 46 46 46 47 49 48 47 47 48 49 51 57 61 60 59 59 58 58 58 55 46 42 40 39 38 38 39 40 35 33 32 32 32 33 33 32 33 32 31 29 29
45 47 46 44 43 45 47 44 43 42 44 46 46 48 50 54 57 58 52 45 42 41 39 37 36 35 35 36 37 38 36 33 31 31 30 31 32 32 32 32 30 29 30
42 43 42 40 41 42 43 40 38 40 41 41 39 39 41 45 45 43 41 40 39 35 33 32 31 32 33 34 34 34 33 33 30 28 29 31 32 32 31 30 30 30 29
38 40 38 37 38 39 39 36 36 38 37 36 35 35 36 37 39 40 38 36 36 34 32 31 29 29 31 32 32 33 32 31 29 30 31 31 31 30 28 29 29 27 26
34 36 36 34 34 36 37 36 36 36 35 33 32 32 31 31 33 34 35 34 32 32 31 30 29 28 29 29 30 30 30 31 30 29 28 28 28 27 27 25 25 24 24
33 33 32 32 32 34 34 36 36 35 33 32 32 31 30 30 30 30 31 31 31 32 30 29 29 28 27 28 30 30 29 28 28 28 28 26 25 24 23 22 23 23 23
30 30 30 30 30 32 32 34 34 33 31 29 28 29 30 29 30 29 28 32 31 32 32 32 31 31 32 32 32 31 31 30 29 26 23 22 21 21 21 19 19 19 19

GFSMW_sfc_temp_099.txt.gz
Temp
65 61 61 61 59 59 58 58 57 59 60 58 58 58 58 58 60 62 63 63 63 62 60 58 57 59 60 61 61 60 58 55 61 57 54 53 56 56 57 58 58 58 59
60 59 57 58 58 58 58 57 58 60 60 60 59 56 57 57 58 59 61 63 63 62 61 59 57 61 61 60 60 61 55 55 60 58 55 50 53 55 55 56 57 56 58
59 58 57 57 57 58 57 57 60 60 60 57 55 55 55 55 55 56 58 59 63 62 61 60 59 61 62 60 62 62 61 58 56 61 55 49 48 51 52 53 54 56 55
61 61 58 57 58 57 57 58 59 59 59 57 55 55 55 53 55 55 56 57 60 62 62 61 60 62 62 61 62 63 62 62 58 55 57 56 54 50 47 52 55 55 55
61 60 59 59 58 58 56 58 59 58 57 57 54 54 55 56 55 55 55 56 57 60 61 60 59 59 60 62 62 59 58 62 56 57 54 55 54 54 52 48 49 52 55
60 63 63 60 58 58 57 58 59 58 58 57 54 53 55 54 53 54 54 55 56 57 59 59 58 59 58 59 59 57 58 56 56 56 56 56 55 54 53 50 50 51 53
61 60 59 56 57 56 57 58 58 58 57 56 54 54 54 55 55 54 55 54 55 55 56 58 57 57 57 59 59 58 57 57 55 56 57 57 58 56 55 53 51 52 53
64 62 61 57 58 57 57 57 57 57 57 56 54 56 55 56 56 56 56 56 56 56 56 57 57 57 57 58 57 57 57 57 56 57 57 57 56 57 57 55 52 49 49
63 62 61 57 57 57 56 56 58 58 57 56 53 53 54 55 56 55 57 57 56 56 56 57 57 58 57 57 56 55 56 58 57 57 56 56 56 56 57 56 55 53 48
62 63 60 57 57 57 56 57 59 58 58 57 54 54 54 55 56 58 56 56 57 56 55 56 57 57 57 57 56 56 57 57 57 57 57 55 56 55 56 55 54 53 52
62 61 61 59 58 58 57 57 58 58 58 58 55 54 54 55 55 56 57 56 57 57 57 57 57 57 57 57 57 58 58 57 57 56 56 56 57 55 54 55 56 55 53
61 61 62 58 58 56 57 56 58 58 60 59 56 55 55 55 55 55 56 58 56 56 58 57 57 57 56 57 57 57 59 57 56 57 55 56 57 56 57 55 54 54 54
62 62 62 60 57 57 57 56 57 59 60 60 57 56 55 55 55 55 57 58 58 57 57 58 57 57 57 57 58 58 59 58 58 59 57 57 57 57 57 55 55 54 54
59 57 60 61 58 58 57 57 57 58 59 60 59 56 55 56 56 58 58 58 59 57 56 58 58 57 57 58 58 58 58 58 59 60 59 58 58 57 57 55 54 54 53
54 53 57 59 58 57 57 57 56 57 58 58 58 58 57 57 57 58 58 58 58 58 57 57 57 58 58 58 57 57 57 55 55 55 57 57 55 49 50 54 54 53 53
52 51 52 52 56 57 56 57 56 57 57 57 57 58 58 58 57 57 58 58 58 58 57 57 57 55 58 50 48 53 56 54 54 54 53 45 42 40 39 40 40 46 53
49 48 48 48 49 51 54 56 57 58 57 57 58 58 58 57 59 59 58 58 57 57 56 56 56 56 56 47 46 45 56 55 55 55 50 42 40 38 37 36 36 35 35
47 46 47 47 48 49 50 51 57 58 58 58 58 58 58 57 58 59 59 58 58 57 57 55 55 55 55 46 45 44 51 52 47 49 48 44 38 37 37 34 32 31 32
47 46 47 46 46 48 48 48 48 53 57 54 57 59 58 58 58 57 58 58 57 57 57 57 56 54 54 44 44 44 47 39 36 37 38 38 36 36 37 33 30 29 30
45 45 44 43 42 44 48 46 45 46 45 46 47 49 52 58 58 58 57 58 58 57 56 54 46 49 54 39 41 44 41 35 33 33 33 35 34 33 33 32 31 29 28
41 43 41 39 39 42 43 40 40 39 42 43 42 42 43 46 49 57 57 57 56 44 41 36 35 36 37 37 38 39 39 35 32 31 31 32 33 33 33 32 30 28 29
37 39 38 37 39 39 39 36 35 38 39 38 38 37 38 39 42 41 41 40 40 36 33 33 33 33 33 34 35 35 34 34 31 30 31 31 33 32 32 31 30 30 27
34 37 36 35 36 37 37 34 34 36 35 34 33 33 35 35 36 36 35 35 35 33 32 32 31 31 31 31 33 32 32 32 30 30 31 31 31 30 28 28 27 26 24
32 34 33 32 32 35 36 35 35 35 33 31 31 32 31 31 33 34 34 33 32 30 30 29 28 28 29 29 30 31 31 31 30 29 27 26 25 24 24 23 24 23 23
31 32 31 30 31 33 33 33 33 34 32 31 31 30 31 30 30 30 31 31 32 33 30 29 29 28 27 29 30 30 29 28 28 27 25 24 22 21 21 21 21 22 21
30 29 29 29 30 31 30 31 31 30 29 29 29 29 30 30 30 30 29 31 32 32 32 32 31 31 31 31 31 31 30 29 28 24 22 20 20 19 19 18 18 19 18

GFSMW_sfc_temp_102.txt.gz
Temp
62 62 60 59 57 57 58 59 59 58 58 59 59 58 59 60 61 62 63 63 63 61 60 58 57 57 57 57 58 56 57 57 59 55 52 53 55 56 56 57 57 59 59
61 60 57 55 56 57 58 60 59 59 59 60 60 59 59 58 59 61 62 63 63 61 60 59 57 57 56 56 57 58 57 57 59 56 53 50 53 55 56 56 56 55 58
58 60 57 54 54 57 59 60 58 60 60 60 58 56 56 56 56 57 59 61 63 61 61 59 57 57 57 56 57 58 59 56 58 60 54 49 48 51 54 55 56 56 55
63 59 58 54 55 57 60 60 58 59 60 59 57 56 54 53 55 57 57 58 61 61 61 59 57 56 58 58 60 61 61 60 56 59 57 56 54 50 48 53 54 56 56
60 60 59 58 57 57 59 59 60 59 59 58 57 56 57 57 55 55 56 57 58 60 61 59 57 56 58 61 61 60 59 61 59 58 54 54 54 54 52 48 50 53 56
59 61 63 57 56 58 58 60 59 58 58 57 57 55 53 54 54 54 54 56 57 59 60 60 59 57 58 59 61 59 59 58 60 57 56 56 55 54 53 51 51 52 52
57 59 61 54 55 57 57 59 58 56 57 55 55 52 53 54 54 55 55 55 55 56 59 59 57 57 59 58 58 57 57 57 57 57 56 57 58 57 55 54 51 51 52
57 59 61 59 56 57 57 58 58 57 57 56 55 53 53 54 54 55 56 56 56 56 57 58 57 57 58 58 57 57 56 56 56 56 56 56 57 58 57 55 53 50 50
56 58 62 61 57 57 57 58 59 58 57 57 55 53 53 54 54 54 55 56 57 56 56 57 57 57 57 57 57 57 57 56 55 56 56 57 57 56 57 56 55 53 49
55 57 62 57 59 59 59 59 59 58 57 57 56 53 53 53 53 53 53 56 56 56 56 56 56 56 57 57 57 56 57 55 55 56 56 56 56 56 56 56 55 54 53
54 56 61 60 58 59 58 57 59 59 57 57 56 52 52 52 53 53 54 55 56 56 56 57 57 56 56 57 57 57 56 55 55 57 57 56 56 55 55 55 55 54 53
54 58 59 59 57 57 57 57 59 58 58 57 55 52 52 53 52 53 54 56 54 56 56 56 57 57 57 57 57 56 57 56 56 56 56 57 56 55 55 54 54 55 55
54 55 54 57 56 57 57 58 58 58 58 58 56 53 52 52 52 53 53 55 54 54 56 57 56 56 56 56 57 57 57 57 57 56 56 57 56 56 56 55 54 54 54
53 52 52 57 57 57 58 57 57 58 59 59 57 54 52 53 53 53 53 54 55 56 54 56 56 56 56 56 56 57 57 56 58 57 56 57 56 57 56 56 56 55 53
51 50 49 50 55 57 57 57 57 58 58 58 57 56 53 54 53 53 53 53 54 55 56 55 55 55 55 56 56 57 57 57 57 58 57 56 55 51 53 55 55 54 53
48 48 48 48 49 50 56 56 56 57 58 57 57 57 56 54 53 53 53 54 55 56 56 56 55 53 56 48 46 52 55 55 55 55 55 55 48 48 40 39 37 39 51
46 45 45 45 46 48 49 53 57 57 57 57 57 57 57 56 54 54 55 56 56 56 56 56 56 56 56 46 46 45 54 53 53 54 52 47 43 41 38 36 35 34 34
43 43 43 43 44 47 47 50 56 57 57 56 57 57 57 57 57 56 56 57 57 56 55 55 55 55 55 45 45 43 52 51 51 52 52 49 43 40 37 34 32 31 31
42 42 42 41 42 44 46 47 47 49 50 50 51 52 55 57 57 56 56 56 56 55 55 55 54 53 54 44 44 43 50 49 44 42 43 46 41 37 37 33 30 29 30
41 40 40 40 39 41 43 42 41 41 41 42 43 45 47 49 52 56 56 57 56 55 54 54 51 48 52 44 43 44 51 44 35 34 34 36 36 35 34 32 30 27 27
39 40 39 37 37 39 40 37 37 36 38 39 39 39 39 41 42 45 52 55 55 49 41 35 34 34 35 36 37 39 48 41 33 32 32 33 33 34 33 33 30 28 27
36 37 36 36 37 38 38 34 33 36 36 36 35 35 36 37 39 38 38 38 38 35 34 33 32 32 33 35 36 35 34 34 32 30 32 32 33 32 31 30 30 29 27
32 35 34 34 35 35 35 32 33 35 34 34 32 33 33 34 35 35 34 35 35 33 31 31 29 29 31 32 33 34 33 32 31 31 31 30 30 29 28 28 27 25 23
30 32 32 31 31 33 32 32 33 34 33 31 31 32 31 31 32 32 33 32 32 31 30 30 28 28 29 30 30 30 29 29 26 25 24 24 24 23 23 22 23 22 22
30 30 30 29 30 31 31 31 30 32 31 31 31 31 31 30 29 30 30 30 31 32 30 29 29 28 27 28 29 28 27 26 25 25 23 22 21 20 20 20 20 20 20
29 29 29 29 29 30 29 29 29 29 29 28 28 29 29 29 28 28 27 31 31 32 32 32 31 30 31 31 30 29 29 28 27 22 20 18 18 17 18 17 17 18 17

GFSMW_sfc_temp_105.txt.gz
Temp
74 73 72 73 71 70 69 68 67 67 64 61 60 61 61 62 62 64 64 64 64 64 63 62 60 62 59 57 58 58 57 58 65 62 60 63 65 66 68 70 70 69 70
70 71 71 71 68 69 67 66 67 65 67 65 64 65 64 63 63 64 64 64 64 64 62 60 58 59 59 57 57 58 56 57 60 61 61 52 56 63 66 68 68 67 70
67 68 68 69 68 66 65 65 67 64 68 67 65 65 62 61 60 60 62 63 65 62 62 59 58 57 57 56 57 58 58 56 58 63 64 54 53 58 64 63 67 66 66
66 67 67 68 68 66 66 65 65 63 66 65 63 63 63 61 61 61 62 63 63 62 62 60 59 58 58 56 57 58 58 57 56 61 64 64 60 58 53 61 62 65 65
64 64 65 68 69 67 65 65 63 63 64 64 64 63 61 63 62 63 61 61 62 62 61 60 58 58 58 57 58 57 57 59 59 60 59 59 60 62 61 59 60 64 65
62 64 67 68 69 65 65 64 60 61 62 63 62 59 59 62 62 60 59 60 59 59 61 60 59 58 58 57 58 59 59 60 62 63 63 60 60 57 59 61 60 59 59
61 63 64 65 66 67 64 63 60 60 60 61 59 59 60 62 61 59 58 58 58 59 60 59 57 57 58 59 59 58 61 63 62 61 63 63 63 62 61 64 61 61 63
61 63 64 64 65 67 65 62 61 59 60 59 58 58 62 63 64 62 60 60 63 60 63 60 58 58 57 58 58 58 58 59 60 61 62 63 63 64 64 65 62 58 60
60 62 64 64 65 66 64 61 60 60 59 58 58 58 62 63 63 62 59 59 61 61 62 60 58 58 58 57 57 57 57 57 58 58 59 61 63 63 65 63 63 63 58
61 61 63 64 65 65 64 61 61 59 59 58 61 60 60 62 63 62 58 60 62 61 61 58 58 57 58 57 57 56 57 57 56 56 55 57 57 60 62 57 57 58 61
58 60 62 62 61 62 64 61 61 60 59 59 61 56 58 61 61 60 60 61 61 60 59 58 57 57 57 56 55 55 56 56 56 56 55 56 58 59 60 56 55 56 59
57 57 56 56 59 60 60 60 60 59 58 59 58 56 58 60 60 60 60 61 59 59 59 58 57 57 57 57 56 55 56 56 55 55 56 57 56 57 57 56 57 57 62
57 53 52 52 56 59 58 58 58 58 58 59 56 55 56 58 59 59 60 61 61 57 59 58 57 57 57 57 57 57 57 57 57 56 56 57 57 56 56 56 56 56 57
54 50 49 49 51 57 58 58 58 58 58 58 57 54 55 58 59 60 60 60 61 60 58 58 57 57 57 57 58 58 57 58 58 57 57 58 57 57 57 56 56 56 55
50 47 46 45 47 49 55 58 58 58 58 58 57 55 56 57 59 59 60 60 60 61 61 59 59 58 57 57 56 57 57 56 56 56 57 58 56 52 55 57 56 55 54
46 45 45 43 43 45 48 55 56 57 58 58 57 57 56 57 58 59 59 59 60 61 60 59 59 59 60 47 46 53 56 56 55 55 56 57 49 49 45 41 40 49 55
42 42 41 40 41 43 46 49 54 58 57 57 57 57 56 56 57 59 59 59 59 60 60 59 58 57 59 45 45 45 62 58 56 57 56 56 52 46 42 36 36 35 35
40 40 39 39 39 42 44 46 54 57 57 57 58 58 57 56 57 58 58 58 59 57 58 58 57 56 56 44 44 43 60 61 61 61 61 60 56 47 42 38 34 33 34
39 39 39 38 39 40 41 42 43 44 45 44 45 47 50 54 57 55 56 58 58 57 56 57 56 55 55 44 43 44 53 55 55 57 60 60 60 41 39 36 32 31 31
38 38 38 37 37 37 39 39 38 38 38 39 40 42 43 45 45 46 53 56 57 56 56 47 39 37 45 37 40 44 51 48 44 36 35 35 44 36 36 36 32 28 27
36 38 37 35 36 37 38 35 35 34 37 38 38 38 39 40 40 42 42 43 52 40 36 34 34 34 35 37 38 39 46 38 33 33 32 33 33 34 34 33 30 27 26
33 34 35 34 35 36 37 34 33 35 36 36 35 35 36 37 38 38 38 38 37 35 33 32 31 32 33 35 36 37 36 35 33 32 32 32 32 31 30 29 29 28 26
31 33 33 34 34 34 34 33 33 35 35 34 33 33 33 34 35 34 34 34 34 32 31 31 30 29 31 32 33 34 33 33 31 31 31 31 30 29 28 27 26 24 23
29 31 31 31 30 32 32 32 34 36 35 33 32 32 31 31 32 33 32 32 32 32 31 30 29 29 29 28 28 28 28 28 27 25 24 24 24 24 23 23 23 22 22
29 29 29 29 29 31 31 32 33 35 33 33 32 31 31 31 30 30 30 30 31 31 29 29 29 27 26 27 28 29 29 28 27 28 27 25 24 22 22 21 20 21 21
28 28 28 28 28 29 29 31 32 33 33 31 31 30 31 31 30 29 28 31 31 32 32 32 30 29 30 30 30 30 30 29 29 28 25 24 23 22 21 21 20 21 20

GFSMW_sfc_temp_108.txt.gz
Temp
85 87 82 84 84 84 83 82 81 79 77 70 67 65 63 66 67 70 72 74 72 73 69 66 64 61 59 59 60 59 57 57 59 60 62 66 69 71 70 75 76 73 71
82 81 80 81 80 81 81 80 80 79 77 71 69 71 66 67 68 68 72 71 72 70 66 64 63 61 59 60 61 59 57 58 61 59 58 54 58 65 69 75 74 70 73
77 77 77 78 79 79 79 79 80 79 77 76 68 70 68 67 64 65 67 68 70 68 65 64 63 61 60 58 58 58 58 56 60 63 62 55 54 61 65 68 74 68 71
74 76 76 77 78 78 79 79 79 79 77 76 67 68 68 65 70 67 68 66 68 66 66 66 65 61 60 58 58 59 58 59 57 60 62 69 67 63 57 64 71 72 69
74 73 75 77 79 79 77 76 76 77 74 73 68 70 72 75 75 73 70 64 65 66 66 63 60 59 59 59 59 58 58 58 58 58 60 64 65 68 64 59 64 71 73
72 74 77 77 78 79 77 75 73 74 71 67 68 70 73 74 72 68 64 62 63 64 63 62 61 60 60 59 59 59 58 57 58 58 60 63 63 63 63 63 61 65 69
71 72 75 76 75 75 75 75 73 71 68 64 66 70 74 72 72 71 69 63 64 63 63 60 60 59 59 62 61 60 59 59 58 58 59 64 67 66 67 65 64 63 68
71 72 73 74 75 74 75 74 73 68 66 63 63 68 70 74 74 72 70 67 66 68 61 60 62 60 60 60 60 59 59 59 59 59 61 64 67 67 69 68 65 61 64
71 71 72 72 72 71 71 72 70 67 65 62 61 63 67 72 72 72 70 68 68 67 66 60 59 59 59 59 57 57 57 58 59 59 61 64 64 68 66 70 68 66 60
68 69 69 68 69 69 67 70 70 65 65 62 60 60 67 71 72 71 64 66 65 67 65 63 60 59 57 58 57 57 58 57 58 59 59 58 64 66 68 66 66 70 66
66 67 66 66 65 67 62 70 67 64 63 61 59 61 67 70 70 68 64 63 66 67 66 66 60 58 57 57 57 56 56 56 57 57 57 57 57 60 59 62 67 64 68
66 66 64 61 61 55 51 65 64 63 63 61 60 62 65 68 66 65 63 63 64 66 66 63 59 57 57 57 56 56 56 56 56 57 56 55 56 58 57 63 60 66 67
63 63 62 58 54 49 49 60 61 62 61 61 59 60 60 64 63 64 64 64 64 66 65 64 59 57 57 56 56 56 56 56 57 57 57 57 55 55 56 57 61 63 60
57 55 55 55 49 47 47 50 59 60 59 59 59 58 58 62 63 64 63 64 63 63 62 62 63 61 59 59 58 57 56 55 56 57 57 57 56 57 56 56 57 59 56
51 49 48 48 45 44 45 46 58 58 58 57 57 56 58 62 64 64 63 64 63 62 64 62 62 61 60 59 58 57 57 56 57 57 57 58 56 52 54 56 56 56 56
47 48 45 44 42 41 42 45 55 57 58 57 56 57 58 60 61 63 63 62 62 63 62 60 59 59 60 46 46 53 56 57 57 57 57 57 50 49 45 45 43 48 54
43 43 40 39 39 40 41 41 47 57 57 56 57 58 60 59 60 62 62 61 61 63 62 63 61 59 59 44 45 45 59 55 56 57 56 54 52 49 50 39 37 36 35
39 41 39 37 37 39 41 41 48 54 54 53 55 57 57 59 61 61 61 62 63 62 63 62 61 61 60 43 44 43 59 55 56 56 55 55 53 51 45 41 36 34 34
37 38 39 37 35 36 38 37 40 42 43 43 44 45 49 52 56 57 59 61 61 62 63 63 61 59 57 41 42 43 55 60 59 61 61 60 57 47 41 39 33 31 30
37 36 38 36 34 34 36 36 36 36 36 39 39 42 44 45 44 45 47 54 58 57 55 43 41 39 45 37 40 43 51 50 45 39 39 36 46 39 37 39 33 28 27
34 36 37 35 34 34 34 34 34 33 34 37 38 38 39 40 40 41 41 43 45 39 35 34 34 35 35 37 38 39 49 40 34 33 33 33 34 34 35 34 30 26 25
32 34 33 34 34 36 37 35 33 33 34 35 36 36 37 37 39 38 37 38 36 34 33 32 32 32 33 34 36 36 36 36 34 32 32 32 33 32 31 29 29 28 25
30 32 32 32 34 36 35 35 36 37 36 36 34 34 35 36 36 36 36 35 35 33 31 31 29 28 29 30 32 33 33 32 31 31 30 30 30 29 28 28 27 25 25
29 30 30 30 30 33 35 34 37 38 37 35 34 33 32 32 33 33 33 33 32 31 30 29 27 27 27 27 28 28 27 28 26 26 25 25 26 26 26 26 26 27 27
30 29 28 28 28 30 32 35 36 39 37 37 36 35 33 32 30 30 30 30 30 31 29 29 29 27 26 28 29 30 29 28 28 30 30 29 29 29 28 27 27 28 29
31 29 28 28 28 29 29 32 35 36 38 36 34 34 33 32 32 30 29 31 31 32 32 32 31 30 30 30 31 31 31 32 32 33 31 29 29 29 28 28 28 29 28

GFSMW_sfc_temp_111.txt.gz
Temp
88 91 91 89 89 89 88 89 87 87 85 82 81 80 70 71 73 81 80 79 76 73 70 71 71 67 65 62 62 60 60 59 60 59 60 61 66 71 74 76 75 70 70
86 88 88 87 85 86 86 87 87 86 86 84 83 76 69 70 71 75 78 78 74 73 72 71 65 62 62 61 60 59 57 58 59 58 57 54 60 66 70 73 75 69 71
84 86 84 83 84 83 84 85 86 86 85 83 80 72 71 69 67 68 73 75 74 74 72 72 66 62 61 59 59 59 59 57 58 59 59 53 53 58 64 67 75 71 71
83 84 82 82 82 82 83 83 84 85 85 83 78 70 68 66 69 70 73 73 74 73 72 68 65 62 61 60 60 61 60 59 57 58 60 61 62 58 54 65 73 72 70
80 80 81 82 83 84 83 81 81 83 84 83 79 71 67 73 76 74 73 70 71 69 71 68 64 62 61 61 59 59 58 58 57 58 57 57 59 65 62 58 66 71 71
78 79 81 82 83 83 81 80 80 80 81 81 78 71 68 74 77 76 74 70 68 69 67 66 64 65 63 61 59 60 58 58 58 59 59 58 58 62 61 60 62 64 69
75 76 78 79 80 80 79 79 80 79 79 77 75 69 69 72 77 76 74 71 69 67 65 63 63 63 63 62 60 59 59 58 57 58 58 59 60 64 64 66 64 62 66
75 76 77 77 77 78 77 76 76 78 79 76 68 70 68 70 74 75 75 72 71 70 64 62 62 61 62 62 60 59 59 59 58 58 58 58 59 63 67 68 64 60 65
74 75 75 74 73 73 72 74 72 75 78 75 67 68 68 68 72 75 77 74 72 72 68 64 64 63 61 62 60 59 58 58 59 59 59 58 59 59 65 69 69 65 58
72 72 73 71 70 70 69 70 69 72 76 73 67 66 65 70 72 75 73 73 71 70 64 61 61 60 59 59 59 59 59 58 59 58 58 58 59 59 61 61 61 70 66
70 71 70 69 68 67 66 65 63 71 75 68 66 64 63 68 70 72 72 71 69 69 68 66 62 60 58 58 57 57 57 57 57 58 57 57 57 57 58 60 65 60 66
63 66 68 67 66 64 62 59 55 62 68 65 62 61 62 65 69 70 69 69 68 70 70 67 62 60 58 58 56 55 56 56 55 56 57 57 56 55 57 56 58 66 63
61 63 63 62 61 61 58 53 51 49 63 62 60 60 60 63 66 67 67 66 68 67 68 65 63 60 58 57 57 57 56 56 57 56 56 56 56 55 55 55 56 59 60
57 57 57 57 59 58 54 48 47 46 60 61 60 59 60 63 64 66 66 63 67 66 66 64 63 59 58 57 56 56 55 55 56 56 56 55 56 56 55 55 55 55 54
52 52 51 51 53 52 49 45 46 47 58 59 58 57 59 62 64 64 64 63 65 66 65 63 63 62 60 59 57 57 56 55 55 55 55 56 55 50 53 55 55 54 54
47 48 48 47 47 46 43 42 43 44 48 56 56 57 57 60 64 63 62 61 63 66 64 62 61 61 63 46 46 54 56 56 55 53 54 56 49 49 46 46 47 52 54
45 43 42 42 43 42 40 39 41 42 49 56 56 56 57 59 61 61 62 62 61 62 64 65 64 63 64 45 44 45 59 56 56 56 55 55 55 51 55 40 39 37 36
42 38 39 39 40 39 39 39 39 41 50 52 53 56 57 59 60 61 61 61 63 61 61 60 61 63 62 43 43 43 59 57 58 57 59 57 53 53 50 42 36 34 34
39 37 39 37 36 36 37 37 36 36 40 41 43 45 49 54 60 59 61 62 61 61 60 61 61 61 52 39 41 45 57 55 55 56 57 57 55 45 43 39 32 30 30
38 36 37 36 34 33 35 34 33 33 34 36 37 40 42 44 45 46 49 52 60 57 47 42 40 37 45 37 38 44 53 48 41 37 35 35 42 40 39 37 34 29 27
35 35 35 34 33 33 33 32 32 32 32 34 36 36 37 39 40 41 42 43 40 37 35 34 33 34 35 36 37 39 50 42 35 34 33 34 35 36 35 35 32 28 26
33 34 33 33 33 33 32 32 32 32 33 33 32 34 33 34 38 37 37 37 36 34 32 31 30 30 32 34 35 36 36 36 34 32 32 32 34 33 32 30 30 28 26
31 32 31 31 32 33 32 32 32 34 33 32 32 32 32 33 34 34 34 34 34 32 31 30 28 27 28 29 32 32 32 32 30 30 30 30 30 29 28 28 28 27 25
31 31 30 29 29 32 32 34 39 40 37 34 32 32 30 30 32 32 31 32 31 30 29 28 26 27 27 27 28 27 28 28 27 27 27 27 27 27 27 28 28 27 27
32 31 29 28 28 30 30 34 36 39 37 36 36 34 32 31 30 30 30 29 30 30 28 28 28 27 26 28 30 29 28 28 29 30 30 29 28 28 28 28 28 29 29
36 33 31 30 29 30 31 32 35 36 35 34 33 32 32 32 31 29 28 31 31 32 32 32 30 30 31 32 32 33 33 32 33 33 31 30 31 30 30 29 30 31 31

GFSMW_sfc_temp_114.txt.gz
Temp
85 87 84 83 83 82 81 82 81 78 77 76 74 75 74 74 74 74 73 71 71 70 70 69 67 67 65 63 64 62 60 60 61 60 59 59 61 62 64 68 65 67 66
83 85 85 81 80 80 80 81 81 80 78 78 77 76 76 73 73 71 73 74 72 71 70 68 65 65 64 62 61 60 58 59 61 58 58 54 56 59 61 64 66 65 67
79 82 83 78 77 78 78 80 80 80 78 78 77 74 69 68 67 67 70 73 72 71 69 67 65 64 63 61 61 60 59 57 58 59 57 52 52 56 59 62 65 64 64
80 82 80 77 76 77 79 79 79 79 80 77 76 69 66 65 67 67 69 71 70 70 69 68 64 63 62 60 60 60 60 59 57 58 58 58 57 54 52 59 60 65 65
77 79 78 79 79 78 76 77 77 77 77 77 74 69 68 69 69 67 66 67 69 69 69 68 64 62 61 61 60 59 59 60 59 58 56 56 57 57 55 53 56 62 65
75 76 78 79 78 78 74 75 75 76 76 75 74 71 67 68 67 67 65 66 66 67 68 66 64 62 61 60 60 60 60 59 59 59 58 57 56 56 56 55 55 57 61
73 72 75 76 74 73 73 73 73 73 74 73 72 71 69 68 68 69 68 67 65 64 65 65 63 62 61 60 61 59 59 58 57 58 57 58 58 59 58 58 55 56 58
72 73 74 72 70 70 69 68 68 69 71 70 71 70 69 68 69 70 71 67 66 65 66 65 64 62 62 60 60 59 58 58 58 58 58 58 58 59 59 58 58 54 56
72 71 72 69 67 66 66 64 65 66 68 67 69 68 66 66 68 70 69 69 68 68 66 64 62 62 62 60 59 58 58 58 58 58 58 58 58 59 58 58 59 59 51
70 70 68 66 67 66 64 62 62 63 63 63 65 67 66 67 67 68 67 68 68 67 63 62 61 60 60 60 59 58 58 57 58 58 58 58 58 57 58 57 56 59 57
64 65 66 66 65 65 63 61 59 57 56 57 60 66 65 66 66 66 66 67 67 66 64 62 61 60 59 59 58 58 57 57 57 58 57 57 57 57 57 57 56 56 58
61 62 62 61 61 61 60 57 55 54 52 52 62 64 63 64 65 64 65 65 66 66 64 62 60 59 58 58 57 56 57 57 56 57 57 56 57 56 57 56 55 55 57
57 58 58 57 56 56 56 54 52 50 49 51 57 60 60 62 61 62 64 65 65 65 65 63 61 59 58 57 57 57 56 56 57 57 56 57 56 55 56 56 54 54 56
53 53 53 52 52 52 51 50 48 48 47 49 56 58 58 60 61 61 63 64 64 65 65 62 60 58 57 57 56 56 55 56 56 56 57 57 56 55 55 55 55 54 53
50 49 48 47 47 47 46 45 45 45 45 45 51 57 59 60 61 60 62 63 62 63 63 62 60 59 58 57 56 56 55 55 54 55 55 56 55 51 53 54 53 54 53
46 45 44 43 42 42 41 42 42 42 43 45 49 58 58 58 58 59 60 61 60 61 62 62 59 58 59 46 46 52 55 54 54 53 53 53 48 48 46 46 47 51 53
43 40 39 39 39 38 39 39 40 42 41 46 54 57 57 57 58 59 59 59 59 60 60 60 60 58 59 45 45 46 56 54 53 53 53 52 52 49 51 41 38 37 37
39 38 38 37 37 37 37 38 40 40 38 39 43 51 56 56 58 58 58 58 59 58 59 59 59 58 53 42 43 43 56 54 54 54 54 53 51 51 48 40 35 33 33
38 37 37 36 35 35 36 37 37 37 36 35 37 40 44 55 56 57 57 58 58 57 55 52 49 48 41 38 40 45 53 53 52 51 44 51 52 44 42 38 33 31 30
36 35 36 35 34 33 35 34 33 32 32 33 34 37 39 43 47 49 51 51 52 46 41 37 37 36 39 37 39 43 52 44 38 36 36 35 42 39 38 38 34 29 28
35 36 37 33 33 33 33 33 32 31 32 32 33 35 35 37 39 40 42 42 39 36 33 32 32 33 34 35 38 40 47 38 34 33 33 33 35 36 36 36 34 29 27
33 33 32 32 32 33 32 32 31 32 32 32 32 32 33 33 36 36 36 37 35 33 31 29 28 29 31 34 35 36 36 35 32 31 31 32 33 33 32 31 30 29 27
31 32 30 30 31 31 31 30 32 32 32 31 30 30 31 32 32 32 33 32 32 31 29 28 27 26 28 28 32 32 32 31 29 30 30 31 31 30 29 29 29 27 26
31 31 30 29 28 30 31 31 33 33 32 31 30 29 29 29 31 31 31 30 30 29 28 28 26 26 27 27 28 28 28 29 28 27 28 28 28 27 27 27 28 27 26
33 31 29 29 28 29 30 31 32 34 32 31 32 30 29 28 28 29 29 29 29 29 28 28 28 27 26 28 30 29 29 29 29 29 29 28 28 27 27 26 27 27 27
34 32 30 30 29 29 30 31 32 32 32 31 31 31 30 29 27 27 27 31 31 32 32 32 31 31 32 33 33 33 33 34 33 31 28 27 27 27 27 26 26 27 27

GFSMW_sfc_temp_117.txt.gz
Temp
78 80 78 76 73 70 72 70 72 73 71 68 67 65 69 68 65 67 69 69 70 70 68 67 66 66 64 63 63 63 62 60 61 60 59 60 61 61 61 64 64 65 65
72 79 79 70 71 70 70 70 71 70 71 71 71 68 66 67 70 66 66 68 67 67 69 68 65 64 63 63 62 61 59 59 61 58 57 54 56 59 61 61 63 64 65
69 72 72 68 67 68 70 71 70 70 69 71 68 64 64 63 62 63 64 66 67 67 67 67 65 64 62 61 61 61 60 58 59 60 57 53 52 56 58 59 62 62 63
72 73 70 66 66 67 68 69 70 70 71 69 66 64 63 60 61 62 63 68 67 68 68 67 64 62 61 61 62 61 60 59 57 59 58 56 56 53 52 57 60 62 63
72 70 70 69 68 66 65 67 69 69 70 68 66 64 62 64 61 61 62 63 66 68 68 67 63 62 61 59 61 60 60 60 58 58 57 56 56 56 55 52 54 59 61
68 71 71 67 64 64 63 63 63 65 66 66 65 63 62 62 60 61 61 63 65 65 65 66 63 63 62 61 60 60 59 59 59 59 58 57 57 56 56 54 55 55 58
67 66 64 62 62 60 60 63 63 63 62 62 62 62 63 62 62 62 62 62 64 65 65 65 62 61 61 61 61 59 59 59 59 58 58 59 57 60 59 56 54 55 56
65 63 61 61 60 60 59 58 60 60 60 61 60 60 62 64 64 65 65 64 65 65 66 64 63 62 61 61 60 59 59 59 58 58 58 58 58 59 59 58 55 51 53
61 61 62 61 59 58 58 56 56 57 57 56 56 56 59 62 64 65 66 64 67 67 64 63 62 61 61 60 60 59 58 58 58 58 58 58 58 58 58 58 59 57 50
59 59 58 58 59 58 56 54 54 54 54 54 52 54 56 58 64 63 62 63 66 66 64 63 62 61 60 60 59 58 58 57 57 58 58 58 58 58 57 57 57 56 55
54 54 55 56 55 55 55 53 52 51 51 51 50 50 50 56 63 61 61 63 65 65 63 62 61 60 59 59 58 58 58 57 57 57 57 57 58 57 57 57 56 55 55
52 52 52 51 51 51 51 49 48 48 48 48 48 49 50 61 61 61 61 64 65 63 62 60 60 59 59 59 58 57 57 56 56 56 57 57 57 57 57 57 56 55 54
50 49 47 46 47 47 46 46 45 44 45 45 45 47 49 59 60 60 60 63 63 62 62 60 60 59 58 58 58 58 57 57 57 57 56 57 57 56 56 56 55 55 55
47 45 43 42 43 44 43 42 42 43 44 44 43 45 47 58 59 60 59 62 63 61 60 60 60 58 57 57 57 57 56 56 57 57 58 57 57 57 56 56 56 54 54
42 41 40 40 40 40 39 40 40 41 43 42 43 44 48 57 59 59 59 61 62 62 60 60 59 58 57 57 56 56 55 55 55 56 56 57 56 51 54 56 56 54 54
40 40 39 39 38 37 37 38 39 40 41 41 41 44 50 57 58 58 59 59 59 61 59 58 57 56 58 47 46 52 55 54 54 53 53 54 49 48 45 46 47 53 54
38 37 37 36 36 36 36 36 37 39 39 40 41 42 43 57 58 59 59 58 58 59 58 57 57 56 57 44 45 45 55 54 53 53 52 51 51 49 50 39 38 37 38
36 35 35 35 34 35 36 37 38 37 37 37 38 39 40 46 57 58 58 57 58 57 57 56 57 55 49 43 43 43 54 53 53 53 53 52 50 50 44 39 35 34 34
35 35 36 35 34 34 35 36 35 35 35 34 35 36 38 40 54 56 56 57 57 56 52 52 49 46 41 39 42 46 53 51 49 47 44 52 51 42 41 37 33 31 31
34 33 35 34 33 32 34 33 32 32 31 32 33 35 36 37 39 51 55 55 49 43 41 36 36 37 38 37 40 47 50 41 37 35 35 35 42 38 38 38 34 30 28
33 33 33 31 31 32 32 31 32 30 31 32 32 33 34 36 35 39 45 43 38 35 33 32 32 33 34 36 40 42 45 38 34 33 32 33 35 36 37 37 35 31 28
31 32 31 30 31 31 31 30 31 32 32 31 30 30 32 33 34 34 35 36 35 32 30 29 28 29 32 34 35 36 36 35 32 30 31 32 34 33 32 31 31 30 28
30 31 30 29 30 30 30 29 31 32 32 30 28 28 29 31 32 32 32 31 32 31 29 28 26 26 28 30 33 33 32 32 30 30 31 32 31 31 30 30 29 28 27
29 29 29 28 27 29 30 31 32 33 32 30 28 28 27 28 30 31 31 30 30 29 28 27 26 26 27 27 28 28 29 30 28 28 28 28 28 28 27 27 27 27 26
29 29 27 26 26 29 29 31 32 32 31 31 30 28 27 27 28 29 29 29 30 30 28 28 28 27 26 28 30 30 29 29 29 29 29 27 27 26 26 26 26 26 26
29 28 27 27 27 28 29 30 32 32 31 30 30 29 29 27 27 27 27 31 31 32 32 32 31 32 32 33 33 33 32 32 31 29 26 25 25 25 25 25 25 26 26

GFSMW_sfc_temp_123.txt.gz
Temp
70 72 71 69 68 69 68 69 69 70 69 69 66 64 65 66 65 67 67 67 67 67 66 65 64 65 64 62 62 61 61 61 63 60 60 60 61 61 61 62 62 62 62
64 69 70 68 67 65 67 68 69 70 70 71 71 68 68 65 67 66 67 67 67 67 67 66 65 66 65 63 62 63 60 61 62 59 58 55 57 60 60 61 62 62 62
65 69 70 69 63 62 60 68 70 70 70 70 65 63 63 62 62 63 65 67 66 67 67 66 65 64 64 63 63 63 62 59 61 60 57 53 52 54 59 60 61 61 61
62 65 62 60 56 54 59 60 61 61 63 64 63 63 63 61 64 65 66 65 66 66 67 66 65 65 65 64 63 64 63 62 59 60 59 58 56 53 52 58 60 61 60
57 55 56 57 56 57 58 58 59 59 60 60 62 61 61 61 61 61 62 62 64 65 66 67 65 65 64 64 64 62 62 62 60 59 58 56 54 56 54 52 55 59 61
54 55 57 57 55 56 56 56 56 56 56 56 56 56 55 56 58 60 60 61 62 64 65 66 65 66 64 63 63 62 62 61 61 60 59 58 56 55 54 53 55 56 57
54 53 51 51 51 51 52 54 53 52 52 52 52 53 53 54 54 58 60 60 60 61 63 63 63 64 63 63 63 62 61 61 60 59 59 59 58 58 58 56 54 54 55
49 49 49 49 50 49 49 50 50 49 50 50 49 50 50 51 52 55 58 60 62 63 64 63 63 64 63 61 62 61 61 60 60 59 59 59 60 60 59 58 55 53 53
46 46 48 48 47 47 47 47 47 47 47 48 48 47 47 47 48 50 53 55 62 63 63 62 63 63 63 62 61 61 60 60 60 59 59 59 59 59 59 59 58 56 51
43 45 45 45 45 46 46 46 46 45 46 46 46 47 45 46 47 48 49 52 56 62 62 62 62 63 62 62 61 61 60 59 59 59 58 58 59 57 58 58 59 59 56
41 42 43 44 43 43 43 43 42 42 43 43 43 43 43 44 45 46 49 51 54 57 62 62 62 62 61 61 60 60 59 58 58 58 58 58 58 57 57 57 57 55 56
40 40 41 41 41 40 40 39 40 39 40 41 41 42 43 44 44 45 47 51 54 57 62 63 62 63 62 61 60 59 58 58 57 57 56 57 57 57 57 57 56 56 55
40 39 39 38 38 39 39 39 39 40 39 40 40 41 41 42 42 43 46 50 51 59 62 63 62 62 61 60 60 59 58 58 58 57 57 56 56 56 56 56 56 56 56
38 37 37 36 37 37 37 38 38 39 38 39 38 39 40 40 41 43 45 49 52 59 61 62 62 61 61 60 59 58 58 57 57 57 57 57 56 56 56 56 55 55 54
35 35 35 35 36 35 36 37 38 38 38 37 37 38 40 40 41 43 45 47 51 58 61 61 61 61 60 59 58 58 57 56 56 56 56 57 55 51 53 56 55 54 54
34 35 35 35 34 34 34 35 36 37 37 36 36 38 38 39 39 41 43 46 48 57 60 60 60 58 58 47 47 54 56 56 55 55 55 56 50 49 45 47 47 52 54
33 34 33 32 33 32 33 33 35 36 36 35 36 36 36 37 38 40 42 44 46 56 59 59 59 58 58 45 46 46 57 56 55 55 54 54 53 50 52 42 42 39 40
32 32 32 31 31 32 32 34 35 34 34 33 33 34 34 34 36 38 40 42 44 52 58 58 58 57 56 44 44 44 55 55 54 54 54 53 52 51 46 41 37 35 35
31 32 32 31 31 30 32 33 33 33 32 31 31 31 32 33 34 36 36 39 42 46 57 58 56 55 50 42 42 47 53 52 50 49 49 52 50 40 41 38 34 32 32
32 30 29 30 29 29 32 31 31 31 29 30 29 31 31 32 33 33 35 37 40 49 45 40 44 44 46 41 42 48 49 43 39 37 37 36 45 37 38 38 36 33 30
30 31 29 28 29 30 31 29 29 29 31 30 29 29 31 31 33 33 35 35 36 37 36 34 34 35 38 41 42 43 46 40 36 34 33 34 36 37 38 38 37 34 31
27 27 26 28 29 30 30 28 27 30 31 30 27 28 29 31 32 32 32 33 33 33 33 33 32 32 33 37 39 40 38 37 35 32 32 34 35 35 34 33 32 31 30
25 25 24 24 26 29 29 27 28 30 29 27 26 26 27 30 30 30 30 31 31 31 30 31 31 30 31 32 34 34 34 33 32 32 33 33 33 32 31 31 31 30 29
22 22 22 23 24 27 29 29 29 31 30 26 25 26 26 27 29 29 30 29 29 29 29 29 29 28 29 28 29 30 31 31 29 28 27 27 28 28 27 27 27 27 27
23 21 21 22 22 25 27 30 30 31 30 28 26 26 26 26 27 28 27 28 29 30 29 29 29 29 28 29 31 30 28 28 28 29 28 27 26 25 25 25 26 26 26
24 23 23 23 23 24 27 28 29 30 29 28 26 26 26 26 26 26 26 29 29 30 31 31 29 29 31 31 31 31 31 30 30 27 25 24 24 24 24 24 24 25 25

GFSMW_sfc_temp_126.txt.gz
Temp
68 71 70 70 71 72 71 69 68 68 67 66 64 64 64 66 65 66 66 66 66 66 66 65 63 63 63 63 63 63 61 61 62 60 60 60 62 61 62 63 63 63 63
64 69 70 64 64 67 69 69 69 69 68 69 68 64 66 66 66 67 66 66 66 66 66 66 64 64 63 63 63 63 60 61 62 59 59 56 57 60 61 62 62 62 63
61 65 67 65 63 61 64 67 68 70 68 69 65 61 62 63 64 64 65 66 66 66 66 66 65 64 64 63 63 63 62 60 61 61 59 53 52 56 59 60 62 62 62
63 66 65 55 54 53 56 59 61 62 63 64 65 63 64 63 63 65 66 66 66 66 67 66 65 65 65 63 63 64 64 63 59 61 59 59 56 51 52 58 59 61 61
62 53 53 53 53 53 53 55 56 56 58 60 63 62 60 61 60 61 63 63 64 65 66 66 65 65 65 64 63 63 63 63 62 60 58 57 56 56 55 52 55 59 61
51 52 53 53 52 53 52 53 53 54 55 56 56 57 57 57 60 61 60 61 62 64 64 65 65 66 66 65 64 64 63 62 63 62 60 58 58 55 54 52 53 56 58
45 45 45 45 46 46 49 50 50 50 51 51 52 51 52 54 55 57 61 60 61 62 64 64 65 65 64 64 64 63 63 62 62 61 60 61 60 58 58 55 54 55 56
43 42 43 43 45 46 46 47 47 46 48 49 48 48 49 50 52 53 54 57 60 61 63 64 65 65 65 63 63 63 63 62 62 61 61 60 60 59 58 56 55 53 54
42 41 41 42 43 42 42 43 44 45 46 46 46 46 47 47 46 47 49 51 54 59 61 61 63 64 64 62 62 61 61 61 61 60 60 60 59 60 59 59 59 56 51
41 41 41 41 41 41 41 42 43 43 43 44 44 44 44 45 45 45 46 48 50 53 55 61 61 63 63 63 62 62 61 60 60 60 59 59 59 59 59 59 59 58 57
39 39 40 41 41 41 42 41 41 40 40 41 41 42 42 43 44 44 45 46 48 50 53 55 61 62 63 63 62 61 61 60 60 59 59 59 59 58 58 58 58 57 57
37 38 37 39 38 38 38 38 39 38 39 40 41 41 43 43 42 42 44 45 46 49 52 56 57 62 62 62 61 60 60 59 58 58 58 58 57 57 58 57 56 57 57
37 37 37 36 37 37 37 37 38 38 38 39 38 39 39 39 39 40 42 44 45 47 51 55 57 61 63 61 61 61 60 60 59 59 58 57 57 56 57 57 56 56 55
34 34 34 34 35 36 36 36 37 38 38 38 38 36 36 37 39 41 41 42 45 46 50 53 59 61 62 62 61 60 60 59 59 58 58 58 57 57 57 56 56 56 55
33 32 32 32 33 34 34 35 36 37 37 37 36 36 37 38 39 39 40 41 43 46 49 52 58 61 61 61 60 60 59 58 57 57 57 57 56 51 54 56 56 55 55
32 32 32 32 32 32 32 34 35 35 36 35 35 36 36 36 37 38 39 40 42 45 48 51 58 60 60 49 48 55 58 57 57 56 56 56 50 49 45 47 47 53 54
31 30 30 30 31 30 32 32 34 35 34 34 33 34 34 34 35 37 38 39 40 42 44 48 57 59 60 46 46 46 58 57 56 56 55 55 54 50 53 44 43 43 44
30 30 30 30 30 31 32 33 34 34 33 32 32 32 32 32 34 35 36 37 39 39 42 46 55 59 58 44 45 44 57 56 56 55 55 55 53 53 50 44 39 37 37
30 29 30 30 30 30 32 32 32 32 32 30 30 30 31 31 33 33 34 36 37 38 41 46 54 57 56 43 43 45 55 54 54 54 54 55 53 43 43 42 36 34 32
29 28 29 30 29 30 31 30 29 29 28 30 29 30 31 31 31 32 33 35 36 37 39 39 40 48 54 41 42 48 53 47 42 40 40 42 48 38 39 41 38 35 32
26 27 27 27 27 29 30 28 28 27 29 28 28 28 30 30 31 32 33 34 33 35 35 34 34 34 36 43 41 44 50 44 39 37 34 34 37 38 38 39 39 36 33
24 24 23 25 27 29 29 27 26 29 28 26 25 27 28 30 30 30 30 32 32 32 32 32 33 33 33 35 39 42 41 39 38 34 33 34 36 36 35 34 33 33 32
21 22 21 24 27 27 28 26 27 30 29 25 24 24 27 28 28 27 28 28 30 30 30 30 30 30 32 32 34 35 35 34 33 33 33 34 33 32 32 32 32 32 31
21 21 21 21 22 25 28 28 29 30 29 26 25 24 25 26 27 27 26 26 27 27 27 27 28 29 30 30 30 31 31 31 29 28 28 28 28 28 28 28 28 29 29
22 22 21 21 21 23 27 28 28 29 28 27 25 24 24 23 24 25 25 24 25 27 26 26 27 27 27 30 31 30 30 29 29 29 28 27 27 26 25 26 26 27 27
23 23 23 22 22 23 25 26 28 29 28 26 25 24 23 23 23 23 23 28 27 27 28 29 28 28 30 30 31 31 31 30 29 27 25 24 24 24 24 24 24 25 25